<?xml version="1.0" encoding="UTF-8"?>
<gpx version="1.1" creator="https://www.youtrack.es" xsi:schemaLocation="http://www.topografix.com/GPX/1/1 http://www.topografix.com/GPX/1/1/gpx.xsd http://www.garmin.com/xmlschemas/GpxExtensions/v3 http://www.garmin.com/xmlschemas/GpxExtensionsv3.xsd http://www.garmin.com/xmlschemas/TrackPointExtension/v1 http://www.garmin.com/xmlschemas/TrackPointExtensionv1.xsd" xmlns:gpxtpx="http://www.garmin.com/xmlschemas/TrackPointExtension/v1" xmlns:gpxx="http://www.garmin.com/xmlschemas/GpxExtensions/v3" xmlns:xsi="http://www.w3.org/2001/XMLSchema-instance">
  <metadata>
    <link href="https://www.youtrack.es">
      <text>YouTrack.es</text>
    </link>
    <time>2026-05-08T01:59:27Z</time>
  </metadata>
  <trk>
    <src>https://www.youtrack.es</src>
    <link href="https://www.youtrack.es/ruta/21636-marcha-30a">
      <text>YouTrack.es</text>
    </link>
    <trkseg>
      <trkpt lat="4.807450622320175" lon="-75.68606989458203">
        <ele>1444</ele>
        <time>2021-04-30T22:19:37.000Z</time>
      </trkpt>
      <trkpt lat="4.807447101920843" lon="-75.68606855347753">
        <ele>1444</ele>
        <time>2021-04-30T22:19:38.000Z</time>
      </trkpt>
      <trkpt lat="4.807437378913164" lon="-75.6860631890595">
        <ele>1444</ele>
        <time>2021-04-30T22:19:40.000Z</time>
      </trkpt>
      <trkpt lat="4.807433020323515" lon="-75.68605757318437">
        <ele>1444</ele>
        <time>2021-04-30T22:19:41.000Z</time>
      </trkpt>
      <trkpt lat="4.807431427761912" lon="-75.68604684434831">
        <ele>1443.8</ele>
        <time>2021-04-30T22:19:45.000Z</time>
      </trkpt>
      <trkpt lat="4.807418351992965" lon="-75.68603427149355">
        <ele>1443.8</ele>
        <time>2021-04-30T22:19:47.000Z</time>
      </trkpt>
      <trkpt lat="4.807401252910495" lon="-75.68601591512561">
        <ele>1444</ele>
        <time>2021-04-30T22:19:50.000Z</time>
      </trkpt>
      <trkpt lat="4.807401252910495" lon="-75.68601591512561">
        <ele>1444</ele>
        <time>2021-04-30T22:19:50.000Z</time>
      </trkpt>
      <trkpt lat="4.807396307587624" lon="-75.68600753322244">
        <ele>1444</ele>
        <time>2021-04-30T22:19:53.000Z</time>
      </trkpt>
      <trkpt lat="4.8073904402554035" lon="-75.68600250408053">
        <ele>1444</ele>
        <time>2021-04-30T22:19:54.000Z</time>
      </trkpt>
      <trkpt lat="4.8073904402554035" lon="-75.68600250408053">
        <ele>1444</ele>
        <time>2021-04-30T22:19:54.000Z</time>
      </trkpt>
      <trkpt lat="4.807377113029361" lon="-75.68599294871092">
        <ele>1444</ele>
        <time>2021-04-30T22:19:59.000Z</time>
      </trkpt>
      <trkpt lat="4.80736730620265" lon="-75.68598129786551">
        <ele>1444</ele>
        <time>2021-04-30T22:20:05.000Z</time>
      </trkpt>
      <trkpt lat="4.807354146614671" lon="-75.6859730836004">
        <ele>1444.2</ele>
        <time>2021-04-30T22:20:08.000Z</time>
      </trkpt>
      <trkpt lat="4.807338388636708" lon="-75.68595447577536">
        <ele>1444.2</ele>
        <time>2021-04-30T22:20:15.000Z</time>
      </trkpt>
      <trkpt lat="4.8073377180844545" lon="-75.68594567477703">
        <ele>1444.2</ele>
        <time>2021-04-30T22:20:16.000Z</time>
      </trkpt>
      <trkpt lat="4.807284828275442" lon="-75.68593067117035">
        <ele>1444.4</ele>
        <time>2021-04-30T22:20:21.000Z</time>
      </trkpt>
      <trkpt lat="4.807277284562588" lon="-75.68592178635299">
        <ele>1444.4</ele>
        <time>2021-04-30T22:20:22.000Z</time>
      </trkpt>
      <trkpt lat="4.807232609018683" lon="-75.68585481494665">
        <ele>1444.6</ele>
        <time>2021-04-30T22:20:31.000Z</time>
      </trkpt>
      <trkpt lat="4.807215174660087" lon="-75.68581173196435">
        <ele>1444.4</ele>
        <time>2021-04-30T22:20:38.000Z</time>
      </trkpt>
      <trkpt lat="4.80721777305007" lon="-75.68580008111894">
        <ele>1444.4</ele>
        <time>2021-04-30T22:20:40.000Z</time>
      </trkpt>
      <trkpt lat="4.807195980101824" lon="-75.68577367812395">
        <ele>1444.4</ele>
        <time>2021-04-30T22:20:45.000Z</time>
      </trkpt>
      <trkpt lat="4.807146191596985" lon="-75.68571282550693">
        <ele>1444.4</ele>
        <time>2021-04-30T22:20:56.000Z</time>
      </trkpt>
      <trkpt lat="4.807109730318189" lon="-75.6856657192111">
        <ele>1444</ele>
        <time>2021-04-30T22:21:06.000Z</time>
      </trkpt>
      <trkpt lat="4.807094894349575" lon="-75.68565457127988">
        <ele>1444</ele>
        <time>2021-04-30T22:21:12.000Z</time>
      </trkpt>
      <trkpt lat="4.807060528546572" lon="-75.68562028929591">
        <ele>1444</ele>
        <time>2021-04-30T22:21:21.000Z</time>
      </trkpt>
      <trkpt lat="4.807050973176956" lon="-75.68559589795768">
        <ele>1443.8</ele>
        <time>2021-04-30T22:21:27.000Z</time>
      </trkpt>
      <trkpt lat="4.807041920721531" lon="-75.68558190017939">
        <ele>1444</ele>
        <time>2021-04-30T22:21:30.000Z</time>
      </trkpt>
      <trkpt lat="4.807012332603335" lon="-75.6855539046228">
        <ele>1444.4</ele>
        <time>2021-04-30T22:21:38.000Z</time>
      </trkpt>
      <trkpt lat="4.807004453614354" lon="-75.6855462770909">
        <ele>1444.6</ele>
        <time>2021-04-30T22:21:40.000Z</time>
      </trkpt>
      <trkpt lat="4.8069763742387295" lon="-75.68550260737538">
        <ele>1445.2</ele>
        <time>2021-04-30T22:21:48.000Z</time>
      </trkpt>
      <trkpt lat="4.806927843019366" lon="-75.68544686771929">
        <ele>1446</ele>
        <time>2021-04-30T22:21:59.000Z</time>
      </trkpt>
      <trkpt lat="4.806924741715193" lon="-75.68544376641512">
        <ele>1446</ele>
        <time>2021-04-30T22:22:00.000Z</time>
      </trkpt>
      <trkpt lat="4.806868750602007" lon="-75.68539230152965">
        <ele>1446.8</ele>
        <time>2021-04-30T22:22:12.000Z</time>
      </trkpt>
      <trkpt lat="4.806827679276466" lon="-75.68533966317773">
        <ele>1447.2</ele>
        <time>2021-04-30T22:22:22.000Z</time>
      </trkpt>
      <trkpt lat="4.806788451969624" lon="-75.68529406562448">
        <ele>1448.4</ele>
        <time>2021-04-30T22:22:33.000Z</time>
      </trkpt>
      <trkpt lat="4.806763390079141" lon="-75.68522918969393">
        <ele>1449.4</ele>
        <time>2021-04-30T22:22:43.000Z</time>
      </trkpt>
      <trkpt lat="4.8067366518080235" lon="-75.68515056744218">
        <ele>1450.6</ele>
        <time>2021-04-30T22:22:55.000Z</time>
      </trkpt>
      <trkpt lat="4.806729359552264" lon="-75.68512508645654">
        <ele>1451</ele>
        <time>2021-04-30T22:22:59.000Z</time>
      </trkpt>
      <trkpt lat="4.806720390915871" lon="-75.6850755494088">
        <ele>1451.6</ele>
        <time>2021-04-30T22:23:06.000Z</time>
      </trkpt>
      <trkpt lat="4.806718714535236" lon="-75.68502048030496">
        <ele>1452</ele>
        <time>2021-04-30T22:23:14.000Z</time>
      </trkpt>
      <trkpt lat="4.80671351775527" lon="-75.6849822588265">
        <ele>1452.4</ele>
        <time>2021-04-30T22:23:21.000Z</time>
      </trkpt>
      <trkpt lat="4.806718630716205" lon="-75.68493029102683">
        <ele>1453</ele>
        <time>2021-04-30T22:23:30.000Z</time>
      </trkpt>
      <trkpt lat="4.806723659858108" lon="-75.6848942488432">
        <ele>1453.4</ele>
        <time>2021-04-30T22:23:37.000Z</time>
      </trkpt>
      <trkpt lat="4.806716535240412" lon="-75.68484018556774">
        <ele>1454</ele>
        <time>2021-04-30T22:23:46.000Z</time>
      </trkpt>
      <trkpt lat="4.806710835546255" lon="-75.68481638096273">
        <ele>1454.2</ele>
        <time>2021-04-30T22:23:50.000Z</time>
      </trkpt>
      <trkpt lat="4.806699184700847" lon="-75.68479944951832">
        <ele>1454.4</ele>
        <time>2021-04-30T22:23:53.000Z</time>
      </trkpt>
      <trkpt lat="4.8066936526447535" lon="-75.68475519306958">
        <ele>1454.4</ele>
        <time>2021-04-30T22:24:00.000Z</time>
      </trkpt>
      <trkpt lat="4.806686779484153" lon="-75.68471529521048">
        <ele>1454.2</ele>
        <time>2021-04-30T22:24:06.000Z</time>
      </trkpt>
      <trkpt lat="4.806678481400013" lon="-75.68468109704554">
        <ele>1453.8</ele>
        <time>2021-04-30T22:24:11.000Z</time>
      </trkpt>
      <trkpt lat="4.806668758392334" lon="-75.68461647257209">
        <ele>1453.2</ele>
        <time>2021-04-30T22:24:21.000Z</time>
      </trkpt>
      <trkpt lat="4.80665341950953" lon="-75.68452946841717">
        <ele>1453</ele>
        <time>2021-04-30T22:24:32.000Z</time>
      </trkpt>
      <trkpt lat="4.806647719815373" lon="-75.68446677178144">
        <ele>1452.6</ele>
        <time>2021-04-30T22:24:41.000Z</time>
      </trkpt>
      <trkpt lat="4.806647719815373" lon="-75.6844050809741">
        <ele>1452</ele>
        <time>2021-04-30T22:24:51.000Z</time>
      </trkpt>
      <trkpt lat="4.806642439216375" lon="-75.684381024912">
        <ele>1451.8</ele>
        <time>2021-04-30T22:24:54.000Z</time>
      </trkpt>
      <trkpt lat="4.806642858311534" lon="-75.68432335741818">
        <ele>1451.2</ele>
        <time>2021-04-30T22:25:00.000Z</time>
      </trkpt>
      <trkpt lat="4.806642271578312" lon="-75.68431086838245">
        <ele>1451.2</ele>
        <time>2021-04-30T22:25:02.000Z</time>
      </trkpt>
      <trkpt lat="4.806632297113538" lon="-75.68422101438046">
        <ele>1450.8</ele>
        <time>2021-04-30T22:25:15.000Z</time>
      </trkpt>
      <trkpt lat="4.806616874411702" lon="-75.68418195471168">
        <ele>1450.6</ele>
        <time>2021-04-30T22:25:22.000Z</time>
      </trkpt>
      <trkpt lat="4.806611342355609" lon="-75.68418011069298">
        <ele>1450.6</ele>
        <time>2021-04-30T22:25:23.000Z</time>
      </trkpt>
      <trkpt lat="4.8066191375255585" lon="-75.68413015455008">
        <ele>1450</ele>
        <time>2021-04-30T22:25:31.000Z</time>
      </trkpt>
      <trkpt lat="4.806602876633406" lon="-75.68407843820751">
        <ele>1449.6</ele>
        <time>2021-04-30T22:25:36.000Z</time>
      </trkpt>
      <trkpt lat="4.806594913825393" lon="-75.68406376987696">
        <ele>1449.4</ele>
        <time>2021-04-30T22:25:39.000Z</time>
      </trkpt>
      <trkpt lat="4.806584352627397" lon="-75.68402856588364">
        <ele>1449.2</ele>
        <time>2021-04-30T22:25:45.000Z</time>
      </trkpt>
      <trkpt lat="4.806562140583992" lon="-75.68401942960918">
        <ele>1449.2</ele>
        <time>2021-04-30T22:25:51.000Z</time>
      </trkpt>
      <trkpt lat="4.8065428622066975" lon="-75.6839888356626">
        <ele>1449</ele>
        <time>2021-04-30T22:25:56.000Z</time>
      </trkpt>
      <trkpt lat="4.806540682911873" lon="-75.68397860974073">
        <ele>1449</ele>
        <time>2021-04-30T22:25:57.000Z</time>
      </trkpt>
      <trkpt lat="4.806543113663793" lon="-75.6839196011424">
        <ele>1448.6</ele>
        <time>2021-04-30T22:26:03.000Z</time>
      </trkpt>
      <trkpt lat="4.806539257988334" lon="-75.68385363556445">
        <ele>1448.6</ele>
        <time>2021-04-30T22:26:11.000Z</time>
      </trkpt>
      <trkpt lat="4.806528193876147" lon="-75.68380124866962">
        <ele>1448.6</ele>
        <time>2021-04-30T22:26:19.000Z</time>
      </trkpt>
      <trkpt lat="4.806535821408033" lon="-75.68376453593373">
        <ele>1448.6</ele>
        <time>2021-04-30T22:26:26.000Z</time>
      </trkpt>
      <trkpt lat="4.806535234674811" lon="-75.68371315486729">
        <ele>1448.6</ele>
        <time>2021-04-30T22:26:32.000Z</time>
      </trkpt>
      <trkpt lat="4.806532803922892" lon="-75.6837057787925">
        <ele>1448.6</ele>
        <time>2021-04-30T22:26:33.000Z</time>
      </trkpt>
      <trkpt lat="4.806522578001022" lon="-75.68367107771337">
        <ele>1448.6</ele>
        <time>2021-04-30T22:26:40.000Z</time>
      </trkpt>
      <trkpt lat="4.806520314887166" lon="-75.68364249542356">
        <ele>1449</ele>
        <time>2021-04-30T22:26:47.000Z</time>
      </trkpt>
      <trkpt lat="4.80651612393558" lon="-75.68358549848199">
        <ele>1449.6</ele>
        <time>2021-04-30T22:26:57.000Z</time>
      </trkpt>
      <trkpt lat="4.806521907448769" lon="-75.68353143520653">
        <ele>1450</ele>
        <time>2021-04-30T22:27:06.000Z</time>
      </trkpt>
      <trkpt lat="4.806531881913543" lon="-75.68352481350303">
        <ele>1450</ele>
        <time>2021-04-30T22:27:13.000Z</time>
      </trkpt>
      <trkpt lat="4.806527020409703" lon="-75.68352405913174">
        <ele>1450</ele>
        <time>2021-04-30T22:27:21.000Z</time>
      </trkpt>
      <trkpt lat="4.8065263498574495" lon="-75.68350587040186">
        <ele>1450.2</ele>
        <time>2021-04-30T22:27:42.000Z</time>
      </trkpt>
      <trkpt lat="4.80652098543942" lon="-75.68349053151906">
        <ele>1450.2</ele>
        <time>2021-04-30T22:27:52.000Z</time>
      </trkpt>
      <trkpt lat="4.806520314887166" lon="-75.68348717875779">
        <ele>1450.2</ele>
        <time>2021-04-30T22:27:59.000Z</time>
      </trkpt>
      <trkpt lat="4.806520231068134" lon="-75.6834866758436">
        <ele>1450.2</ele>
        <time>2021-04-30T22:28:06.000Z</time>
      </trkpt>
      <trkpt lat="4.806523248553276" lon="-75.6834951415658">
        <ele>1450.2</ele>
        <time>2021-04-30T22:28:35.000Z</time>
      </trkpt>
      <trkpt lat="4.806523667648435" lon="-75.6834951415658">
        <ele>1450.2</ele>
        <time>2021-04-30T22:28:39.000Z</time>
      </trkpt>
      <trkpt lat="4.806524757295847" lon="-75.68342297337949">
        <ele>1450.8</ele>
        <time>2021-04-30T22:29:02.000Z</time>
      </trkpt>
      <trkpt lat="4.806523080915213" lon="-75.6833727657795">
        <ele>1451.2</ele>
        <time>2021-04-30T22:29:10.000Z</time>
      </trkpt>
      <trkpt lat="4.806521823629737" lon="-75.68333890289068">
        <ele>1451.6</ele>
        <time>2021-04-30T22:29:16.000Z</time>
      </trkpt>
      <trkpt lat="4.806504724547267" lon="-75.68323312327266">
        <ele>1452.8</ele>
        <time>2021-04-30T22:29:26.000Z</time>
      </trkpt>
      <trkpt lat="4.80648972094059" lon="-75.68314637057483">
        <ele>1453.6</ele>
        <time>2021-04-30T22:29:34.000Z</time>
      </trkpt>
      <trkpt lat="4.80650195851922" lon="-75.68307973444462">
        <ele>1454.6</ele>
        <time>2021-04-30T22:29:43.000Z</time>
      </trkpt>
      <trkpt lat="4.806495252996683" lon="-75.68306297063828">
        <ele>1454.8</ele>
        <time>2021-04-30T22:29:45.000Z</time>
      </trkpt>
      <trkpt lat="4.806466503068805" lon="-75.68301041610539">
        <ele>1455.6</ele>
        <time>2021-04-30T22:29:52.000Z</time>
      </trkpt>
      <trkpt lat="4.806442949920893" lon="-75.68295911885798">
        <ele>1456.2</ele>
        <time>2021-04-30T22:30:00.000Z</time>
      </trkpt>
      <trkpt lat="4.806437753140926" lon="-75.68292802199721">
        <ele>1456.6</ele>
        <time>2021-04-30T22:30:05.000Z</time>
      </trkpt>
      <trkpt lat="4.80642719194293" lon="-75.68290161900222">
        <ele>1457</ele>
        <time>2021-04-30T22:30:09.000Z</time>
      </trkpt>
      <trkpt lat="4.806415792554617" lon="-75.68284017965198">
        <ele>1457.4</ele>
        <time>2021-04-30T22:30:18.000Z</time>
      </trkpt>
      <trkpt lat="4.806407913565636" lon="-75.68274605087936">
        <ele>1458.8</ele>
        <time>2021-04-30T22:30:31.000Z</time>
      </trkpt>
      <trkpt lat="4.806406237185001" lon="-75.68267011083663">
        <ele>1460.2</ele>
        <time>2021-04-30T22:30:41.000Z</time>
      </trkpt>
      <trkpt lat="4.80641252361238" lon="-75.68263725377619">
        <ele>1460.8</ele>
        <time>2021-04-30T22:30:47.000Z</time>
      </trkpt>
      <trkpt lat="4.806414702907205" lon="-75.68262526765466">
        <ele>1461.2</ele>
        <time>2021-04-30T22:30:49.000Z</time>
      </trkpt>
      <trkpt lat="4.806420486420393" lon="-75.68254111334682">
        <ele>1462</ele>
        <time>2021-04-30T22:31:02.000Z</time>
      </trkpt>
      <trkpt lat="4.806406237185001" lon="-75.68247715942562">
        <ele>1461</ele>
        <time>2021-04-30T22:31:12.000Z</time>
      </trkpt>
      <trkpt lat="4.806400369852781" lon="-75.68241194821894">
        <ele>1460.4</ele>
        <time>2021-04-30T22:31:21.000Z</time>
      </trkpt>
      <trkpt lat="4.80640321969986" lon="-75.68236039951444">
        <ele>1460</ele>
        <time>2021-04-30T22:31:29.000Z</time>
      </trkpt>
      <trkpt lat="4.806410009041429" lon="-75.68230667151511">
        <ele>1460.6</ele>
        <time>2021-04-30T22:31:39.000Z</time>
      </trkpt>
      <trkpt lat="4.806400202214718" lon="-75.6822411250323">
        <ele>1461</ele>
        <time>2021-04-30T22:31:50.000Z</time>
      </trkpt>
      <trkpt lat="4.8064132779836655" lon="-75.68217189051211">
        <ele>1461.2</ele>
        <time>2021-04-30T22:31:58.000Z</time>
      </trkpt>
      <trkpt lat="4.806432137265801" lon="-75.68211841396987">
        <ele>1461.4</ele>
        <time>2021-04-30T22:32:04.000Z</time>
      </trkpt>
      <trkpt lat="4.806434232741594" lon="-75.68209955468774">
        <ele>1461.4</ele>
        <time>2021-04-30T22:32:06.000Z</time>
      </trkpt>
      <trkpt lat="4.806447057053447" lon="-75.68205026909709">
        <ele>1461.6</ele>
        <time>2021-04-30T22:32:12.000Z</time>
      </trkpt>
      <trkpt lat="4.8064453806728125" lon="-75.68204180337489">
        <ele>1461.6</ele>
        <time>2021-04-30T22:32:13.000Z</time>
      </trkpt>
      <trkpt lat="4.806448062881827" lon="-75.68203149363399">
        <ele>1461.6</ele>
        <time>2021-04-30T22:32:14.000Z</time>
      </trkpt>
      <trkpt lat="4.806470945477486" lon="-75.68199746310711">
        <ele>1462</ele>
        <time>2021-04-30T22:32:19.000Z</time>
      </trkpt>
      <trkpt lat="4.806493744254112" lon="-75.68195370957255">
        <ele>1462.2</ele>
        <time>2021-04-30T22:32:26.000Z</time>
      </trkpt>
      <trkpt lat="4.8065251763910055" lon="-75.68194633349776">
        <ele>1462.4</ele>
        <time>2021-04-30T22:32:33.000Z</time>
      </trkpt>
      <trkpt lat="4.806585526093841" lon="-75.68190568126738">
        <ele>1462.6</ele>
        <time>2021-04-30T22:32:43.000Z</time>
      </trkpt>
      <trkpt lat="4.8066317941993475" lon="-75.68186955526471">
        <ele>1462.8</ele>
        <time>2021-04-30T22:32:53.000Z</time>
      </trkpt>
      <trkpt lat="4.80667881667614" lon="-75.68183301016688">
        <ele>1463</ele>
        <time>2021-04-30T22:33:02.000Z</time>
      </trkpt>
      <trkpt lat="4.806725336238742" lon="-75.68179671652615">
        <ele>1463.2</ele>
        <time>2021-04-30T22:33:10.000Z</time>
      </trkpt>
      <trkpt lat="4.8067534156143665" lon="-75.68177098408341">
        <ele>1463.4</ele>
        <time>2021-04-30T22:33:15.000Z</time>
      </trkpt>
      <trkpt lat="4.806772777810693" lon="-75.68176008760929">
        <ele>1463.4</ele>
        <time>2021-04-30T22:33:19.000Z</time>
      </trkpt>
      <trkpt lat="4.80678191408515" lon="-75.68176017142832">
        <ele>1463.4</ele>
        <time>2021-04-30T22:33:23.000Z</time>
      </trkpt>
      <trkpt lat="4.8067946545779705" lon="-75.68174944259226">
        <ele>1463.4</ele>
        <time>2021-04-30T22:33:26.000Z</time>
      </trkpt>
      <trkpt lat="4.806810580193996" lon="-75.68173829466105">
        <ele>1463.6</ele>
        <time>2021-04-30T22:33:30.000Z</time>
      </trkpt>
      <trkpt lat="4.806826505810022" lon="-75.68171868100762">
        <ele>1463.8</ele>
        <time>2021-04-30T22:33:34.000Z</time>
      </trkpt>
      <trkpt lat="4.806832373142242" lon="-75.68171197548509">
        <ele>1463.8</ele>
        <time>2021-04-30T22:33:35.000Z</time>
      </trkpt>
      <trkpt lat="4.806917198002338" lon="-75.68163653835654">
        <ele>1464</ele>
        <time>2021-04-30T22:33:48.000Z</time>
      </trkpt>
      <trkpt lat="4.806960951536894" lon="-75.68158867768943">
        <ele>1464.2</ele>
        <time>2021-04-30T22:33:56.000Z</time>
      </trkpt>
      <trkpt lat="4.807003112509847" lon="-75.68154810927808">
        <ele>1464.4</ele>
        <time>2021-04-30T22:34:04.000Z</time>
      </trkpt>
      <trkpt lat="4.807052398100495" lon="-75.68150494247675">
        <ele>1464.6</ele>
        <time>2021-04-30T22:34:13.000Z</time>
      </trkpt>
      <trkpt lat="4.807095900177956" lon="-75.6814641226083">
        <ele>1465</ele>
        <time>2021-04-30T22:34:22.000Z</time>
      </trkpt>
      <trkpt lat="4.807123644277453" lon="-75.68144241347909">
        <ele>1465.4</ele>
        <time>2021-04-30T22:34:32.000Z</time>
      </trkpt>
      <trkpt lat="4.807119369506836" lon="-75.68144149146974">
        <ele>1465.4</ele>
        <time>2021-04-30T22:34:38.000Z</time>
      </trkpt>
      <trkpt lat="4.80711811222136" lon="-75.68144082091749">
        <ele>1465.4</ele>
        <time>2021-04-30T22:34:46.000Z</time>
      </trkpt>
      <trkpt lat="4.807113921269774" lon="-75.68144149146974">
        <ele>1465.2</ele>
        <time>2021-04-30T22:35:04.000Z</time>
      </trkpt>
      <trkpt lat="4.807108053937554" lon="-75.68144056946039">
        <ele>1465.2</ele>
        <time>2021-04-30T22:35:34.000Z</time>
      </trkpt>
      <trkpt lat="4.807108053937554" lon="-75.68143411539495">
        <ele>1465.4</ele>
        <time>2021-04-30T22:35:40.000Z</time>
      </trkpt>
      <trkpt lat="4.80718307197094" lon="-75.68135800771415">
        <ele>1465.8</ele>
        <time>2021-04-30T22:36:11.000Z</time>
      </trkpt>
      <trkpt lat="4.807262532413006" lon="-75.68131115287542">
        <ele>1466.2</ele>
        <time>2021-04-30T22:36:29.000Z</time>
      </trkpt>
      <trkpt lat="4.807351045310497" lon="-75.68123328499496">
        <ele>1466.8</ele>
        <time>2021-04-30T22:36:53.000Z</time>
      </trkpt>
      <trkpt lat="4.80737074278295" lon="-75.68121962249279">
        <ele>1467</ele>
        <time>2021-04-30T22:36:57.000Z</time>
      </trkpt>
      <trkpt lat="4.807489765807986" lon="-75.68114795722067">
        <ele>1467.6</ele>
        <time>2021-04-30T22:37:25.000Z</time>
      </trkpt>
      <trkpt lat="4.807537375018001" lon="-75.68112172186375">
        <ele>1467.6</ele>
        <time>2021-04-30T22:37:28.000Z</time>
      </trkpt>
      <trkpt lat="4.807614320889115" lon="-75.68104318343103">
        <ele>1467.6</ele>
        <time>2021-04-30T22:37:35.000Z</time>
      </trkpt>
      <trkpt lat="4.807626223191619" lon="-75.68103295750916">
        <ele>1467.6</ele>
        <time>2021-04-30T22:37:40.000Z</time>
      </trkpt>
      <trkpt lat="4.807622618973255" lon="-75.68103237077594">
        <ele>1467.6</ele>
        <time>2021-04-30T22:37:47.000Z</time>
      </trkpt>
      <trkpt lat="4.807614991441369" lon="-75.6810391601175">
        <ele>1467.6</ele>
        <time>2021-04-30T22:37:53.000Z</time>
      </trkpt>
      <trkpt lat="4.8076180927455425" lon="-75.68103362806141">
        <ele>1467.6</ele>
        <time>2021-04-30T22:38:00.000Z</time>
      </trkpt>
      <trkpt lat="4.807615578174591" lon="-75.68101678043604">
        <ele>1467.4</ele>
        <time>2021-04-30T22:38:06.000Z</time>
      </trkpt>
      <trkpt lat="4.807636281475425" lon="-75.68100311793387">
        <ele>1467.4</ele>
        <time>2021-04-30T22:38:12.000Z</time>
      </trkpt>
      <trkpt lat="4.80764583684504" lon="-75.68101267330348">
        <ele>1467.4</ele>
        <time>2021-04-30T22:38:31.000Z</time>
      </trkpt>
      <trkpt lat="4.807653296738863" lon="-75.68101334385574">
        <ele>1467.4</ele>
        <time>2021-04-30T22:38:41.000Z</time>
      </trkpt>
      <trkpt lat="4.807693362236023" lon="-75.68099825643003">
        <ele>1467.4</ele>
        <time>2021-04-30T22:38:47.000Z</time>
      </trkpt>
      <trkpt lat="4.807734182104468" lon="-75.68100068718195">
        <ele>1467.4</ele>
        <time>2021-04-30T22:38:53.000Z</time>
      </trkpt>
      <trkpt lat="4.807735439389944" lon="-75.68099901080132">
        <ele>1467.4</ele>
        <time>2021-04-30T22:38:54.000Z</time>
      </trkpt>
      <trkpt lat="4.807754550129175" lon="-75.68098928779364">
        <ele>1467.4</ele>
        <time>2021-04-30T22:39:02.000Z</time>
      </trkpt>
      <trkpt lat="4.807767625898123" lon="-75.68099398165941">
        <ele>1467.2</ele>
        <time>2021-04-30T22:39:08.000Z</time>
      </trkpt>
      <trkpt lat="4.807767625898123" lon="-75.68099398165941">
        <ele>1467.2</ele>
        <time>2021-04-30T22:39:10.000Z</time>
      </trkpt>
      <trkpt lat="4.807767625898123" lon="-75.68099398165941">
        <ele>1467.2</ele>
        <time>2021-04-30T22:39:14.000Z</time>
      </trkpt>
      <trkpt lat="4.807799477130175" lon="-75.68102055229247">
        <ele>1466.4</ele>
        <time>2021-04-30T22:39:29.000Z</time>
      </trkpt>
      <trkpt lat="4.80780316516757" lon="-75.68102650344372">
        <ele>1466.4</ele>
        <time>2021-04-30T22:39:31.000Z</time>
      </trkpt>
      <trkpt lat="4.8078071884810925" lon="-75.6810293532908">
        <ele>1466.2</ele>
        <time>2021-04-30T22:39:33.000Z</time>
      </trkpt>
      <trkpt lat="4.807818755507469" lon="-75.68105449900031">
        <ele>1465.8</ele>
        <time>2021-04-30T22:39:39.000Z</time>
      </trkpt>
      <trkpt lat="4.80789402499795" lon="-75.68107461556792">
        <ele>1464.8</ele>
        <time>2021-04-30T22:39:52.000Z</time>
      </trkpt>
      <trkpt lat="4.807936521247029" lon="-75.68109774962068">
        <ele>1464.2</ele>
        <time>2021-04-30T22:39:55.000Z</time>
      </trkpt>
      <trkpt lat="4.808010533452034" lon="-75.68114443682134">
        <ele>1463.2</ele>
        <time>2021-04-30T22:40:00.000Z</time>
      </trkpt>
      <trkpt lat="4.808057975023985" lon="-75.68115457892418">
        <ele>1462.6</ele>
        <time>2021-04-30T22:40:06.000Z</time>
      </trkpt>
      <trkpt lat="4.808082031086087" lon="-75.68116262555122">
        <ele>1462.4</ele>
        <time>2021-04-30T22:40:10.000Z</time>
      </trkpt>
      <trkpt lat="4.80808756314218" lon="-75.68116430193186">
        <ele>1462.4</ele>
        <time>2021-04-30T22:40:11.000Z</time>
      </trkpt>
      <trkpt lat="4.808106841519475" lon="-75.68117125891149">
        <ele>1462.2</ele>
        <time>2021-04-30T22:40:15.000Z</time>
      </trkpt>
      <trkpt lat="4.808142716065049" lon="-75.68117645569146">
        <ele>1462</ele>
        <time>2021-04-30T22:40:21.000Z</time>
      </trkpt>
      <trkpt lat="4.808157971128821" lon="-75.68117536604404">
        <ele>1462</ele>
        <time>2021-04-30T22:40:23.000Z</time>
      </trkpt>
      <trkpt lat="4.808184374123812" lon="-75.6811897829175">
        <ele>1462.2</ele>
        <time>2021-04-30T22:40:28.000Z</time>
      </trkpt>
      <trkpt lat="4.808206502348185" lon="-75.68119330331683">
        <ele>1462.2</ele>
        <time>2021-04-30T22:40:31.000Z</time>
      </trkpt>
      <trkpt lat="4.808234246447682" lon="-75.68120026029646">
        <ele>1462.4</ele>
        <time>2021-04-30T22:40:39.000Z</time>
      </trkpt>
      <trkpt lat="4.808264756575227" lon="-75.68121266551316">
        <ele>1462.4</ele>
        <time>2021-04-30T22:40:46.000Z</time>
      </trkpt>
      <trkpt lat="4.8082763236016035" lon="-75.68122012540698">
        <ele>1462.4</ele>
        <time>2021-04-30T22:40:49.000Z</time>
      </trkpt>
      <trkpt lat="4.808294428512454" lon="-75.68123077042401">
        <ele>1462.6</ele>
        <time>2021-04-30T22:40:52.000Z</time>
      </trkpt>
      <trkpt lat="4.808327537029982" lon="-75.68124585784972">
        <ele>1462.6</ele>
        <time>2021-04-30T22:40:58.000Z</time>
      </trkpt>
      <trkpt lat="4.808390066027641" lon="-75.68128013983369">
        <ele>1462.6</ele>
        <time>2021-04-30T22:41:07.000Z</time>
      </trkpt>
      <trkpt lat="4.808437591418624" lon="-75.68131509236991">
        <ele>1462.4</ele>
        <time>2021-04-30T22:41:16.000Z</time>
      </trkpt>
      <trkpt lat="4.808500874787569" lon="-75.68135423585773">
        <ele>1462.4</ele>
        <time>2021-04-30T22:41:26.000Z</time>
      </trkpt>
      <trkpt lat="4.808533815667033" lon="-75.68139421753585">
        <ele>1462.4</ele>
        <time>2021-04-30T22:41:33.000Z</time>
      </trkpt>
      <trkpt lat="4.808588465675712" lon="-75.68142045289278">
        <ele>1462.6</ele>
        <time>2021-04-30T22:41:40.000Z</time>
      </trkpt>
      <trkpt lat="4.808596847578883" lon="-75.68142388947308">
        <ele>1462.6</ele>
        <time>2021-04-30T22:41:41.000Z</time>
      </trkpt>
      <trkpt lat="4.808642948046327" lon="-75.68145766854286">
        <ele>1462.6</ele>
        <time>2021-04-30T22:41:49.000Z</time>
      </trkpt>
      <trkpt lat="4.808677565306425" lon="-75.68149446509778">
        <ele>1462.4</ele>
        <time>2021-04-30T22:41:56.000Z</time>
      </trkpt>
      <trkpt lat="4.808727018535137" lon="-75.68154584616423">
        <ele>1461.8</ele>
        <time>2021-04-30T22:42:06.000Z</time>
      </trkpt>
      <trkpt lat="4.808755265548825" lon="-75.681616589427">
        <ele>1461</ele>
        <time>2021-04-30T22:42:14.000Z</time>
      </trkpt>
      <trkpt lat="4.808796588331461" lon="-75.68164131604135">
        <ele>1461</ele>
        <time>2021-04-30T22:42:21.000Z</time>
      </trkpt>
      <trkpt lat="4.808837324380875" lon="-75.68169370293617">
        <ele>1460.6</ele>
        <time>2021-04-30T22:42:31.000Z</time>
      </trkpt>
      <trkpt lat="4.808841431513429" lon="-75.68169596605003">
        <ele>1460.6</ele>
        <time>2021-04-30T22:42:32.000Z</time>
      </trkpt>
      <trkpt lat="4.808867331594229" lon="-75.68172379396856">
        <ele>1460.6</ele>
        <time>2021-04-30T22:42:38.000Z</time>
      </trkpt>
      <trkpt lat="4.8088956624269485" lon="-75.68177467212081">
        <ele>1460</ele>
        <time>2021-04-30T22:42:47.000Z</time>
      </trkpt>
      <trkpt lat="4.808926256373525" lon="-75.68182932212949">
        <ele>1460</ele>
        <time>2021-04-30T22:42:56.000Z</time>
      </trkpt>
      <trkpt lat="4.80895534157753" lon="-75.68189051002264">
        <ele>1460.2</ele>
        <time>2021-04-30T22:43:06.000Z</time>
      </trkpt>
      <trkpt lat="4.808981576934457" lon="-75.68195354193449">
        <ele>1460</ele>
        <time>2021-04-30T22:43:16.000Z</time>
      </trkpt>
      <trkpt lat="4.8089872766286135" lon="-75.68197935819626">
        <ele>1460</ele>
        <time>2021-04-30T22:43:20.000Z</time>
      </trkpt>
      <trkpt lat="4.808998592197895" lon="-75.68200567737222">
        <ele>1459.8</ele>
        <time>2021-04-30T22:43:25.000Z</time>
      </trkpt>
      <trkpt lat="4.809002196416259" lon="-75.68202990107238">
        <ele>1459.8</ele>
        <time>2021-04-30T22:43:29.000Z</time>
      </trkpt>
      <trkpt lat="4.809011332690716" lon="-75.68206778727472">
        <ele>1459.6</ele>
        <time>2021-04-30T22:43:35.000Z</time>
      </trkpt>
      <trkpt lat="4.8090258333832026" lon="-75.68211011588573">
        <ele>1459.4</ele>
        <time>2021-04-30T22:43:43.000Z</time>
      </trkpt>
      <trkpt lat="4.809034466743469" lon="-75.68218681029975">
        <ele>1459</ele>
        <time>2021-04-30T22:43:55.000Z</time>
      </trkpt>
      <trkpt lat="4.809033293277025" lon="-75.68220416083932">
        <ele>1459</ele>
        <time>2021-04-30T22:43:59.000Z</time>
      </trkpt>
      <trkpt lat="4.809028180316091" lon="-75.682219164446">
        <ele>1459</ele>
        <time>2021-04-30T22:44:02.000Z</time>
      </trkpt>
      <trkpt lat="4.8090399987995625" lon="-75.68226526491344">
        <ele>1459</ele>
        <time>2021-04-30T22:44:12.000Z</time>
      </trkpt>
      <trkpt lat="4.809040669351816" lon="-75.68230625241995">
        <ele>1458.2</ele>
        <time>2021-04-30T22:44:21.000Z</time>
      </trkpt>
      <trkpt lat="4.809050392359495" lon="-75.68234606646001">
        <ele>1457.4</ele>
        <time>2021-04-30T22:44:31.000Z</time>
      </trkpt>
      <trkpt lat="4.809061540290713" lon="-75.68238948471844">
        <ele>1456.4</ele>
        <time>2021-04-30T22:44:40.000Z</time>
      </trkpt>
      <trkpt lat="4.809061037376523" lon="-75.68240105174482">
        <ele>1456.2</ele>
        <time>2021-04-30T22:44:42.000Z</time>
      </trkpt>
      <trkpt lat="4.809054583311081" lon="-75.6824609823525">
        <ele>1455</ele>
        <time>2021-04-30T22:44:52.000Z</time>
      </trkpt>
      <trkpt lat="4.80906480923295" lon="-75.68250649608672">
        <ele>1454.4</ele>
        <time>2021-04-30T22:45:00.000Z</time>
      </trkpt>
      <trkpt lat="4.809076376259327" lon="-75.68253113888204">
        <ele>1454.4</ele>
        <time>2021-04-30T22:45:08.000Z</time>
      </trkpt>
      <trkpt lat="4.809080651029944" lon="-75.68253750912845">
        <ele>1454.2</ele>
        <time>2021-04-30T22:45:12.000Z</time>
      </trkpt>
      <trkpt lat="4.809078807011247" lon="-75.68253926932812">
        <ele>1454.2</ele>
        <time>2021-04-30T22:45:15.000Z</time>
      </trkpt>
      <trkpt lat="4.809081573039293" lon="-75.68254170008004">
        <ele>1454.2</ele>
        <time>2021-04-30T22:45:30.000Z</time>
      </trkpt>
      <trkpt lat="4.809083500877023" lon="-75.68255762569606">
        <ele>1454</ele>
        <time>2021-04-30T22:45:35.000Z</time>
      </trkpt>
      <trkpt lat="4.809084087610245" lon="-75.68257422186434">
        <ele>1453.8</ele>
        <time>2021-04-30T22:45:39.000Z</time>
      </trkpt>
      <trkpt lat="4.809083919972181" lon="-75.68260774947703">
        <ele>1453.2</ele>
        <time>2021-04-30T22:45:48.000Z</time>
      </trkpt>
      <trkpt lat="4.809100180864334" lon="-75.68288938142359">
        <ele>1449.2</ele>
        <time>2021-04-30T22:46:33.000Z</time>
      </trkpt>
      <trkpt lat="4.80912147089839" lon="-75.68299826234579">
        <ele>1448.4</ele>
        <time>2021-04-30T22:46:43.000Z</time>
      </trkpt>
      <trkpt lat="4.80911954306066" lon="-75.683075459674">
        <ele>1447.8</ele>
        <time>2021-04-30T22:46:54.000Z</time>
      </trkpt>
      <trkpt lat="4.809136306867003" lon="-75.68314477801323">
        <ele>1448</ele>
        <time>2021-04-30T22:47:04.000Z</time>
      </trkpt>
      <trkpt lat="4.809150975197554" lon="-75.68318232893944">
        <ele>1448.4</ele>
        <time>2021-04-30T22:47:11.000Z</time>
      </trkpt>
      <trkpt lat="4.809154327958822" lon="-75.68323421292007">
        <ele>1448.6</ele>
        <time>2021-04-30T22:47:18.000Z</time>
      </trkpt>
      <trkpt lat="4.809149047359824" lon="-75.68325944244862">
        <ele>1448.6</ele>
        <time>2021-04-30T22:47:22.000Z</time>
      </trkpt>
      <trkpt lat="4.809141419827938" lon="-75.68328659981489">
        <ele>1448.4</ele>
        <time>2021-04-30T22:47:27.000Z</time>
      </trkpt>
      <trkpt lat="4.809137396514416" lon="-75.68335524760187">
        <ele>1448.4</ele>
        <time>2021-04-30T22:47:36.000Z</time>
      </trkpt>
      <trkpt lat="4.809137061238289" lon="-75.68341895006597">
        <ele>1448.4</ele>
        <time>2021-04-30T22:47:45.000Z</time>
      </trkpt>
      <trkpt lat="4.809139911085367" lon="-75.68347192369401">
        <ele>1448.4</ele>
        <time>2021-04-30T22:47:52.000Z</time>
      </trkpt>
      <trkpt lat="4.8091524839401245" lon="-75.68351819179952">
        <ele>1448.6</ele>
        <time>2021-04-30T22:48:00.000Z</time>
      </trkpt>
      <trkpt lat="4.809163715690374" lon="-75.68356831558049">
        <ele>1449</ele>
        <time>2021-04-30T22:48:07.000Z</time>
      </trkpt>
      <trkpt lat="4.809171007946134" lon="-75.68358507938683">
        <ele>1449.2</ele>
        <time>2021-04-30T22:48:09.000Z</time>
      </trkpt>
      <trkpt lat="4.809187352657318" lon="-75.68360050208867">
        <ele>1449.6</ele>
        <time>2021-04-30T22:48:11.000Z</time>
      </trkpt>
      <trkpt lat="4.809203278273344" lon="-75.683633107692">
        <ele>1450</ele>
        <time>2021-04-30T22:48:16.000Z</time>
      </trkpt>
      <trkpt lat="4.809205289930105" lon="-75.68368373438716">
        <ele>1450</ele>
        <time>2021-04-30T22:48:24.000Z</time>
      </trkpt>
      <trkpt lat="4.80921383947134" lon="-75.68372254259884">
        <ele>1449.6</ele>
        <time>2021-04-30T22:48:30.000Z</time>
      </trkpt>
      <trkpt lat="4.809217946603894" lon="-75.68374508991838">
        <ele>1449.4</ele>
        <time>2021-04-30T22:48:33.000Z</time>
      </trkpt>
      <trkpt lat="4.809231776744127" lon="-75.68380267359316">
        <ele>1449.2</ele>
        <time>2021-04-30T22:48:42.000Z</time>
      </trkpt>
      <trkpt lat="4.809225993230939" lon="-75.68381315097213">
        <ele>1448.8</ele>
        <time>2021-04-30T22:48:44.000Z</time>
      </trkpt>
      <trkpt lat="4.809223646298051" lon="-75.68386545404792">
        <ele>1448.2</ele>
        <time>2021-04-30T22:48:52.000Z</time>
      </trkpt>
      <trkpt lat="4.8092269990593195" lon="-75.68386813625693">
        <ele>1448.4</ele>
        <time>2021-04-30T22:48:53.000Z</time>
      </trkpt>
      <trkpt lat="4.809237979352474" lon="-75.68387752398849">
        <ele>1448.4</ele>
        <time>2021-04-30T22:48:56.000Z</time>
      </trkpt>
      <trkpt lat="4.80923923663795" lon="-75.68389881402254">
        <ele>1448.2</ele>
        <time>2021-04-30T22:48:59.000Z</time>
      </trkpt>
      <trkpt lat="4.8092402424663305" lon="-75.68390468135476">
        <ele>1448.2</ele>
        <time>2021-04-30T22:49:00.000Z</time>
      </trkpt>
      <trkpt lat="4.809253066778183" lon="-75.68392689339817">
        <ele>1448.2</ele>
        <time>2021-04-30T22:49:05.000Z</time>
      </trkpt>
      <trkpt lat="4.809247953817248" lon="-75.68394667468965">
        <ele>1448</ele>
        <time>2021-04-30T22:49:08.000Z</time>
      </trkpt>
      <trkpt lat="4.809245942160487" lon="-75.6839824654162">
        <ele>1447.8</ele>
        <time>2021-04-30T22:49:15.000Z</time>
      </trkpt>
      <trkpt lat="4.809238146990538" lon="-75.68402630276978">
        <ele>1447.4</ele>
        <time>2021-04-30T22:49:22.000Z</time>
      </trkpt>
      <trkpt lat="4.809233201667666" lon="-75.68403066135943">
        <ele>1447.4</ele>
        <time>2021-04-30T22:49:23.000Z</time>
      </trkpt>
      <trkpt lat="4.809239488095045" lon="-75.68404390476644">
        <ele>1447.4</ele>
        <time>2021-04-30T22:49:26.000Z</time>
      </trkpt>
      <trkpt lat="4.8092367220669985" lon="-75.68406058475375">
        <ele>1447.4</ele>
        <time>2021-04-30T22:49:29.000Z</time>
      </trkpt>
      <trkpt lat="4.809235213324428" lon="-75.684071816504">
        <ele>1447.2</ele>
        <time>2021-04-30T22:49:31.000Z</time>
      </trkpt>
      <trkpt lat="4.809231609106064" lon="-75.68410601466894">
        <ele>1447.2</ele>
        <time>2021-04-30T22:49:38.000Z</time>
      </trkpt>
      <trkpt lat="4.809231776744127" lon="-75.68410970270634">
        <ele>1447</ele>
        <time>2021-04-30T22:49:39.000Z</time>
      </trkpt>
      <trkpt lat="4.809240074828267" lon="-75.6841394584626">
        <ele>1447.2</ele>
        <time>2021-04-30T22:49:47.000Z</time>
      </trkpt>
      <trkpt lat="4.809241583570838" lon="-75.68414624780416">
        <ele>1447</ele>
        <time>2021-04-30T22:49:49.000Z</time>
      </trkpt>
      <trkpt lat="4.809243008494377" lon="-75.68417835049331">
        <ele>1447</ele>
        <time>2021-04-30T22:49:55.000Z</time>
      </trkpt>
      <trkpt lat="4.80925147421658" lon="-75.68421313539147">
        <ele>1447</ele>
        <time>2021-04-30T22:50:03.000Z</time>
      </trkpt>
      <trkpt lat="4.809255162253976" lon="-75.68423040211201">
        <ele>1446.8</ele>
        <time>2021-04-30T22:50:08.000Z</time>
      </trkpt>
      <trkpt lat="4.809257090091705" lon="-75.68424951285124">
        <ele>1446.6</ele>
        <time>2021-04-30T22:50:14.000Z</time>
      </trkpt>
      <trkpt lat="4.809254575520754" lon="-75.68426258862019">
        <ele>1446.4</ele>
        <time>2021-04-30T22:50:17.000Z</time>
      </trkpt>
      <trkpt lat="4.809260945767164" lon="-75.68427918478847">
        <ele>1446.2</ele>
        <time>2021-04-30T22:50:21.000Z</time>
      </trkpt>
      <trkpt lat="4.809261364862323" lon="-75.68428656086326">
        <ele>1446</ele>
        <time>2021-04-30T22:50:23.000Z</time>
      </trkpt>
      <trkpt lat="4.809256587177515" lon="-75.68430164828897">
        <ele>1445.8</ele>
        <time>2021-04-30T22:50:29.000Z</time>
      </trkpt>
      <trkpt lat="4.809274859726429" lon="-75.68432117812335">
        <ele>1445.6</ele>
        <time>2021-04-30T22:50:37.000Z</time>
      </trkpt>
      <trkpt lat="4.809287432581186" lon="-75.68433995358646">
        <ele>1445.2</ele>
        <time>2021-04-30T22:50:42.000Z</time>
      </trkpt>
      <trkpt lat="4.809289360418916" lon="-75.6843588128686">
        <ele>1445</ele>
        <time>2021-04-30T22:50:53.000Z</time>
      </trkpt>
      <trkpt lat="4.809309644624591" lon="-75.6843622494489">
        <ele>1445</ele>
        <time>2021-04-30T22:50:58.000Z</time>
      </trkpt>
      <trkpt lat="4.809332108125091" lon="-75.68436610512435">
        <ele>1444.8</ele>
        <time>2021-04-30T22:51:02.000Z</time>
      </trkpt>
      <trkpt lat="4.809344094246626" lon="-75.68436602130532">
        <ele>1444.8</ele>
        <time>2021-04-30T22:51:04.000Z</time>
      </trkpt>
      <trkpt lat="4.8093674797564745" lon="-75.68438060581684">
        <ele>1444.6</ele>
        <time>2021-04-30T22:51:09.000Z</time>
      </trkpt>
      <trkpt lat="4.809376867488027" lon="-75.68437725305557">
        <ele>1444.8</ele>
        <time>2021-04-30T22:51:11.000Z</time>
      </trkpt>
      <trkpt lat="4.809412909671664" lon="-75.68438672460616">
        <ele>1445</ele>
        <time>2021-04-30T22:51:18.000Z</time>
      </trkpt>
      <trkpt lat="4.809421543031931" lon="-75.68439183756709">
        <ele>1445</ele>
        <time>2021-04-30T22:51:20.000Z</time>
      </trkpt>
      <trkpt lat="4.809438893571496" lon="-75.68439988419414">
        <ele>1445</ele>
        <time>2021-04-30T22:51:23.000Z</time>
      </trkpt>
      <trkpt lat="4.809447526931763" lon="-75.6844071764499">
        <ele>1445</ele>
        <time>2021-04-30T22:51:25.000Z</time>
      </trkpt>
      <trkpt lat="4.8094690684229136" lon="-75.68443416617811">
        <ele>1445</ele>
        <time>2021-04-30T22:51:31.000Z</time>
      </trkpt>
      <trkpt lat="4.809472588822246" lon="-75.68443408235908">
        <ele>1445</ele>
        <time>2021-04-30T22:51:33.000Z</time>
      </trkpt>
      <trkpt lat="4.8094740975648165" lon="-75.68444112315774">
        <ele>1445</ele>
        <time>2021-04-30T22:51:37.000Z</time>
      </trkpt>
      <trkpt lat="4.8094844073057175" lon="-75.68447506986558">
        <ele>1444.8</ele>
        <time>2021-04-30T22:51:44.000Z</time>
      </trkpt>
      <trkpt lat="4.80950552970171" lon="-75.68449786864221">
        <ele>1444.8</ele>
        <time>2021-04-30T22:51:50.000Z</time>
      </trkpt>
      <trkpt lat="4.809513324871659" lon="-75.68451957777143">
        <ele>1444.8</ele>
        <time>2021-04-30T22:51:57.000Z</time>
      </trkpt>
      <trkpt lat="4.809526316821575" lon="-75.6845205835998">
        <ele>1444.8</ele>
        <time>2021-04-30T22:51:59.000Z</time>
      </trkpt>
      <trkpt lat="4.809528244659305" lon="-75.68452225998044">
        <ele>1444.8</ele>
        <time>2021-04-30T22:52:00.000Z</time>
      </trkpt>
      <trkpt lat="4.809526735916734" lon="-75.68452360108495">
        <ele>1444.8</ele>
        <time>2021-04-30T22:52:03.000Z</time>
      </trkpt>
      <trkpt lat="4.809533776715398" lon="-75.6845366768539">
        <ele>1444.8</ele>
        <time>2021-04-30T22:52:08.000Z</time>
      </trkpt>
      <trkpt lat="4.809535369277" lon="-75.68453575484455">
        <ele>1444.8</ele>
        <time>2021-04-30T22:52:12.000Z</time>
      </trkpt>
      <trkpt lat="4.809535369277" lon="-75.68453692831099">
        <ele>1444.8</ele>
        <time>2021-04-30T22:52:24.000Z</time>
      </trkpt>
      <trkpt lat="4.809588091447949" lon="-75.68455712869763">
        <ele>1444.6</ele>
        <time>2021-04-30T22:52:40.000Z</time>
      </trkpt>
      <trkpt lat="4.809620026499033" lon="-75.68455905653536">
        <ele>1444.6</ele>
        <time>2021-04-30T22:52:48.000Z</time>
      </trkpt>
      <trkpt lat="4.809695044532418" lon="-75.68455629050732">
        <ele>1444.6</ele>
        <time>2021-04-30T22:52:57.000Z</time>
      </trkpt>
      <trkpt lat="4.809706695377827" lon="-75.6845552008599">
        <ele>1444.6</ele>
        <time>2021-04-30T22:52:58.000Z</time>
      </trkpt>
      <trkpt lat="4.809751203283668" lon="-75.68454983644187">
        <ele>1444.6</ele>
        <time>2021-04-30T22:53:04.000Z</time>
      </trkpt>
      <trkpt lat="4.80975572951138" lon="-75.68455000407994">
        <ele>1444.6</ele>
        <time>2021-04-30T22:53:05.000Z</time>
      </trkpt>
      <trkpt lat="4.809838375076652" lon="-75.68455067463219">
        <ele>1444.4</ele>
        <time>2021-04-30T22:53:17.000Z</time>
      </trkpt>
      <trkpt lat="4.809879530221224" lon="-75.68454899825156">
        <ele>1444.4</ele>
        <time>2021-04-30T22:53:22.000Z</time>
      </trkpt>
      <trkpt lat="4.809909788891673" lon="-75.68454220890999">
        <ele>1444.2</ele>
        <time>2021-04-30T22:53:27.000Z</time>
      </trkpt>
      <trkpt lat="4.809980699792504" lon="-75.68454681895673">
        <ele>1444</ele>
        <time>2021-04-30T22:53:38.000Z</time>
      </trkpt>
      <trkpt lat="4.810045240446925" lon="-75.68453315645456">
        <ele>1443.8</ele>
        <time>2021-04-30T22:53:47.000Z</time>
      </trkpt>
      <trkpt lat="4.810086898505688" lon="-75.68453567102551">
        <ele>1443.6</ele>
        <time>2021-04-30T22:53:56.000Z</time>
      </trkpt>
      <trkpt lat="4.810106847435236" lon="-75.68452762439847">
        <ele>1443.8</ele>
        <time>2021-04-30T22:54:02.000Z</time>
      </trkpt>
      <trkpt lat="4.810151355341077" lon="-75.68452100269496">
        <ele>1444</ele>
        <time>2021-04-30T22:54:14.000Z</time>
      </trkpt>
      <trkpt lat="4.810178093612194" lon="-75.68452142179012">
        <ele>1444</ele>
        <time>2021-04-30T22:54:21.000Z</time>
      </trkpt>
      <trkpt lat="4.810208939015865" lon="-75.68451454862952">
        <ele>1444.2</ele>
        <time>2021-04-30T22:54:26.000Z</time>
      </trkpt>
      <trkpt lat="4.810248417779803" lon="-75.68449049256742">
        <ele>1444.6</ele>
        <time>2021-04-30T22:54:35.000Z</time>
      </trkpt>
      <trkpt lat="4.810317987576127" lon="-75.6844983715564">
        <ele>1444.8</ele>
        <time>2021-04-30T22:54:44.000Z</time>
      </trkpt>
      <trkpt lat="4.810396358370781" lon="-75.68449418060482">
        <ele>1445</ele>
        <time>2021-04-30T22:54:52.000Z</time>
      </trkpt>
      <trkpt lat="4.8104453925043344" lon="-75.68449024111032">
        <ele>1445</ele>
        <time>2021-04-30T22:54:59.000Z</time>
      </trkpt>
      <trkpt lat="4.810514794662595" lon="-75.68447439931333">
        <ele>1445.4</ele>
        <time>2021-04-30T22:55:07.000Z</time>
      </trkpt>
      <trkpt lat="4.810633230954409" lon="-75.68446115590632">
        <ele>1445.6</ele>
        <time>2021-04-30T22:55:19.000Z</time>
      </trkpt>
      <trkpt lat="4.810684695839882" lon="-75.6844534445554">
        <ele>1445.4</ele>
        <time>2021-04-30T22:55:25.000Z</time>
      </trkpt>
      <trkpt lat="4.810692993924022" lon="-75.68445512093604">
        <ele>1445.4</ele>
        <time>2021-04-30T22:55:26.000Z</time>
      </trkpt>
      <trkpt lat="4.810740686953068" lon="-75.68444774486125">
        <ele>1445.6</ele>
        <time>2021-04-30T22:55:33.000Z</time>
      </trkpt>
      <trkpt lat="4.810757283121347" lon="-75.6844468228519">
        <ele>1445.6</ele>
        <time>2021-04-30T22:55:35.000Z</time>
      </trkpt>
      <trkpt lat="4.8107820097357035" lon="-75.68444640375674">
        <ele>1445.6</ele>
        <time>2021-04-30T22:55:38.000Z</time>
      </trkpt>
      <trkpt lat="4.810797348618507" lon="-75.68444263190031">
        <ele>1445.6</ele>
        <time>2021-04-30T22:55:40.000Z</time>
      </trkpt>
      <trkpt lat="4.810819895938039" lon="-75.68442880176008">
        <ele>1445.8</ele>
        <time>2021-04-30T22:55:43.000Z</time>
      </trkpt>
      <trkpt lat="4.810828110203147" lon="-75.68442771211267">
        <ele>1445.8</ele>
        <time>2021-04-30T22:55:44.000Z</time>
      </trkpt>
      <trkpt lat="4.810869265347719" lon="-75.68442628718913">
        <ele>1445.8</ele>
        <time>2021-04-30T22:55:49.000Z</time>
      </trkpt>
      <trkpt lat="4.810944367200136" lon="-75.68442637100816">
        <ele>1445.6</ele>
        <time>2021-04-30T22:55:58.000Z</time>
      </trkpt>
      <trkpt lat="4.810976721346378" lon="-75.68443140015006">
        <ele>1445.4</ele>
        <time>2021-04-30T22:56:04.000Z</time>
      </trkpt>
      <trkpt lat="4.810987785458565" lon="-75.68444933742285">
        <ele>1445.2</ele>
        <time>2021-04-30T22:56:11.000Z</time>
      </trkpt>
      <trkpt lat="4.810991808772087" lon="-75.68447657860816">
        <ele>1445</ele>
        <time>2021-04-30T22:56:16.000Z</time>
      </trkpt>
      <trkpt lat="4.810990132391453" lon="-75.6845018081367">
        <ele>1444.6</ele>
        <time>2021-04-30T22:56:22.000Z</time>
      </trkpt>
      <trkpt lat="4.810996502637863" lon="-75.6845588888973">
        <ele>1443.8</ele>
        <time>2021-04-30T22:56:33.000Z</time>
      </trkpt>
      <trkpt lat="4.810993652790785" lon="-75.68458260968328">
        <ele>1443.4</ele>
        <time>2021-04-30T22:56:36.000Z</time>
      </trkpt>
      <trkpt lat="4.811010081321001" lon="-75.68464304320514">
        <ele>1442.6</ele>
        <time>2021-04-30T22:56:46.000Z</time>
      </trkpt>
      <trkpt lat="4.81101980432868" lon="-75.68471252918243">
        <ele>1441.6</ele>
        <time>2021-04-30T22:56:56.000Z</time>
      </trkpt>
      <trkpt lat="4.81103447265923" lon="-75.68475343286991">
        <ele>1441.2</ele>
        <time>2021-04-30T22:57:03.000Z</time>
      </trkpt>
      <trkpt lat="4.811043189838529" lon="-75.68482610397041">
        <ele>1440.4</ele>
        <time>2021-04-30T22:57:14.000Z</time>
      </trkpt>
      <trkpt lat="4.81104226782918" lon="-75.68489047698677">
        <ele>1439.8</ele>
        <time>2021-04-30T22:57:23.000Z</time>
      </trkpt>
      <trkpt lat="4.811050985008478" lon="-75.68492802791297">
        <ele>1439.4</ele>
        <time>2021-04-30T22:57:28.000Z</time>
      </trkpt>
      <trkpt lat="4.8110532481223345" lon="-75.68494303151965">
        <ele>1439.2</ele>
        <time>2021-04-30T22:57:30.000Z</time>
      </trkpt>
      <trkpt lat="4.811051739379764" lon="-75.68499131128192">
        <ele>1438.6</ele>
        <time>2021-04-30T22:57:36.000Z</time>
      </trkpt>
      <trkpt lat="4.811054589226842" lon="-75.68500514142215">
        <ele>1438.4</ele>
        <time>2021-04-30T22:57:38.000Z</time>
      </trkpt>
      <trkpt lat="4.811058277264237" lon="-75.68502802401781">
        <ele>1438.2</ele>
        <time>2021-04-30T22:57:41.000Z</time>
      </trkpt>
      <trkpt lat="4.811061210930347" lon="-75.68504529073834">
        <ele>1438</ele>
        <time>2021-04-30T22:57:43.000Z</time>
      </trkpt>
      <trkpt lat="4.811067916452885" lon="-75.6850700173527">
        <ele>1437.8</ele>
        <time>2021-04-30T22:57:47.000Z</time>
      </trkpt>
      <trkpt lat="4.811068084090948" lon="-75.68515526130795">
        <ele>1436.8</ele>
        <time>2021-04-30T22:57:57.000Z</time>
      </trkpt>
      <trkpt lat="4.811070850118995" lon="-75.68524679169059">
        <ele>1435.8</ele>
        <time>2021-04-30T22:58:09.000Z</time>
      </trkpt>
      <trkpt lat="4.8110773880034685" lon="-75.68527168594301">
        <ele>1435.6</ele>
        <time>2021-04-30T22:58:13.000Z</time>
      </trkpt>
      <trkpt lat="4.811074119061232" lon="-75.6853015255183">
        <ele>1435.2</ele>
        <time>2021-04-30T22:58:16.000Z</time>
      </trkpt>
      <trkpt lat="4.811088116839528" lon="-75.68531543947756">
        <ele>1435.2</ele>
        <time>2021-04-30T22:58:19.000Z</time>
      </trkpt>
      <trkpt lat="4.811087949201465" lon="-75.68535625934601">
        <ele>1434.6</ele>
        <time>2021-04-30T22:58:27.000Z</time>
      </trkpt>
      <trkpt lat="4.811085183173418" lon="-75.68535567261279">
        <ele>1434.6</ele>
        <time>2021-04-30T22:58:28.000Z</time>
      </trkpt>
      <trkpt lat="4.811092223972082" lon="-75.68541795015335">
        <ele>1433.8</ele>
        <time>2021-04-30T22:58:40.000Z</time>
      </trkpt>
      <trkpt lat="4.811094151809812" lon="-75.68542851135135">
        <ele>1433.6</ele>
        <time>2021-04-30T22:58:42.000Z</time>
      </trkpt>
      <trkpt lat="4.811103204265237" lon="-75.6855222210288">
        <ele>1432.6</ele>
        <time>2021-04-30T22:58:55.000Z</time>
      </trkpt>
      <trkpt lat="4.8111174535006285" lon="-75.6856088899076">
        <ele>1431.6</ele>
        <time>2021-04-30T22:59:06.000Z</time>
      </trkpt>
      <trkpt lat="4.811124745756388" lon="-75.6856834050268">
        <ele>1430.6</ele>
        <time>2021-04-30T22:59:15.000Z</time>
      </trkpt>
      <trkpt lat="4.811126422137022" lon="-75.6857621949166">
        <ele>1429.8</ele>
        <time>2021-04-30T22:59:25.000Z</time>
      </trkpt>
      <trkpt lat="4.811135223135352" lon="-75.68578524515033">
        <ele>1429.6</ele>
        <time>2021-04-30T22:59:29.000Z</time>
      </trkpt>
      <trkpt lat="4.811134552583098" lon="-75.68583394400775">
        <ele>1429</ele>
        <time>2021-04-30T22:59:35.000Z</time>
      </trkpt>
      <trkpt lat="4.811129942536354" lon="-75.68585699424148">
        <ele>1428.8</ele>
        <time>2021-04-30T22:59:39.000Z</time>
      </trkpt>
      <trkpt lat="4.811136731877923" lon="-75.68588901311159">
        <ele>1428.6</ele>
        <time>2021-04-30T22:59:45.000Z</time>
      </trkpt>
      <trkpt lat="4.811144107952714" lon="-75.68592078052461">
        <ele>1428.4</ele>
        <time>2021-04-30T22:59:50.000Z</time>
      </trkpt>
      <trkpt lat="4.81116003356874" lon="-75.68596168421209">
        <ele>1428.2</ele>
        <time>2021-04-30T22:59:56.000Z</time>
      </trkpt>
      <trkpt lat="4.811170343309641" lon="-75.68602404557168">
        <ele>1427.8</ele>
        <time>2021-04-30T23:00:04.000Z</time>
      </trkpt>
      <trkpt lat="4.811170678585768" lon="-75.68603326566517">
        <ele>1427.8</ele>
        <time>2021-04-30T23:00:05.000Z</time>
      </trkpt>
      <trkpt lat="4.811196411028504" lon="-75.6861028354615">
        <ele>1427.4</ele>
        <time>2021-04-30T23:00:13.000Z</time>
      </trkpt>
      <trkpt lat="4.811197081580758" lon="-75.68616033531725">
        <ele>1427</ele>
        <time>2021-04-30T23:00:20.000Z</time>
      </trkpt>
      <trkpt lat="4.811206217855215" lon="-75.68621381185949">
        <ele>1426.8</ele>
        <time>2021-04-30T23:00:27.000Z</time>
      </trkpt>
      <trkpt lat="4.8112081456929445" lon="-75.68622831255198">
        <ele>1426.8</ele>
        <time>2021-04-30T23:00:29.000Z</time>
      </trkpt>
      <trkpt lat="4.81121133081615" lon="-75.6862722337246">
        <ele>1426.8</ele>
        <time>2021-04-30T23:00:34.000Z</time>
      </trkpt>
      <trkpt lat="4.811208816245198" lon="-75.6862957868725">
        <ele>1426.6</ele>
        <time>2021-04-30T23:00:37.000Z</time>
      </trkpt>
      <trkpt lat="4.81120596639812" lon="-75.68630626425147">
        <ele>1426.6</ele>
        <time>2021-04-30T23:00:38.000Z</time>
      </trkpt>
      <trkpt lat="4.811210073530674" lon="-75.68636242300272">
        <ele>1426.4</ele>
        <time>2021-04-30T23:00:44.000Z</time>
      </trkpt>
      <trkpt lat="4.811216359958053" lon="-75.68644439801574">
        <ele>1426.2</ele>
        <time>2021-04-30T23:00:53.000Z</time>
      </trkpt>
      <trkpt lat="4.811227675527334" lon="-75.68652033805847">
        <ele>1425.4</ele>
        <time>2021-04-30T23:01:02.000Z</time>
      </trkpt>
      <trkpt lat="4.811236560344696" lon="-75.68659535609186">
        <ele>1424.8</ele>
        <time>2021-04-30T23:01:11.000Z</time>
      </trkpt>
      <trkpt lat="4.811243684962392" lon="-75.68665746599436">
        <ele>1424.2</ele>
        <time>2021-04-30T23:01:18.000Z</time>
      </trkpt>
      <trkpt lat="4.811255419626832" lon="-75.68672820925713">
        <ele>1423.6</ele>
        <time>2021-04-30T23:01:26.000Z</time>
      </trkpt>
      <trkpt lat="4.81125432997942" lon="-75.68673600442708">
        <ele>1423.4</ele>
        <time>2021-04-30T23:01:27.000Z</time>
      </trkpt>
      <trkpt lat="4.811260364949703" lon="-75.6867672689259">
        <ele>1423.4</ele>
        <time>2021-04-30T23:01:31.000Z</time>
      </trkpt>
      <trkpt lat="4.8112735245376825" lon="-75.6867934204638">
        <ele>1423.2</ele>
        <time>2021-04-30T23:01:35.000Z</time>
      </trkpt>
      <trkpt lat="4.8112797271460295" lon="-75.68682636134326">
        <ele>1423.2</ele>
        <time>2021-04-30T23:01:40.000Z</time>
      </trkpt>
      <trkpt lat="4.811281571164727" lon="-75.6868713721633">
        <ele>1422.8</ele>
        <time>2021-04-30T23:01:46.000Z</time>
      </trkpt>
      <trkpt lat="4.8112953174859285" lon="-75.68690842017531">
        <ele>1422.6</ele>
        <time>2021-04-30T23:01:51.000Z</time>
      </trkpt>
      <trkpt lat="4.811303364112973" lon="-75.68694144487381">
        <ele>1422.6</ele>
        <time>2021-04-30T23:01:58.000Z</time>
      </trkpt>
      <trkpt lat="4.8113171104341745" lon="-75.68700137548149">
        <ele>1422.2</ele>
        <time>2021-04-30T23:02:08.000Z</time>
      </trkpt>
      <trkpt lat="4.811336053535342" lon="-75.6870680116117">
        <ele>1422.2</ele>
        <time>2021-04-30T23:02:18.000Z</time>
      </trkpt>
      <trkpt lat="4.8113383166491985" lon="-75.68710204213858">
        <ele>1422.2</ele>
        <time>2021-04-30T23:02:24.000Z</time>
      </trkpt>
      <trkpt lat="4.811345357447863" lon="-75.68713892251253">
        <ele>1422</ele>
        <time>2021-04-30T23:02:29.000Z</time>
      </trkpt>
      <trkpt lat="4.811351140961051" lon="-75.68720329552889">
        <ele>1421</ele>
        <time>2021-04-30T23:02:37.000Z</time>
      </trkpt>
      <trkpt lat="4.811355751007795" lon="-75.68725258111954">
        <ele>1420.4</ele>
        <time>2021-04-30T23:02:44.000Z</time>
      </trkpt>
      <trkpt lat="4.811358684673905" lon="-75.68729231134057">
        <ele>1420</ele>
        <time>2021-04-30T23:02:50.000Z</time>
      </trkpt>
      <trkpt lat="4.811356505379081" lon="-75.68732751533389">
        <ele>1419.8</ele>
        <time>2021-04-30T23:02:54.000Z</time>
      </trkpt>
      <trkpt lat="4.8113795556128025" lon="-75.687409741804">
        <ele>1419.6</ele>
        <time>2021-04-30T23:03:04.000Z</time>
      </trkpt>
      <trkpt lat="4.811393721029162" lon="-75.68747746758163">
        <ele>1419.2</ele>
        <time>2021-04-30T23:03:13.000Z</time>
      </trkpt>
      <trkpt lat="4.811398666352034" lon="-75.68753748200834">
        <ele>1419</ele>
        <time>2021-04-30T23:03:23.000Z</time>
      </trkpt>
      <trkpt lat="4.811395397409797" lon="-75.68755726329982">
        <ele>1419</ele>
        <time>2021-04-30T23:03:26.000Z</time>
      </trkpt>
      <trkpt lat="4.811396487057209" lon="-75.68756681866944">
        <ele>1419</ele>
        <time>2021-04-30T23:03:28.000Z</time>
      </trkpt>
      <trkpt lat="4.8113984148949385" lon="-75.68757318891585">
        <ele>1419</ele>
        <time>2021-04-30T23:03:30.000Z</time>
      </trkpt>
      <trkpt lat="4.811399085447192" lon="-75.68759062327445">
        <ele>1419</ele>
        <time>2021-04-30T23:03:33.000Z</time>
      </trkpt>
      <trkpt lat="4.811406461521983" lon="-75.68767519667745">
        <ele>1418.8</ele>
        <time>2021-04-30T23:03:45.000Z</time>
      </trkpt>
      <trkpt lat="4.811412580311298" lon="-75.68774250335991">
        <ele>1418.6</ele>
        <time>2021-04-30T23:03:55.000Z</time>
      </trkpt>
      <trkpt lat="4.8114207945764065" lon="-75.6877884361893">
        <ele>1418.4</ele>
        <time>2021-04-30T23:04:06.000Z</time>
      </trkpt>
      <trkpt lat="4.81142439879477" lon="-75.68783084861934">
        <ele>1418.2</ele>
        <time>2021-04-30T23:04:14.000Z</time>
      </trkpt>
      <trkpt lat="4.811443509534001" lon="-75.68789455108345">
        <ele>1418</ele>
        <time>2021-04-30T23:04:22.000Z</time>
      </trkpt>
      <trkpt lat="4.811449963599443" lon="-75.68797325715423">
        <ele>1418</ele>
        <time>2021-04-30T23:04:32.000Z</time>
      </trkpt>
      <trkpt lat="4.811461195349693" lon="-75.6880160048604">
        <ele>1418</ele>
        <time>2021-04-30T23:04:39.000Z</time>
      </trkpt>
      <trkpt lat="4.811466978862882" lon="-75.688073085621">
        <ele>1418</ele>
        <time>2021-04-30T23:04:48.000Z</time>
      </trkpt>
      <trkpt lat="4.811470666900277" lon="-75.68812580779195">
        <ele>1418</ele>
        <time>2021-04-30T23:04:57.000Z</time>
      </trkpt>
      <trkpt lat="4.81147033162415" lon="-75.68818557076156">
        <ele>1417.8</ele>
        <time>2021-04-30T23:05:07.000Z</time>
      </trkpt>
      <trkpt lat="4.8114752769470215" lon="-75.6882853154093">
        <ele>1417.4</ele>
        <time>2021-04-30T23:05:20.000Z</time>
      </trkpt>
      <trkpt lat="4.811479048803449" lon="-75.68834323436022">
        <ele>1417.2</ele>
        <time>2021-04-30T23:05:29.000Z</time>
      </trkpt>
      <trkpt lat="4.81148743070662" lon="-75.68836452439427">
        <ele>1417.2</ele>
        <time>2021-04-30T23:05:32.000Z</time>
      </trkpt>
      <trkpt lat="4.811494974419475" lon="-75.68843828514218">
        <ele>1417.2</ele>
        <time>2021-04-30T23:05:43.000Z</time>
      </trkpt>
      <trkpt lat="4.811498075723648" lon="-75.68846611306071">
        <ele>1417.2</ele>
        <time>2021-04-30T23:05:47.000Z</time>
      </trkpt>
      <trkpt lat="4.811503607779741" lon="-75.68851724267006">
        <ele>1417.2</ele>
        <time>2021-04-30T23:05:54.000Z</time>
      </trkpt>
      <trkpt lat="4.8115050327032804" lon="-75.68852570839226">
        <ele>1417.2</ele>
        <time>2021-04-30T23:05:55.000Z</time>
      </trkpt>
      <trkpt lat="4.811524478718638" lon="-75.68860885687172">
        <ele>1417.4</ele>
        <time>2021-04-30T23:06:06.000Z</time>
      </trkpt>
      <trkpt lat="4.811528166756034" lon="-75.68869451992214">
        <ele>1417</ele>
        <time>2021-04-30T23:06:17.000Z</time>
      </trkpt>
      <trkpt lat="4.81153529137373" lon="-75.68874053657055">
        <ele>1417</ele>
        <time>2021-04-30T23:06:23.000Z</time>
      </trkpt>
      <trkpt lat="4.811543170362711" lon="-75.68880205973983">
        <ele>1417</ele>
        <time>2021-04-30T23:06:31.000Z</time>
      </trkpt>
      <trkpt lat="4.8115606885403395" lon="-75.68890792317688">
        <ele>1416.8</ele>
        <time>2021-04-30T23:06:43.000Z</time>
      </trkpt>
      <trkpt lat="4.8115733452141285" lon="-75.68905133754015">
        <ele>1416.6</ele>
        <time>2021-04-30T23:06:54.000Z</time>
      </trkpt>
      <trkpt lat="4.811580302193761" lon="-75.68914663977921">
        <ele>1416.6</ele>
        <time>2021-04-30T23:07:03.000Z</time>
      </trkpt>
      <trkpt lat="4.811597820371389" lon="-75.68926239386201">
        <ele>1416.2</ele>
        <time>2021-04-30T23:07:14.000Z</time>
      </trkpt>
      <trkpt lat="4.811629252508283" lon="-75.68934143520892">
        <ele>1415.8</ele>
        <time>2021-04-30T23:07:24.000Z</time>
      </trkpt>
      <trkpt lat="4.811640400439501" lon="-75.68934914655983">
        <ele>1415.8</ele>
        <time>2021-04-30T23:07:25.000Z</time>
      </trkpt>
      <trkpt lat="4.811701253056526" lon="-75.68937404081225">
        <ele>1415.8</ele>
        <time>2021-04-30T23:07:31.000Z</time>
      </trkpt>
      <trkpt lat="4.811775600537658" lon="-75.68938745185733">
        <ele>1415.6</ele>
        <time>2021-04-30T23:07:40.000Z</time>
      </trkpt>
      <trkpt lat="4.811819354072213" lon="-75.6893960852176">
        <ele>1415.8</ele>
        <time>2021-04-30T23:07:46.000Z</time>
      </trkpt>
      <trkpt lat="4.811832681298256" lon="-75.68939650431275">
        <ele>1416</ele>
        <time>2021-04-30T23:07:47.000Z</time>
      </trkpt>
      <trkpt lat="4.811890767887235" lon="-75.68940362893045">
        <ele>1416.2</ele>
        <time>2021-04-30T23:07:52.000Z</time>
      </trkpt>
      <trkpt lat="4.8119087889790535" lon="-75.68939792923629">
        <ele>1416.2</ele>
        <time>2021-04-30T23:07:54.000Z</time>
      </trkpt>
      <trkpt lat="4.812024291604757" lon="-75.68938451819122">
        <ele>1416.6</ele>
        <time>2021-04-30T23:08:03.000Z</time>
      </trkpt>
      <trkpt lat="4.812044659629464" lon="-75.6893802434206">
        <ele>1416.6</ele>
        <time>2021-04-30T23:08:05.000Z</time>
      </trkpt>
      <trkpt lat="4.812102830037475" lon="-75.68937194533646">
        <ele>1417</ele>
        <time>2021-04-30T23:08:10.000Z</time>
      </trkpt>
      <trkpt lat="4.812111631035805" lon="-75.68936959840357">
        <ele>1417.2</ele>
        <time>2021-04-30T23:08:11.000Z</time>
      </trkpt>
      <trkpt lat="4.812194695696235" lon="-75.68936951458454">
        <ele>1417.8</ele>
        <time>2021-04-30T23:08:20.000Z</time>
      </trkpt>
      <trkpt lat="4.812209280207753" lon="-75.6893678382039">
        <ele>1417.8</ele>
        <time>2021-04-30T23:08:22.000Z</time>
      </trkpt>
      <trkpt lat="4.8122477531433105" lon="-75.68936917930841">
        <ele>1418</ele>
        <time>2021-04-30T23:08:26.000Z</time>
      </trkpt>
      <trkpt lat="4.812257057055831" lon="-75.68936775438488">
        <ele>1418.2</ele>
        <time>2021-04-30T23:08:27.000Z</time>
      </trkpt>
      <trkpt lat="4.812291255220771" lon="-75.68936750292778">
        <ele>1418.4</ele>
        <time>2021-04-30T23:08:32.000Z</time>
      </trkpt>
      <trkpt lat="4.812316903844476" lon="-75.68936406634748">
        <ele>1418.6</ele>
        <time>2021-04-30T23:08:35.000Z</time>
      </trkpt>
      <trkpt lat="4.812403907999396" lon="-75.68933405913413">
        <ele>1418.4</ele>
        <time>2021-04-30T23:08:45.000Z</time>
      </trkpt>
      <trkpt lat="4.812468532472849" lon="-75.68931905552745">
        <ele>1418.4</ele>
        <time>2021-04-30T23:08:53.000Z</time>
      </trkpt>
      <trkpt lat="4.8124845419079065" lon="-75.68931737914681">
        <ele>1418.4</ele>
        <time>2021-04-30T23:08:56.000Z</time>
      </trkpt>
      <trkpt lat="4.812564589083195" lon="-75.68931000307202">
        <ele>1418.6</ele>
        <time>2021-04-30T23:09:06.000Z</time>
      </trkpt>
      <trkpt lat="4.812581771984696" lon="-75.68931008689106">
        <ele>1418.6</ele>
        <time>2021-04-30T23:09:08.000Z</time>
      </trkpt>
      <trkpt lat="4.812681768089533" lon="-75.68930958397686">
        <ele>1418.6</ele>
        <time>2021-04-30T23:09:18.000Z</time>
      </trkpt>
      <trkpt lat="4.8127613961696625" lon="-75.68931327201426">
        <ele>1418.6</ele>
        <time>2021-04-30T23:09:28.000Z</time>
      </trkpt>
      <trkpt lat="4.812828870490193" lon="-75.68931360729039">
        <ele>1418.4</ele>
        <time>2021-04-30T23:09:36.000Z</time>
      </trkpt>
      <trkpt lat="4.812879078090191" lon="-75.68930790759623">
        <ele>1418.4</ele>
        <time>2021-04-30T23:09:43.000Z</time>
      </trkpt>
      <trkpt lat="4.812946552410722" lon="-75.68928661756217">
        <ele>1418.6</ele>
        <time>2021-04-30T23:09:51.000Z</time>
      </trkpt>
      <trkpt lat="4.813012098893523" lon="-75.68926893174648">
        <ele>1418.8</ele>
        <time>2021-04-30T23:09:58.000Z</time>
      </trkpt>
      <trkpt lat="4.813043614849448" lon="-75.68926683627069">
        <ele>1418.8</ele>
        <time>2021-04-30T23:10:01.000Z</time>
      </trkpt>
      <trkpt lat="4.813100779429078" lon="-75.68926239386201">
        <ele>1419</ele>
        <time>2021-04-30T23:10:08.000Z</time>
      </trkpt>
      <trkpt lat="4.813173031434417" lon="-75.6892665848136">
        <ele>1419.2</ele>
        <time>2021-04-30T23:10:16.000Z</time>
      </trkpt>
      <trkpt lat="4.813236566260457" lon="-75.68924210965633">
        <ele>1419.4</ele>
        <time>2021-04-30T23:10:24.000Z</time>
      </trkpt>
      <trkpt lat="4.813239416107535" lon="-75.68921101279557">
        <ele>1419.4</ele>
        <time>2021-04-30T23:10:30.000Z</time>
      </trkpt>
      <trkpt lat="4.813232962042093" lon="-75.6891677621752">
        <ele>1419.4</ele>
        <time>2021-04-30T23:10:34.000Z</time>
      </trkpt>
      <trkpt lat="4.813237655907869" lon="-75.68914655596018">
        <ele>1419.4</ele>
        <time>2021-04-30T23:10:36.000Z</time>
      </trkpt>
      <trkpt lat="4.813240589573979" lon="-75.68913775496185">
        <ele>1419.4</ele>
        <time>2021-04-30T23:10:37.000Z</time>
      </trkpt>
      <trkpt lat="4.813249642029405" lon="-75.68907354958355">
        <ele>1419.4</ele>
        <time>2021-04-30T23:10:43.000Z</time>
      </trkpt>
      <trkpt lat="4.813248468562961" lon="-75.68907405249774">
        <ele>1419.4</ele>
        <time>2021-04-30T23:10:44.000Z</time>
      </trkpt>
      <trkpt lat="4.8132373206317425" lon="-75.68902996368706">
        <ele>1419.4</ele>
        <time>2021-04-30T23:10:49.000Z</time>
      </trkpt>
      <trkpt lat="4.813242433592677" lon="-75.68898428231478">
        <ele>1419.4</ele>
        <time>2021-04-30T23:10:55.000Z</time>
      </trkpt>
      <trkpt lat="4.813220556825399" lon="-75.68892527371645">
        <ele>1419.2</ele>
        <time>2021-04-30T23:11:03.000Z</time>
      </trkpt>
      <trkpt lat="4.813217455521226" lon="-75.68891412578523">
        <ele>1419.2</ele>
        <time>2021-04-30T23:11:04.000Z</time>
      </trkpt>
      <trkpt lat="4.813204295933247" lon="-75.68886710330844">
        <ele>1419.2</ele>
        <time>2021-04-30T23:11:09.000Z</time>
      </trkpt>
      <trkpt lat="4.813201781362295" lon="-75.68882133811712">
        <ele>1419.2</ele>
        <time>2021-04-30T23:11:14.000Z</time>
      </trkpt>
      <trkpt lat="4.81321326456964" lon="-75.68879309110343">
        <ele>1419.2</ele>
        <time>2021-04-30T23:11:17.000Z</time>
      </trkpt>
      <trkpt lat="4.813212594017386" lon="-75.68873031064868">
        <ele>1419.2</ele>
        <time>2021-04-30T23:11:25.000Z</time>
      </trkpt>
      <trkpt lat="4.813209660351276" lon="-75.68868605419993">
        <ele>1419.2</ele>
        <time>2021-04-30T23:11:31.000Z</time>
      </trkpt>
      <trkpt lat="4.813202368095517" lon="-75.68865889683366">
        <ele>1419.2</ele>
        <time>2021-04-30T23:11:34.000Z</time>
      </trkpt>
      <trkpt lat="4.813186023384333" lon="-75.6886378582567">
        <ele>1419.4</ele>
        <time>2021-04-30T23:11:37.000Z</time>
      </trkpt>
      <trkpt lat="4.813174959272146" lon="-75.68857625126839">
        <ele>1420</ele>
        <time>2021-04-30T23:11:45.000Z</time>
      </trkpt>
      <trkpt lat="4.813171438872814" lon="-75.68851003423333">
        <ele>1420.8</ele>
        <time>2021-04-30T23:11:54.000Z</time>
      </trkpt>
      <trkpt lat="4.813156351447105" lon="-75.68845781497657">
        <ele>1421.2</ele>
        <time>2021-04-30T23:12:01.000Z</time>
      </trkpt>
      <trkpt lat="4.8131421860307455" lon="-75.68844272755086">
        <ele>1421.4</ele>
        <time>2021-04-30T23:12:09.000Z</time>
      </trkpt>
      <trkpt lat="4.813138581812382" lon="-75.68843954242766">
        <ele>1421.4</ele>
        <time>2021-04-30T23:12:15.000Z</time>
      </trkpt>
      <trkpt lat="4.813128691166639" lon="-75.68844339810312">
        <ele>1421.4</ele>
        <time>2021-04-30T23:12:27.000Z</time>
      </trkpt>
      <trkpt lat="4.813128691166639" lon="-75.68844272755086">
        <ele>1421.4</ele>
        <time>2021-04-30T23:12:30.000Z</time>
      </trkpt>
      <trkpt lat="4.813128691166639" lon="-75.68844079971313">
        <ele>1421.4</ele>
        <time>2021-04-30T23:12:32.000Z</time>
      </trkpt>
      <trkpt lat="4.813118213787675" lon="-75.68843878805637">
        <ele>1421.4</ele>
        <time>2021-04-30T23:12:34.000Z</time>
      </trkpt>
      <trkpt lat="4.813106814399362" lon="-75.68843392655253">
        <ele>1421.4</ele>
        <time>2021-04-30T23:12:37.000Z</time>
      </trkpt>
      <trkpt lat="4.813102623447776" lon="-75.68843099288642">
        <ele>1421.4</ele>
        <time>2021-04-30T23:12:39.000Z</time>
      </trkpt>
      <trkpt lat="4.813099354505539" lon="-75.68842445500195">
        <ele>1421.4</ele>
        <time>2021-04-30T23:12:41.000Z</time>
      </trkpt>
      <trkpt lat="4.813090888783336" lon="-75.68841070868075">
        <ele>1421.4</ele>
        <time>2021-04-30T23:12:54.000Z</time>
      </trkpt>
      <trkpt lat="4.8130797408521175" lon="-75.68840718828142">
        <ele>1421.4</ele>
        <time>2021-04-30T23:13:05.000Z</time>
      </trkpt>
      <trkpt lat="4.813090888783336" lon="-75.6884290650487">
        <ele>1421.4</ele>
        <time>2021-04-30T23:13:11.000Z</time>
      </trkpt>
      <trkpt lat="4.813115866854787" lon="-75.68843292072415">
        <ele>1421.4</ele>
        <time>2021-04-30T23:13:14.000Z</time>
      </trkpt>
      <trkpt lat="4.813131038099527" lon="-75.6884391233325">
        <ele>1421.4</ele>
        <time>2021-04-30T23:13:16.000Z</time>
      </trkpt>
      <trkpt lat="4.813142940402031" lon="-75.68844515830278">
        <ele>1421.4</ele>
        <time>2021-04-30T23:13:23.000Z</time>
      </trkpt>
      <trkpt lat="4.813147634267807" lon="-75.68843375891447">
        <ele>1421.4</ele>
        <time>2021-04-30T23:13:29.000Z</time>
      </trkpt>
      <trkpt lat="4.8131497297436" lon="-75.68843769840896">
        <ele>1421.4</ele>
        <time>2021-04-30T23:13:45.000Z</time>
      </trkpt>
      <trkpt lat="4.813149897381663" lon="-75.6884388718754">
        <ele>1421.4</ele>
        <time>2021-04-30T23:13:54.000Z</time>
      </trkpt>
      <trkpt lat="4.813151406124234" lon="-75.68843903951347">
        <ele>1421.4</ele>
        <time>2021-04-30T23:14:01.000Z</time>
      </trkpt>
      <trkpt lat="4.813151657581329" lon="-75.68843903951347">
        <ele>1421.4</ele>
        <time>2021-04-30T23:14:07.000Z</time>
      </trkpt>
      <trkpt lat="4.813160374760628" lon="-75.68828062154353">
        <ele>1423.2</ele>
        <time>2021-04-30T23:14:31.000Z</time>
      </trkpt>
      <trkpt lat="4.8131604585796595" lon="-75.68826620467007">
        <ele>1423.4</ele>
        <time>2021-04-30T23:14:32.000Z</time>
      </trkpt>
      <trkpt lat="4.813150400295854" lon="-75.68819613195956">
        <ele>1424.2</ele>
        <time>2021-04-30T23:14:41.000Z</time>
      </trkpt>
      <trkpt lat="4.813114693388343" lon="-75.68814114667475">
        <ele>1424.4</ele>
        <time>2021-04-30T23:14:51.000Z</time>
      </trkpt>
      <trkpt lat="4.813092648983002" lon="-75.6881056074053">
        <ele>1424.2</ele>
        <time>2021-04-30T23:14:58.000Z</time>
      </trkpt>
      <trkpt lat="4.813094912096858" lon="-75.68808943033218">
        <ele>1424.2</ele>
        <time>2021-04-30T23:15:03.000Z</time>
      </trkpt>
      <trkpt lat="4.813093151897192" lon="-75.68804316222668">
        <ele>1423.8</ele>
        <time>2021-04-30T23:15:11.000Z</time>
      </trkpt>
      <trkpt lat="4.813073454424739" lon="-75.68800795823336">
        <ele>1423.2</ele>
        <time>2021-04-30T23:15:19.000Z</time>
      </trkpt>
      <trkpt lat="4.813071275129914" lon="-75.68800091743469">
        <ele>1423.2</ele>
        <time>2021-04-30T23:15:26.000Z</time>
      </trkpt>
      <trkpt lat="4.813069179654121" lon="-75.6879813876003">
        <ele>1423</ele>
        <time>2021-04-30T23:15:33.000Z</time>
      </trkpt>
      <trkpt lat="4.813051912933588" lon="-75.6879607681185">
        <ele>1422.6</ele>
        <time>2021-04-30T23:15:39.000Z</time>
      </trkpt>
      <trkpt lat="4.813050488010049" lon="-75.6879417411983">
        <ele>1422.4</ele>
        <time>2021-04-30T23:15:43.000Z</time>
      </trkpt>
      <trkpt lat="4.813068090006709" lon="-75.68792682141066">
        <ele>1422.6</ele>
        <time>2021-04-30T23:15:46.000Z</time>
      </trkpt>
      <trkpt lat="4.81310429982841" lon="-75.68790444172919">
        <ele>1423</ele>
        <time>2021-04-30T23:15:50.000Z</time>
      </trkpt>
      <trkpt lat="4.813123159110546" lon="-75.68786848336458">
        <ele>1423</ele>
        <time>2021-04-30T23:15:55.000Z</time>
      </trkpt>
      <trkpt lat="4.813119387254119" lon="-75.68786018528044">
        <ele>1422.8</ele>
        <time>2021-04-30T23:15:56.000Z</time>
      </trkpt>
      <trkpt lat="4.8131215665489435" lon="-75.68784534931183">
        <ele>1422.8</ele>
        <time>2021-04-30T23:15:59.000Z</time>
      </trkpt>
      <trkpt lat="4.813129613175988" lon="-75.68782858550549">
        <ele>1422.8</ele>
        <time>2021-04-30T23:16:02.000Z</time>
      </trkpt>
      <trkpt lat="4.813143694773316" lon="-75.68782011978328">
        <ele>1422.8</ele>
        <time>2021-04-30T23:16:04.000Z</time>
      </trkpt>
      <trkpt lat="4.813181329518557" lon="-75.68778273649514">
        <ele>1422.4</ele>
        <time>2021-04-30T23:16:13.000Z</time>
      </trkpt>
      <trkpt lat="4.813175797462463" lon="-75.68776764906943">
        <ele>1422.2</ele>
        <time>2021-04-30T23:16:20.000Z</time>
      </trkpt>
      <trkpt lat="4.813175797462463" lon="-75.6877757795155">
        <ele>1422.2</ele>
        <time>2021-04-30T23:16:28.000Z</time>
      </trkpt>
      <trkpt lat="4.813186191022396" lon="-75.68778374232352">
        <ele>1422.4</ele>
        <time>2021-04-30T23:16:31.000Z</time>
      </trkpt>
      <trkpt lat="4.813185688108206" lon="-75.68778382614255">
        <ele>1422.4</ele>
        <time>2021-04-30T23:16:32.000Z</time>
      </trkpt>
      <trkpt lat="4.81318443082273" lon="-75.68778332322836">
        <ele>1422.4</ele>
        <time>2021-04-30T23:16:33.000Z</time>
      </trkpt>
      <trkpt lat="4.813195914030075" lon="-75.68777452223003">
        <ele>1422.2</ele>
        <time>2021-04-30T23:16:39.000Z</time>
      </trkpt>
      <trkpt lat="4.813197171315551" lon="-75.68777343258262">
        <ele>1422.2</ele>
        <time>2021-04-30T23:16:46.000Z</time>
      </trkpt>
      <trkpt lat="4.813197171315551" lon="-75.68777343258262">
        <ele>1422.2</ele>
        <time>2021-04-30T23:16:49.000Z</time>
      </trkpt>
      <trkpt lat="4.813197171315551" lon="-75.68777360022068">
        <ele>1422.2</ele>
        <time>2021-04-30T23:16:52.000Z</time>
      </trkpt>
      <trkpt lat="4.813197171315551" lon="-75.68777536042035">
        <ele>1422.2</ele>
        <time>2021-04-30T23:16:55.000Z</time>
      </trkpt>
      <trkpt lat="4.813202451914549" lon="-75.6877760309726">
        <ele>1422.2</ele>
        <time>2021-04-30T23:16:57.000Z</time>
      </trkpt>
      <trkpt lat="4.8132797330617905" lon="-75.68777217529714">
        <ele>1422.4</ele>
        <time>2021-04-30T23:17:13.000Z</time>
      </trkpt>
      <trkpt lat="4.813286941498518" lon="-75.68777385167778">
        <ele>1422.6</ele>
        <time>2021-04-30T23:17:24.000Z</time>
      </trkpt>
      <trkpt lat="4.8132402542978525" lon="-75.68777779117227">
        <ele>1422.4</ele>
        <time>2021-04-30T23:17:27.000Z</time>
      </trkpt>
      <trkpt lat="4.813171271234751" lon="-75.68780184723437">
        <ele>1422.6</ele>
        <time>2021-04-30T23:17:34.000Z</time>
      </trkpt>
      <trkpt lat="4.813162134960294" lon="-75.68781794048846">
        <ele>1422.8</ele>
        <time>2021-04-30T23:17:36.000Z</time>
      </trkpt>
      <trkpt lat="4.81314780190587" lon="-75.68783805705607">
        <ele>1423</ele>
        <time>2021-04-30T23:17:41.000Z</time>
      </trkpt>
      <trkpt lat="4.813144113868475" lon="-75.68785046227276">
        <ele>1423.2</ele>
        <time>2021-04-30T23:17:48.000Z</time>
      </trkpt>
      <trkpt lat="4.813129361718893" lon="-75.68786487914622">
        <ele>1423</ele>
        <time>2021-04-30T23:17:56.000Z</time>
      </trkpt>
      <trkpt lat="4.813120057806373" lon="-75.68789396435022">
        <ele>1423.2</ele>
        <time>2021-04-30T23:18:02.000Z</time>
      </trkpt>
      <trkpt lat="4.813127350062132" lon="-75.68788549862802">
        <ele>1423.2</ele>
        <time>2021-04-30T23:18:08.000Z</time>
      </trkpt>
      <trkpt lat="4.81312433257699" lon="-75.68787979893386">
        <ele>1423</ele>
        <time>2021-04-30T23:18:14.000Z</time>
      </trkpt>
      <trkpt lat="4.81312433257699" lon="-75.68787979893386">
        <ele>1423</ele>
        <time>2021-04-30T23:18:24.000Z</time>
      </trkpt>
      <trkpt lat="4.8131209798157215" lon="-75.6878798827529">
        <ele>1423</ele>
        <time>2021-04-30T23:18:39.000Z</time>
      </trkpt>
      <trkpt lat="4.8131209798157215" lon="-75.68789027631283">
        <ele>1423.2</ele>
        <time>2021-04-30T23:18:45.000Z</time>
      </trkpt>
      <trkpt lat="4.813126847147942" lon="-75.68789798766375">
        <ele>1423.2</ele>
        <time>2021-04-30T23:18:49.000Z</time>
      </trkpt>
      <trkpt lat="4.8131301160901785" lon="-75.68789899349213">
        <ele>1423.4</ele>
        <time>2021-04-30T23:18:52.000Z</time>
      </trkpt>
      <trkpt lat="4.813131708651781" lon="-75.68790435791016">
        <ele>1423.4</ele>
        <time>2021-04-30T23:18:56.000Z</time>
      </trkpt>
      <trkpt lat="4.8130727000534534" lon="-75.68808297626674">
        <ele>1423.8</ele>
        <time>2021-04-30T23:19:14.000Z</time>
      </trkpt>
      <trkpt lat="4.813079489395022" lon="-75.68810896016657">
        <ele>1424</ele>
        <time>2021-04-30T23:19:17.000Z</time>
      </trkpt>
      <trkpt lat="4.81311259791255" lon="-75.68813662044704">
        <ele>1424.4</ele>
        <time>2021-04-30T23:19:19.000Z</time>
      </trkpt>
      <trkpt lat="4.8131100833415985" lon="-75.68814349360764">
        <ele>1424.4</ele>
        <time>2021-04-30T23:19:20.000Z</time>
      </trkpt>
      <trkpt lat="4.813118549063802" lon="-75.68814558908343">
        <ele>1424.4</ele>
        <time>2021-04-30T23:19:23.000Z</time>
      </trkpt>
      <trkpt lat="4.8131295293569565" lon="-75.68815430626273">
        <ele>1424.4</ele>
        <time>2021-04-30T23:19:26.000Z</time>
      </trkpt>
      <trkpt lat="4.813136402517557" lon="-75.68816126324236">
        <ele>1424.4</ele>
        <time>2021-04-30T23:19:28.000Z</time>
      </trkpt>
      <trkpt lat="4.8131410125643015" lon="-75.68817182444036">
        <ele>1424.2</ele>
        <time>2021-04-30T23:19:30.000Z</time>
      </trkpt>
      <trkpt lat="4.8131386656314135" lon="-75.68818590603769">
        <ele>1424.2</ele>
        <time>2021-04-30T23:19:32.000Z</time>
      </trkpt>
      <trkpt lat="4.8131433594971895" lon="-75.68818959407508">
        <ele>1424.2</ele>
        <time>2021-04-30T23:19:34.000Z</time>
      </trkpt>
      <trkpt lat="4.81314436532557" lon="-75.68821038119495">
        <ele>1424</ele>
        <time>2021-04-30T23:19:38.000Z</time>
      </trkpt>
      <trkpt lat="4.813146879896522" lon="-75.68822454661131">
        <ele>1423.8</ele>
        <time>2021-04-30T23:19:42.000Z</time>
      </trkpt>
      <trkpt lat="4.8131348099559546" lon="-75.6882351078093">
        <ele>1423.6</ele>
        <time>2021-04-30T23:19:44.000Z</time>
      </trkpt>
      <trkpt lat="4.813118716701865" lon="-75.6882699765265">
        <ele>1423</ele>
        <time>2021-04-30T23:19:53.000Z</time>
      </trkpt>
      <trkpt lat="4.813125086948276" lon="-75.68832764402032">
        <ele>1422.6</ele>
        <time>2021-04-30T23:20:00.000Z</time>
      </trkpt>
      <trkpt lat="4.813158614560962" lon="-75.68837458267808">
        <ele>1422.2</ele>
        <time>2021-04-30T23:20:08.000Z</time>
      </trkpt>
      <trkpt lat="4.813190381973982" lon="-75.68838422186673">
        <ele>1422.2</ele>
        <time>2021-04-30T23:20:15.000Z</time>
      </trkpt>
      <trkpt lat="4.813235979527235" lon="-75.68838329985738">
        <ele>1422.4</ele>
        <time>2021-04-30T23:20:22.000Z</time>
      </trkpt>
      <trkpt lat="4.81324452906847" lon="-75.68838221020997">
        <ele>1422.4</ele>
        <time>2021-04-30T23:20:23.000Z</time>
      </trkpt>
      <trkpt lat="4.8132918030023575" lon="-75.68837231956422">
        <ele>1422.8</ele>
        <time>2021-04-30T23:20:31.000Z</time>
      </trkpt>
      <trkpt lat="4.813311751931906" lon="-75.68837642669678">
        <ele>1422.8</ele>
        <time>2021-04-30T23:20:35.000Z</time>
      </trkpt>
      <trkpt lat="4.813325833529234" lon="-75.68838053382933">
        <ele>1422.8</ele>
        <time>2021-04-30T23:20:37.000Z</time>
      </trkpt>
      <trkpt lat="4.813338993117213" lon="-75.68838036619127">
        <ele>1422.8</ele>
        <time>2021-04-30T23:20:39.000Z</time>
      </trkpt>
      <trkpt lat="4.813343854621053" lon="-75.68837910890579">
        <ele>1422.8</ele>
        <time>2021-04-30T23:20:40.000Z</time>
      </trkpt>
      <trkpt lat="4.81337696313858" lon="-75.68837684579194">
        <ele>1423</ele>
        <time>2021-04-30T23:20:44.000Z</time>
      </trkpt>
      <trkpt lat="4.813407473266125" lon="-75.68838011473417">
        <ele>1423</ele>
        <time>2021-04-30T23:20:47.000Z</time>
      </trkpt>
      <trkpt lat="4.813452400267124" lon="-75.68837240338326">
        <ele>1422.8</ele>
        <time>2021-04-30T23:20:52.000Z</time>
      </trkpt>
      <trkpt lat="4.813546948134899" lon="-75.68835991434753">
        <ele>1422.2</ele>
        <time>2021-04-30T23:21:00.000Z</time>
      </trkpt>
      <trkpt lat="4.813572680577636" lon="-75.68836368620396">
        <ele>1422</ele>
        <time>2021-04-30T23:21:07.000Z</time>
      </trkpt>
      <trkpt lat="4.813580643385649" lon="-75.68837181665003">
        <ele>1422</ele>
        <time>2021-04-30T23:21:08.000Z</time>
      </trkpt>
      <trkpt lat="4.813594724982977" lon="-75.68835865706205">
        <ele>1422</ele>
        <time>2021-04-30T23:21:11.000Z</time>
      </trkpt>
      <trkpt lat="4.8135963175445795" lon="-75.6883511133492">
        <ele>1422</ele>
        <time>2021-04-30T23:21:12.000Z</time>
      </trkpt>
      <trkpt lat="4.813627079129219" lon="-75.68835714831948">
        <ele>1421.8</ele>
        <time>2021-04-30T23:21:15.000Z</time>
      </trkpt>
      <trkpt lat="4.813682232052088" lon="-75.68836108781397">
        <ele>1421.2</ele>
        <time>2021-04-30T23:21:21.000Z</time>
      </trkpt>
      <trkpt lat="4.8137108981609344" lon="-75.68835664540529">
        <ele>1421</ele>
        <time>2021-04-30T23:21:24.000Z</time>
      </trkpt>
      <trkpt lat="4.813725231215358" lon="-75.68835631012917">
        <ele>1420.6</ele>
        <time>2021-04-30T23:21:31.000Z</time>
      </trkpt>
      <trkpt lat="4.8137435875833035" lon="-75.68835522048175">
        <ele>1420.4</ele>
        <time>2021-04-30T23:21:34.000Z</time>
      </trkpt>
      <trkpt lat="4.813772840425372" lon="-75.68834700621665">
        <ele>1420</ele>
        <time>2021-04-30T23:21:37.000Z</time>
      </trkpt>
      <trkpt lat="4.813830591738224" lon="-75.68834432400763">
        <ele>1419</ele>
        <time>2021-04-30T23:21:43.000Z</time>
      </trkpt>
      <trkpt lat="4.813839476555586" lon="-75.68834365345538">
        <ele>1419</ele>
        <time>2021-04-30T23:21:45.000Z</time>
      </trkpt>
      <trkpt lat="4.81387484818697" lon="-75.68833091296256">
        <ele>1418.4</ele>
        <time>2021-04-30T23:21:51.000Z</time>
      </trkpt>
      <trkpt lat="4.813902089372277" lon="-75.68831641227007">
        <ele>1418</ele>
        <time>2021-04-30T23:21:55.000Z</time>
      </trkpt>
      <trkpt lat="4.813923630863428" lon="-75.68831884302199">
        <ele>1417.8</ele>
        <time>2021-04-30T23:22:01.000Z</time>
      </trkpt>
      <trkpt lat="4.813936790451407" lon="-75.68831792101264">
        <ele>1417.6</ele>
        <time>2021-04-30T23:22:05.000Z</time>
      </trkpt>
      <trkpt lat="4.813947770744562" lon="-75.68832035176456">
        <ele>1417.4</ele>
        <time>2021-04-30T23:22:11.000Z</time>
      </trkpt>
      <trkpt lat="4.813962858170271" lon="-75.6883376184851">
        <ele>1417.2</ele>
        <time>2021-04-30T23:22:16.000Z</time>
      </trkpt>
      <trkpt lat="4.813974006101489" lon="-75.68833661265671">
        <ele>1417</ele>
        <time>2021-04-30T23:22:19.000Z</time>
      </trkpt>
      <trkpt lat="4.8139579128474" lon="-75.68835731595755">
        <ele>1417.2</ele>
        <time>2021-04-30T23:22:27.000Z</time>
      </trkpt>
      <trkpt lat="4.813973419368267" lon="-75.68838774226606">
        <ele>1417</ele>
        <time>2021-04-30T23:22:32.000Z</time>
      </trkpt>
      <trkpt lat="4.813980460166931" lon="-75.68839436396956">
        <ele>1417</ele>
        <time>2021-04-30T23:22:33.000Z</time>
      </trkpt>
      <trkpt lat="4.813983645290136" lon="-75.688416659832">
        <ele>1416.8</ele>
        <time>2021-04-30T23:22:35.000Z</time>
      </trkpt>
      <trkpt lat="4.813980543985963" lon="-75.68844364956021">
        <ele>1416.8</ele>
        <time>2021-04-30T23:22:37.000Z</time>
      </trkpt>
      <trkpt lat="4.813973335549235" lon="-75.68845798261464">
        <ele>1416.8</ele>
        <time>2021-04-30T23:22:38.000Z</time>
      </trkpt>
      <trkpt lat="4.813969815149903" lon="-75.68849905394018">
        <ele>1416.6</ele>
        <time>2021-04-30T23:22:41.000Z</time>
      </trkpt>
      <trkpt lat="4.813976436853409" lon="-75.68851967342198">
        <ele>1416.6</ele>
        <time>2021-04-30T23:22:45.000Z</time>
      </trkpt>
      <trkpt lat="4.8139880038797855" lon="-75.6885429751128">
        <ele>1416.4</ele>
        <time>2021-04-30T23:22:50.000Z</time>
      </trkpt>
      <trkpt lat="4.81398431584239" lon="-75.6885326653719">
        <ele>1416.4</ele>
        <time>2021-04-30T23:22:55.000Z</time>
      </trkpt>
      <trkpt lat="4.813980208709836" lon="-75.68853023461998">
        <ele>1416.4</ele>
        <time>2021-04-30T23:23:00.000Z</time>
      </trkpt>
      <trkpt lat="4.813980208709836" lon="-75.68853023461998">
        <ele>1416.4</ele>
        <time>2021-04-30T23:23:07.000Z</time>
      </trkpt>
      <trkpt lat="4.813980208709836" lon="-75.68853073753417">
        <ele>1416.4</ele>
        <time>2021-04-30T23:23:12.000Z</time>
      </trkpt>
      <trkpt lat="4.814000744372606" lon="-75.68853467702866">
        <ele>1416.2</ele>
        <time>2021-04-30T23:23:45.000Z</time>
      </trkpt>
      <trkpt lat="4.814003761857748" lon="-75.68853442557156">
        <ele>1416.2</ele>
        <time>2021-04-30T23:23:51.000Z</time>
      </trkpt>
      <trkpt lat="4.814003761857748" lon="-75.68853442557156">
        <ele>1416.2</ele>
        <time>2021-04-30T23:23:56.000Z</time>
      </trkpt>
      <trkpt lat="4.814004180952907" lon="-75.6885292287916">
        <ele>1416.2</ele>
        <time>2021-04-30T23:24:02.000Z</time>
      </trkpt>
      <trkpt lat="4.814012898132205" lon="-75.68846208974719">
        <ele>1416.4</ele>
        <time>2021-04-30T23:24:40.000Z</time>
      </trkpt>
      <trkpt lat="4.814002839848399" lon="-75.68837349303067">
        <ele>1416.8</ele>
        <time>2021-04-30T23:24:49.000Z</time>
      </trkpt>
      <trkpt lat="4.814008371904492" lon="-75.68836377002299">
        <ele>1416.8</ele>
        <time>2021-04-30T23:24:51.000Z</time>
      </trkpt>
      <trkpt lat="4.814012395218015" lon="-75.68835094571114">
        <ele>1416.8</ele>
        <time>2021-04-30T23:24:55.000Z</time>
      </trkpt>
      <trkpt lat="4.814014071598649" lon="-75.6883460842073">
        <ele>1416.8</ele>
        <time>2021-04-30T23:24:59.000Z</time>
      </trkpt>
      <trkpt lat="4.814009042456746" lon="-75.68834180943668">
        <ele>1416.8</ele>
        <time>2021-04-30T23:25:02.000Z</time>
      </trkpt>
      <trkpt lat="4.814001163467765" lon="-75.68834130652249">
        <ele>1416.8</ele>
        <time>2021-04-30T23:25:06.000Z</time>
      </trkpt>
      <trkpt lat="4.813971491530538" lon="-75.68835748359561">
        <ele>1417</ele>
        <time>2021-04-30T23:25:13.000Z</time>
      </trkpt>
      <trkpt lat="4.813971491530538" lon="-75.68835748359561">
        <ele>1417</ele>
        <time>2021-04-30T23:25:14.000Z</time>
      </trkpt>
      <trkpt lat="4.813971491530538" lon="-75.68835748359561">
        <ele>1417</ele>
        <time>2021-04-30T23:25:16.000Z</time>
      </trkpt>
      <trkpt lat="4.813971491530538" lon="-75.68835681304336">
        <ele>1417</ele>
        <time>2021-04-30T23:25:21.000Z</time>
      </trkpt>
      <trkpt lat="4.813971491530538" lon="-75.68835161626339">
        <ele>1417</ele>
        <time>2021-04-30T23:25:25.000Z</time>
      </trkpt>
      <trkpt lat="4.813971491530538" lon="-75.68835094571114">
        <ele>1417</ele>
        <time>2021-04-30T23:25:28.000Z</time>
      </trkpt>
      <trkpt lat="4.813958583399653" lon="-75.68834139034152">
        <ele>1417.2</ele>
        <time>2021-04-30T23:25:46.000Z</time>
      </trkpt>
      <trkpt lat="4.813958667218685" lon="-75.68833996541798">
        <ele>1417.2</ele>
        <time>2021-04-30T23:25:50.000Z</time>
      </trkpt>
      <trkpt lat="4.81396428309381" lon="-75.68833996541798">
        <ele>1417.2</ele>
        <time>2021-04-30T23:26:03.000Z</time>
      </trkpt>
      <trkpt lat="4.813984651118517" lon="-75.6883045937866">
        <ele>1417</ele>
        <time>2021-04-30T23:26:46.000Z</time>
      </trkpt>
      <trkpt lat="4.814007030799985" lon="-75.68828288465738">
        <ele>1416.8</ele>
        <time>2021-04-30T23:26:55.000Z</time>
      </trkpt>
      <trkpt lat="4.8140154127031565" lon="-75.68826092407107">
        <ele>1416.8</ele>
        <time>2021-04-30T23:27:08.000Z</time>
      </trkpt>
      <trkpt lat="4.814006360247731" lon="-75.68832127377391">
        <ele>1416.8</ele>
        <time>2021-04-30T23:27:41.000Z</time>
      </trkpt>
      <trkpt lat="4.814001331105828" lon="-75.68838883191347">
        <ele>1416.8</ele>
        <time>2021-04-30T23:27:45.000Z</time>
      </trkpt>
      <trkpt lat="4.814000157639384" lon="-75.68841892294586">
        <ele>1416.6</ele>
        <time>2021-04-30T23:27:47.000Z</time>
      </trkpt>
      <trkpt lat="4.81400434859097" lon="-75.68843962624669">
        <ele>1416.6</ele>
        <time>2021-04-30T23:27:49.000Z</time>
      </trkpt>
      <trkpt lat="4.814012227579951" lon="-75.68847441114485">
        <ele>1416.2</ele>
        <time>2021-04-30T23:27:52.000Z</time>
      </trkpt>
      <trkpt lat="4.814008958637714" lon="-75.68849343806505">
        <ele>1416.2</ele>
        <time>2021-04-30T23:27:54.000Z</time>
      </trkpt>
      <trkpt lat="4.814011305570602" lon="-75.68851623684168">
        <ele>1416.2</ele>
        <time>2021-04-30T23:27:56.000Z</time>
      </trkpt>
      <trkpt lat="4.814012898132205" lon="-75.6885340064764">
        <ele>1416</ele>
        <time>2021-04-30T23:27:58.000Z</time>
      </trkpt>
      <trkpt lat="4.814003678038716" lon="-75.6885530333966">
        <ele>1416</ele>
        <time>2021-04-30T23:28:01.000Z</time>
      </trkpt>
      <trkpt lat="4.8140183463692665" lon="-75.6886117067188">
        <ele>1415.8</ele>
        <time>2021-04-30T23:28:07.000Z</time>
      </trkpt>
      <trkpt lat="4.81402681209147" lon="-75.6886328291148">
        <ele>1415.6</ele>
        <time>2021-04-30T23:28:13.000Z</time>
      </trkpt>
      <trkpt lat="4.814020525664091" lon="-75.68864171393216">
        <ele>1415.6</ele>
        <time>2021-04-30T23:28:21.000Z</time>
      </trkpt>
      <trkpt lat="4.814019268378615" lon="-75.6886460725218">
        <ele>1415.6</ele>
        <time>2021-04-30T23:28:28.000Z</time>
      </trkpt>
      <trkpt lat="4.814020022749901" lon="-75.68862746469676">
        <ele>1415.6</ele>
        <time>2021-04-30T23:28:35.000Z</time>
      </trkpt>
      <trkpt lat="4.813995715230703" lon="-75.68863475695252">
        <ele>1415.8</ele>
        <time>2021-04-30T23:28:38.000Z</time>
      </trkpt>
      <trkpt lat="4.81398968026042" lon="-75.68864012137055">
        <ele>1416</ele>
        <time>2021-04-30T23:28:39.000Z</time>
      </trkpt>
      <trkpt lat="4.813986159861088" lon="-75.68865956738591">
        <ele>1416</ele>
        <time>2021-04-30T23:28:46.000Z</time>
      </trkpt>
      <trkpt lat="4.813986159861088" lon="-75.68865420296788">
        <ele>1416</ele>
        <time>2021-04-30T23:28:56.000Z</time>
      </trkpt>
      <trkpt lat="4.814014406874776" lon="-75.68863777443767">
        <ele>1415.6</ele>
        <time>2021-04-30T23:29:08.000Z</time>
      </trkpt>
      <trkpt lat="4.814022285863757" lon="-75.68864163011312">
        <ele>1415.6</ele>
        <time>2021-04-30T23:29:16.000Z</time>
      </trkpt>
      <trkpt lat="4.814022453501821" lon="-75.68868295289576">
        <ele>1415.6</ele>
        <time>2021-04-30T23:29:19.000Z</time>
      </trkpt>
      <trkpt lat="4.814037038013339" lon="-75.68876911886036">
        <ele>1415.8</ele>
        <time>2021-04-30T23:29:25.000Z</time>
      </trkpt>
      <trkpt lat="4.814042821526527" lon="-75.68885972723365">
        <ele>1416</ele>
        <time>2021-04-30T23:29:34.000Z</time>
      </trkpt>
      <trkpt lat="4.814045084640384" lon="-75.68887053988874">
        <ele>1416</ele>
        <time>2021-04-30T23:29:35.000Z</time>
      </trkpt>
      <trkpt lat="4.814044497907162" lon="-75.68891680799425">
        <ele>1416.2</ele>
        <time>2021-04-30T23:29:41.000Z</time>
      </trkpt>
      <trkpt lat="4.814049191772938" lon="-75.68892653100193">
        <ele>1416.2</ele>
        <time>2021-04-30T23:29:42.000Z</time>
      </trkpt>
      <trkpt lat="4.814044246450067" lon="-75.6889568734914">
        <ele>1416.4</ele>
        <time>2021-04-30T23:29:45.000Z</time>
      </trkpt>
      <trkpt lat="4.814063441008329" lon="-75.68900255486369">
        <ele>1416.2</ele>
        <time>2021-04-30T23:29:50.000Z</time>
      </trkpt>
      <trkpt lat="4.814078696072102" lon="-75.68905460648239">
        <ele>1416.2</ele>
        <time>2021-04-30T23:29:57.000Z</time>
      </trkpt>
      <trkpt lat="4.814076097682118" lon="-75.68911520764232">
        <ele>1416.6</ele>
        <time>2021-04-30T23:30:05.000Z</time>
      </trkpt>
      <trkpt lat="4.8140819650143385" lon="-75.68914135918021">
        <ele>1416.6</ele>
        <time>2021-04-30T23:30:08.000Z</time>
      </trkpt>
      <trkpt lat="4.814106523990631" lon="-75.6891624815762">
        <ele>1416.4</ele>
        <time>2021-04-30T23:30:12.000Z</time>
      </trkpt>
      <trkpt lat="4.8141341004520655" lon="-75.68917312659323">
        <ele>1416.2</ele>
        <time>2021-04-30T23:30:18.000Z</time>
      </trkpt>
      <trkpt lat="4.814151870086789" lon="-75.68917932920158">
        <ele>1416</ele>
        <time>2021-04-30T23:30:24.000Z</time>
      </trkpt>
      <trkpt lat="4.814159162342548" lon="-75.68916834890842">
        <ele>1415.8</ele>
        <time>2021-04-30T23:30:28.000Z</time>
      </trkpt>
      <trkpt lat="4.814145918935537" lon="-75.68915862590075">
        <ele>1416</ele>
        <time>2021-04-30T23:30:31.000Z</time>
      </trkpt>
      <trkpt lat="4.814135441556573" lon="-75.68918125703931">
        <ele>1416.2</ele>
        <time>2021-04-30T23:30:38.000Z</time>
      </trkpt>
      <trkpt lat="4.814117420464754" lon="-75.68922316655517">
        <ele>1416.4</ele>
        <time>2021-04-30T23:30:44.000Z</time>
      </trkpt>
      <trkpt lat="4.814114989712834" lon="-75.68923498503864">
        <ele>1416.6</ele>
        <time>2021-04-30T23:30:45.000Z</time>
      </trkpt>
      <trkpt lat="4.814106523990631" lon="-75.68928971886635">
        <ele>1416.6</ele>
        <time>2021-04-30T23:30:50.000Z</time>
      </trkpt>
      <trkpt lat="4.814110128208995" lon="-75.68929684348404">
        <ele>1416.6</ele>
        <time>2021-04-30T23:30:51.000Z</time>
      </trkpt>
      <trkpt lat="4.814109625294805" lon="-75.68930430337787">
        <ele>1416.6</ele>
        <time>2021-04-30T23:30:52.000Z</time>
      </trkpt>
      <trkpt lat="4.814114235341549" lon="-75.68932592868805">
        <ele>1416.6</ele>
        <time>2021-04-30T23:30:54.000Z</time>
      </trkpt>
      <trkpt lat="4.814120354130864" lon="-75.68935199640691">
        <ele>1416.4</ele>
        <time>2021-04-30T23:30:57.000Z</time>
      </trkpt>
      <trkpt lat="4.814124461263418" lon="-75.68937471136451">
        <ele>1416.6</ele>
        <time>2021-04-30T23:30:59.000Z</time>
      </trkpt>
      <trkpt lat="4.814139883965254" lon="-75.68941921927035">
        <ele>1416.8</ele>
        <time>2021-04-30T23:31:04.000Z</time>
      </trkpt>
      <trkpt lat="4.814151618629694" lon="-75.6894767191261">
        <ele>1417.2</ele>
        <time>2021-04-30T23:31:10.000Z</time>
      </trkpt>
      <trkpt lat="4.814150193706155" lon="-75.6894978415221">
        <ele>1417.4</ele>
        <time>2021-04-30T23:31:12.000Z</time>
      </trkpt>
      <trkpt lat="4.8141605872660875" lon="-75.68959180265665">
        <ele>1418</ele>
        <time>2021-04-30T23:31:22.000Z</time>
      </trkpt>
      <trkpt lat="4.814165951684117" lon="-75.68959892727435">
        <ele>1418</ele>
        <time>2021-04-30T23:31:23.000Z</time>
      </trkpt>
      <trkpt lat="4.814153127372265" lon="-75.68966128863394">
        <ele>1418.4</ele>
        <time>2021-04-30T23:31:30.000Z</time>
      </trkpt>
      <trkpt lat="4.814164862036705" lon="-75.68970328196883">
        <ele>1418.4</ele>
        <time>2021-04-30T23:31:35.000Z</time>
      </trkpt>
      <trkpt lat="4.8141770996153355" lon="-75.6897185370326">
        <ele>1418.4</ele>
        <time>2021-04-30T23:31:37.000Z</time>
      </trkpt>
      <trkpt lat="4.814185900613666" lon="-75.68974561057985">
        <ele>1418.4</ele>
        <time>2021-04-30T23:31:40.000Z</time>
      </trkpt>
      <trkpt lat="4.814184894785285" lon="-75.68976539187133">
        <ele>1418.4</ele>
        <time>2021-04-30T23:31:42.000Z</time>
      </trkpt>
      <trkpt lat="4.814183134585619" lon="-75.68980956450105">
        <ele>1418.6</ele>
        <time>2021-04-30T23:31:46.000Z</time>
      </trkpt>
      <trkpt lat="4.814173663035035" lon="-75.68983621895313">
        <ele>1418.6</ele>
        <time>2021-04-30T23:31:49.000Z</time>
      </trkpt>
      <trkpt lat="4.814180871471763" lon="-75.68985256366432">
        <ele>1418.6</ele>
        <time>2021-04-30T23:31:51.000Z</time>
      </trkpt>
      <trkpt lat="4.8141812067478895" lon="-75.68986404687166">
        <ele>1418.6</ele>
        <time>2021-04-30T23:31:52.000Z</time>
      </trkpt>
      <trkpt lat="4.814192438498139" lon="-75.68989950232208">
        <ele>1418.6</ele>
        <time>2021-04-30T23:31:56.000Z</time>
      </trkpt>
      <trkpt lat="4.814194366335869" lon="-75.689907213673">
        <ele>1418.6</ele>
        <time>2021-04-30T23:31:57.000Z</time>
      </trkpt>
      <trkpt lat="4.814202915877104" lon="-75.68992699496448">
        <ele>1418.8</ele>
        <time>2021-04-30T23:32:00.000Z</time>
      </trkpt>
      <trkpt lat="4.814212638884783" lon="-75.68992816843092">
        <ele>1418.8</ele>
        <time>2021-04-30T23:32:04.000Z</time>
      </trkpt>
      <trkpt lat="4.814211381599307" lon="-75.68992934189737">
        <ele>1418.8</ele>
        <time>2021-04-30T23:32:09.000Z</time>
      </trkpt>
      <trkpt lat="4.814209956675768" lon="-75.68993110209703">
        <ele>1418.8</ele>
        <time>2021-04-30T23:32:14.000Z</time>
      </trkpt>
      <trkpt lat="4.814202832058072" lon="-75.68993411958218">
        <ele>1418.8</ele>
        <time>2021-04-30T23:32:27.000Z</time>
      </trkpt>
      <trkpt lat="4.814160503447056" lon="-75.68995063193142">
        <ele>1419</ele>
        <time>2021-04-30T23:32:31.000Z</time>
      </trkpt>
      <trkpt lat="4.814107781276107" lon="-75.68996865302324">
        <ele>1419.2</ele>
        <time>2021-04-30T23:32:37.000Z</time>
      </trkpt>
      <trkpt lat="4.81404148042202" lon="-75.68998818285763">
        <ele>1419.6</ele>
        <time>2021-04-30T23:32:44.000Z</time>
      </trkpt>
      <trkpt lat="4.813959337770939" lon="-75.69000234827399">
        <ele>1420</ele>
        <time>2021-04-30T23:32:53.000Z</time>
      </trkpt>
      <trkpt lat="4.813843918964267" lon="-75.69002950564027">
        <ele>1420</ele>
        <time>2021-04-30T23:33:05.000Z</time>
      </trkpt>
      <trkpt lat="4.813768565654755" lon="-75.69003218784928">
        <ele>1420</ele>
        <time>2021-04-30T23:33:13.000Z</time>
      </trkpt>
      <trkpt lat="4.813655158504844" lon="-75.69003554061055">
        <ele>1419.6</ele>
        <time>2021-04-30T23:33:26.000Z</time>
      </trkpt>
      <trkpt lat="4.813570668920875" lon="-75.69005104713142">
        <ele>1419</ele>
        <time>2021-04-30T23:33:36.000Z</time>
      </trkpt>
      <trkpt lat="4.813496740534902" lon="-75.69004819728434">
        <ele>1418.6</ele>
        <time>2021-04-30T23:33:45.000Z</time>
      </trkpt>
      <trkpt lat="4.813438821583986" lon="-75.6900742650032">
        <ele>1418.2</ele>
        <time>2021-04-30T23:33:53.000Z</time>
      </trkpt>
      <trkpt lat="4.813435385003686" lon="-75.69008206017315">
        <ele>1418.4</ele>
        <time>2021-04-30T23:34:00.000Z</time>
      </trkpt>
      <trkpt lat="4.813398504629731" lon="-75.69004618562758">
        <ele>1418</ele>
        <time>2021-04-30T23:34:11.000Z</time>
      </trkpt>
      <trkpt lat="4.813391966745257" lon="-75.69008901715279">
        <ele>1418.2</ele>
        <time>2021-04-30T23:34:17.000Z</time>
      </trkpt>
      <trkpt lat="4.813386602327228" lon="-75.69011910818517">
        <ele>1418.4</ele>
        <time>2021-04-30T23:34:23.000Z</time>
      </trkpt>
      <trkpt lat="4.813371850177646" lon="-75.69017015397549">
        <ele>1418.6</ele>
        <time>2021-04-30T23:34:30.000Z</time>
      </trkpt>
      <trkpt lat="4.81339112855494" lon="-75.69022044539452">
        <ele>1419.2</ele>
        <time>2021-04-30T23:34:35.000Z</time>
      </trkpt>
      <trkpt lat="4.813401438295841" lon="-75.69023989140987">
        <ele>1419.2</ele>
        <time>2021-04-30T23:34:37.000Z</time>
      </trkpt>
      <trkpt lat="4.813414933159947" lon="-75.69032211787999">
        <ele>1420</ele>
        <time>2021-04-30T23:34:45.000Z</time>
      </trkpt>
      <trkpt lat="4.813418621197343" lon="-75.69037794135511">
        <ele>1420.6</ele>
        <time>2021-04-30T23:34:50.000Z</time>
      </trkpt>
      <trkpt lat="4.813418369740248" lon="-75.6904059369117">
        <ele>1420.8</ele>
        <time>2021-04-30T23:34:53.000Z</time>
      </trkpt>
      <trkpt lat="4.813416693359613" lon="-75.69043510593474">
        <ele>1421.2</ele>
        <time>2021-04-30T23:34:56.000Z</time>
      </trkpt>
      <trkpt lat="4.8134225606918335" lon="-75.69045463576913">
        <ele>1421.4</ele>
        <time>2021-04-30T23:34:58.000Z</time>
      </trkpt>
      <trkpt lat="4.813425410538912" lon="-75.69046209566295">
        <ele>1421.4</ele>
        <time>2021-04-30T23:34:59.000Z</time>
      </trkpt>
      <trkpt lat="4.813423315063119" lon="-75.69054792635143">
        <ele>1422.4</ele>
        <time>2021-04-30T23:35:07.000Z</time>
      </trkpt>
      <trkpt lat="4.8134254943579435" lon="-75.69058631546795">
        <ele>1422.8</ele>
        <time>2021-04-30T23:35:10.000Z</time>
      </trkpt>
      <trkpt lat="4.8134322836995125" lon="-75.69060928188264">
        <ele>1423</ele>
        <time>2021-04-30T23:35:13.000Z</time>
      </trkpt>
      <trkpt lat="4.813435468822718" lon="-75.6906374450773">
        <ele>1422.6</ele>
        <time>2021-04-30T23:35:15.000Z</time>
      </trkpt>
      <trkpt lat="4.813449466601014" lon="-75.69066803902388">
        <ele>1422.4</ele>
        <time>2021-04-30T23:35:18.000Z</time>
      </trkpt>
      <trkpt lat="4.8134449403733015" lon="-75.69067792966962">
        <ele>1422.4</ele>
        <time>2021-04-30T23:35:19.000Z</time>
      </trkpt>
      <trkpt lat="4.813424237072468" lon="-75.69072880782187">
        <ele>1422.2</ele>
        <time>2021-04-30T23:35:26.000Z</time>
      </trkpt>
      <trkpt lat="4.813428176566958" lon="-75.69083190523088">
        <ele>1421.4</ele>
        <time>2021-04-30T23:35:34.000Z</time>
      </trkpt>
      <trkpt lat="4.813438570126891" lon="-75.6909175682813">
        <ele>1420.8</ele>
        <time>2021-04-30T23:35:41.000Z</time>
      </trkpt>
      <trkpt lat="4.813451059162617" lon="-75.69093726575375">
        <ele>1420.6</ele>
        <time>2021-04-30T23:35:43.000Z</time>
      </trkpt>
      <trkpt lat="4.813455920666456" lon="-75.69097163155675">
        <ele>1420.4</ele>
        <time>2021-04-30T23:35:47.000Z</time>
      </trkpt>
      <trkpt lat="4.813449718058109" lon="-75.69098026491702">
        <ele>1420.4</ele>
        <time>2021-04-30T23:35:48.000Z</time>
      </trkpt>
      <trkpt lat="4.813438318669796" lon="-75.69101429544389">
        <ele>1420</ele>
        <time>2021-04-30T23:35:50.000Z</time>
      </trkpt>
      <trkpt lat="4.813437480479479" lon="-75.69102167151868">
        <ele>1420</ele>
        <time>2021-04-30T23:35:52.000Z</time>
      </trkpt>
      <trkpt lat="4.813436726108193" lon="-75.69102711975574">
        <ele>1420</ele>
        <time>2021-04-30T23:35:53.000Z</time>
      </trkpt>
      <trkpt lat="4.813442761078477" lon="-75.69107322022319">
        <ele>1419.6</ele>
        <time>2021-04-30T23:35:58.000Z</time>
      </trkpt>
      <trkpt lat="4.813458351418376" lon="-75.69111906923354">
        <ele>1419.4</ele>
        <time>2021-04-30T23:36:03.000Z</time>
      </trkpt>
      <trkpt lat="4.813445191830397" lon="-75.69114664569497">
        <ele>1419.2</ele>
        <time>2021-04-30T23:36:05.000Z</time>
      </trkpt>
      <trkpt lat="4.8134467005729675" lon="-75.69118528626859">
        <ele>1419</ele>
        <time>2021-04-30T23:36:08.000Z</time>
      </trkpt>
      <trkpt lat="4.813457680866122" lon="-75.69123666733503">
        <ele>1419.2</ele>
        <time>2021-04-30T23:36:12.000Z</time>
      </trkpt>
      <trkpt lat="4.81344242580235" lon="-75.69127539172769">
        <ele>1419</ele>
        <time>2021-04-30T23:36:17.000Z</time>
      </trkpt>
      <trkpt lat="4.813427170738578" lon="-75.69137253798544">
        <ele>1419</ele>
        <time>2021-04-30T23:36:24.000Z</time>
      </trkpt>
      <trkpt lat="4.81344192288816" lon="-75.69144998677075">
        <ele>1419</ele>
        <time>2021-04-30T23:36:31.000Z</time>
      </trkpt>
      <trkpt lat="4.813443850725889" lon="-75.6914712768048">
        <ele>1419.2</ele>
        <time>2021-04-30T23:36:33.000Z</time>
      </trkpt>
      <trkpt lat="4.81344879604876" lon="-75.69155786186457">
        <ele>1419.8</ele>
        <time>2021-04-30T23:36:39.000Z</time>
      </trkpt>
      <trkpt lat="4.813460279256105" lon="-75.69160991348326">
        <ele>1420.2</ele>
        <time>2021-04-30T23:36:43.000Z</time>
      </trkpt>
      <trkpt lat="4.813500344753265" lon="-75.69167143665254">
        <ele>1420.4</ele>
        <time>2021-04-30T23:36:49.000Z</time>
      </trkpt>
      <trkpt lat="4.813506882637739" lon="-75.69168266840279">
        <ele>1420.2</ele>
        <time>2021-04-30T23:36:50.000Z</time>
      </trkpt>
      <trkpt lat="4.813536303117871" lon="-75.69178367033601">
        <ele>1419.6</ele>
        <time>2021-04-30T23:36:59.000Z</time>
      </trkpt>
      <trkpt lat="4.813556671142578" lon="-75.69187830202281">
        <ele>1419</ele>
        <time>2021-04-30T23:37:08.000Z</time>
      </trkpt>
      <trkpt lat="4.8135527316480875" lon="-75.69189632311463">
        <ele>1419</ele>
        <time>2021-04-30T23:37:09.000Z</time>
      </trkpt>
      <trkpt lat="4.8135601077228785" lon="-75.69191325455904">
        <ele>1419</ele>
        <time>2021-04-30T23:37:11.000Z</time>
      </trkpt>
      <trkpt lat="4.813546696677804" lon="-75.69193479605019">
        <ele>1419</ele>
        <time>2021-04-30T23:37:13.000Z</time>
      </trkpt>
      <trkpt lat="4.813546696677804" lon="-75.69195382297039">
        <ele>1419</ele>
        <time>2021-04-30T23:37:15.000Z</time>
      </trkpt>
      <trkpt lat="4.813555832952261" lon="-75.6920140888542">
        <ele>1419</ele>
        <time>2021-04-30T23:37:20.000Z</time>
      </trkpt>
      <trkpt lat="4.813555246219039" lon="-75.69207452237606">
        <ele>1418.8</ele>
        <time>2021-04-30T23:37:26.000Z</time>
      </trkpt>
      <trkpt lat="4.8135562520474195" lon="-75.69210771471262">
        <ele>1418.6</ele>
        <time>2021-04-30T23:37:29.000Z</time>
      </trkpt>
      <trkpt lat="4.813559856265783" lon="-75.6921187788248">
        <ele>1418.6</ele>
        <time>2021-04-30T23:37:30.000Z</time>
      </trkpt>
      <trkpt lat="4.8135665617883205" lon="-75.69213445298374">
        <ele>1418.4</ele>
        <time>2021-04-30T23:37:32.000Z</time>
      </trkpt>
      <trkpt lat="4.813568238168955" lon="-75.69216831587255">
        <ele>1418.4</ele>
        <time>2021-04-30T23:37:34.000Z</time>
      </trkpt>
      <trkpt lat="4.813563209027052" lon="-75.6922643724829">
        <ele>1418.4</ele>
        <time>2021-04-30T23:37:41.000Z</time>
      </trkpt>
      <trkpt lat="4.813568238168955" lon="-75.69227736443281">
        <ele>1418.4</ele>
        <time>2021-04-30T23:37:42.000Z</time>
      </trkpt>
      <trkpt lat="4.813577206805348" lon="-75.69231340661645">
        <ele>1418.2</ele>
        <time>2021-04-30T23:37:46.000Z</time>
      </trkpt>
      <trkpt lat="4.813577206805348" lon="-75.6923346966505">
        <ele>1418.2</ele>
        <time>2021-04-30T23:37:48.000Z</time>
      </trkpt>
      <trkpt lat="4.813568573445082" lon="-75.69238943047822">
        <ele>1418</ele>
        <time>2021-04-30T23:37:53.000Z</time>
      </trkpt>
      <trkpt lat="4.813581481575966" lon="-75.69247375242412">
        <ele>1418</ele>
        <time>2021-04-30T23:38:00.000Z</time>
      </trkpt>
      <trkpt lat="4.813580140471458" lon="-75.69248389452696">
        <ele>1418</ele>
        <time>2021-04-30T23:38:01.000Z</time>
      </trkpt>
      <trkpt lat="4.813602855429053" lon="-75.69256050512195">
        <ele>1418</ele>
        <time>2021-04-30T23:38:08.000Z</time>
      </trkpt>
      <trkpt lat="4.813613668084145" lon="-75.69258741103113">
        <ele>1418</ele>
        <time>2021-04-30T23:38:11.000Z</time>
      </trkpt>
      <trkpt lat="4.813623139634728" lon="-75.69261414930224">
        <ele>1418</ele>
        <time>2021-04-30T23:38:14.000Z</time>
      </trkpt>
      <trkpt lat="4.813644429668784" lon="-75.69268019869924">
        <ele>1418.2</ele>
        <time>2021-04-30T23:38:21.000Z</time>
      </trkpt>
      <trkpt lat="4.813655242323875" lon="-75.6927152350545">
        <ele>1418.4</ele>
        <time>2021-04-30T23:38:25.000Z</time>
      </trkpt>
      <trkpt lat="4.813657253980637" lon="-75.69273778237402">
        <ele>1418.6</ele>
        <time>2021-04-30T23:38:27.000Z</time>
      </trkpt>
      <trkpt lat="4.81366278603673" lon="-75.69284222088754">
        <ele>1418.8</ele>
        <time>2021-04-30T23:38:36.000Z</time>
      </trkpt>
      <trkpt lat="4.813668066635728" lon="-75.6929235253483">
        <ele>1419.2</ele>
        <time>2021-04-30T23:38:43.000Z</time>
      </trkpt>
      <trkpt lat="4.813676197081804" lon="-75.69294674322009">
        <ele>1419.2</ele>
        <time>2021-04-30T23:38:45.000Z</time>
      </trkpt>
      <trkpt lat="4.8136634565889835" lon="-75.69304162636399">
        <ele>1419.6</ele>
        <time>2021-04-30T23:38:50.000Z</time>
      </trkpt>
      <trkpt lat="4.813656331971288" lon="-75.693134162575">
        <ele>1419.6</ele>
        <time>2021-04-30T23:38:58.000Z</time>
      </trkpt>
      <trkpt lat="4.8136611096560955" lon="-75.69316894747317">
        <ele>1419.8</ele>
        <time>2021-04-30T23:39:01.000Z</time>
      </trkpt>
      <trkpt lat="4.813659517094493" lon="-75.69319266825914">
        <ele>1419.8</ele>
        <time>2021-04-30T23:39:03.000Z</time>
      </trkpt>
      <trkpt lat="4.813663540408015" lon="-75.69320775568485">
        <ele>1419.8</ele>
        <time>2021-04-30T23:39:04.000Z</time>
      </trkpt>
      <trkpt lat="4.813665300607681" lon="-75.69322854280472">
        <ele>1419.8</ele>
        <time>2021-04-30T23:39:06.000Z</time>
      </trkpt>
      <trkpt lat="4.813666641712189" lon="-75.6932522635907">
        <ele>1419.8</ele>
        <time>2021-04-30T23:39:08.000Z</time>
      </trkpt>
      <trkpt lat="4.813663708046079" lon="-75.69326148368418">
        <ele>1419.8</ele>
        <time>2021-04-30T23:39:09.000Z</time>
      </trkpt>
      <trkpt lat="4.813643172383308" lon="-75.6932919099927">
        <ele>1419.6</ele>
        <time>2021-04-30T23:39:12.000Z</time>
      </trkpt>
      <trkpt lat="4.81363981962204" lon="-75.69330230355263">
        <ele>1419.6</ele>
        <time>2021-04-30T23:39:13.000Z</time>
      </trkpt>
      <trkpt lat="4.813672425225377" lon="-75.69337824359536">
        <ele>1419.8</ele>
        <time>2021-04-30T23:39:19.000Z</time>
      </trkpt>
      <trkpt lat="4.813678376376629" lon="-75.69343557581306">
        <ele>1420.2</ele>
        <time>2021-04-30T23:39:26.000Z</time>
      </trkpt>
      <trkpt lat="4.813681310042739" lon="-75.69346047006547">
        <ele>1420.4</ele>
        <time>2021-04-30T23:39:31.000Z</time>
      </trkpt>
      <trkpt lat="4.813702516257763" lon="-75.69354655221105">
        <ele>1421.2</ele>
        <time>2021-04-30T23:39:40.000Z</time>
      </trkpt>
      <trkpt lat="4.813740234822035" lon="-75.69364906288683">
        <ele>1422.4</ele>
        <time>2021-04-30T23:39:46.000Z</time>
      </trkpt>
      <trkpt lat="4.813748700544238" lon="-75.69366247393191">
        <ele>1422.8</ele>
        <time>2021-04-30T23:39:47.000Z</time>
      </trkpt>
      <trkpt lat="4.8137706611305475" lon="-75.69369826465845">
        <ele>1423.4</ele>
        <time>2021-04-30T23:39:52.000Z</time>
      </trkpt>
      <trkpt lat="4.813772086054087" lon="-75.69377210922539">
        <ele>1424.2</ele>
        <time>2021-04-30T23:39:58.000Z</time>
      </trkpt>
      <trkpt lat="4.813765631988645" lon="-75.69380630739033">
        <ele>1424.4</ele>
        <time>2021-04-30T23:40:01.000Z</time>
      </trkpt>
      <trkpt lat="4.813774349167943" lon="-75.69383773952723">
        <ele>1425</ele>
        <time>2021-04-30T23:40:04.000Z</time>
      </trkpt>
      <trkpt lat="4.813765631988645" lon="-75.69385743699968">
        <ele>1425</ele>
        <time>2021-04-30T23:40:06.000Z</time>
      </trkpt>
      <trkpt lat="4.8137706611305475" lon="-75.69391242228448">
        <ele>1425.8</ele>
        <time>2021-04-30T23:40:09.000Z</time>
      </trkpt>
      <trkpt lat="4.813791615888476" lon="-75.69393262267113">
        <ele>1426.6</ele>
        <time>2021-04-30T23:40:11.000Z</time>
      </trkpt>
      <trkpt lat="4.813790777698159" lon="-75.69397545419633">
        <ele>1427.2</ele>
        <time>2021-04-30T23:40:14.000Z</time>
      </trkpt>
      <trkpt lat="4.813777785748243" lon="-75.69407830014825">
        <ele>1428.4</ele>
        <time>2021-04-30T23:40:21.000Z</time>
      </trkpt>
      <trkpt lat="4.813777953386307" lon="-75.69408710114658">
        <ele>1428.6</ele>
        <time>2021-04-30T23:40:22.000Z</time>
      </trkpt>
      <trkpt lat="4.813792873173952" lon="-75.69412440061569">
        <ele>1429.4</ele>
        <time>2021-04-30T23:40:25.000Z</time>
      </trkpt>
      <trkpt lat="4.813803266733885" lon="-75.69415331818163">
        <ele>1429</ele>
        <time>2021-04-30T23:40:27.000Z</time>
      </trkpt>
      <trkpt lat="4.813802512362599" lon="-75.69416765123606">
        <ele>1428.8</ele>
        <time>2021-04-30T23:40:28.000Z</time>
      </trkpt>
      <trkpt lat="4.8138010036200285" lon="-75.69420545361936">
        <ele>1428.4</ele>
        <time>2021-04-30T23:40:32.000Z</time>
      </trkpt>
      <trkpt lat="4.813804272562265" lon="-75.69423445500433">
        <ele>1428</ele>
        <time>2021-04-30T23:40:34.000Z</time>
      </trkpt>
      <trkpt lat="4.81386168859899" lon="-75.69428348913789">
        <ele>1427.2</ele>
        <time>2021-04-30T23:40:40.000Z</time>
      </trkpt>
      <trkpt lat="4.813876021653414" lon="-75.69429430179298">
        <ele>1427</ele>
        <time>2021-04-30T23:40:42.000Z</time>
      </trkpt>
      <trkpt lat="4.813957829028368" lon="-75.69433093070984">
        <ele>1426</ele>
        <time>2021-04-30T23:40:49.000Z</time>
      </trkpt>
      <trkpt lat="4.813999151811004" lon="-75.69434090517461">
        <ele>1425.8</ele>
        <time>2021-04-30T23:40:52.000Z</time>
      </trkpt>
      <trkpt lat="4.814024129882455" lon="-75.69435792043805">
        <ele>1425.6</ele>
        <time>2021-04-30T23:40:55.000Z</time>
      </trkpt>
      <trkpt lat="4.81407081708312" lon="-75.69441994652152">
        <ele>1425.2</ele>
        <time>2021-04-30T23:41:01.000Z</time>
      </trkpt>
      <trkpt lat="4.814126472920179" lon="-75.69446043111384">
        <ele>1424.6</ele>
        <time>2021-04-30T23:41:08.000Z</time>
      </trkpt>
      <trkpt lat="4.814153043553233" lon="-75.69448004476726">
        <ele>1424.2</ele>
        <time>2021-04-30T23:41:11.000Z</time>
      </trkpt>
      <trkpt lat="4.814179362729192" lon="-75.69450317882001">
        <ele>1424</ele>
        <time>2021-04-30T23:41:14.000Z</time>
      </trkpt>
      <trkpt lat="4.814181961119175" lon="-75.69453913718462">
        <ele>1423.6</ele>
        <time>2021-04-30T23:41:20.000Z</time>
      </trkpt>
      <trkpt lat="4.814222864806652" lon="-75.69453729316592">
        <ele>1423.6</ele>
        <time>2021-04-30T23:41:25.000Z</time>
      </trkpt>
      <trkpt lat="4.814235772937536" lon="-75.69453435949981">
        <ele>1423.6</ele>
        <time>2021-04-30T23:41:26.000Z</time>
      </trkpt>
      <trkpt lat="4.814330991357565" lon="-75.69451885297894">
        <ele>1423.8</ele>
        <time>2021-04-30T23:41:34.000Z</time>
      </trkpt>
      <trkpt lat="4.814367201179266" lon="-75.69453536532819">
        <ele>1423.8</ele>
        <time>2021-04-30T23:41:37.000Z</time>
      </trkpt>
      <trkpt lat="4.814375163987279" lon="-75.69453368894756">
        <ele>1423.8</ele>
        <time>2021-04-30T23:41:40.000Z</time>
      </trkpt>
      <trkpt lat="4.8144065123051405" lon="-75.69453888572752">
        <ele>1423.8</ele>
        <time>2021-04-30T23:41:45.000Z</time>
      </trkpt>
      <trkpt lat="4.81440257281065" lon="-75.69454609416425">
        <ele>1423.6</ele>
        <time>2021-04-30T23:41:54.000Z</time>
      </trkpt>
      <trkpt lat="4.814398968592286" lon="-75.69455657154322">
        <ele>1423.6</ele>
        <time>2021-04-30T23:41:55.000Z</time>
      </trkpt>
      <trkpt lat="4.814399890601635" lon="-75.69460703060031">
        <ele>1423.2</ele>
        <time>2021-04-30T23:42:00.000Z</time>
      </trkpt>
      <trkpt lat="4.814427299425006" lon="-75.69466888904572">
        <ele>1423</ele>
        <time>2021-04-30T23:42:07.000Z</time>
      </trkpt>
      <trkpt lat="4.814433082938194" lon="-75.69467391818762">
        <ele>1423</ele>
        <time>2021-04-30T23:42:08.000Z</time>
      </trkpt>
      <trkpt lat="4.814421348273754" lon="-75.69470878690481">
        <ele>1422.8</ele>
        <time>2021-04-30T23:42:12.000Z</time>
      </trkpt>
      <trkpt lat="4.814430736005306" lon="-75.69475186988711">
        <ele>1422.8</ele>
        <time>2021-04-30T23:42:15.000Z</time>
      </trkpt>
      <trkpt lat="4.814473567530513" lon="-75.69476963952184">
        <ele>1422.8</ele>
        <time>2021-04-30T23:42:22.000Z</time>
      </trkpt>
      <trkpt lat="4.814473148435354" lon="-75.69476100616157">
        <ele>1422.8</ele>
        <time>2021-04-30T23:42:27.000Z</time>
      </trkpt>
      <trkpt lat="4.814480356872082" lon="-75.6947494391352">
        <ele>1423</ele>
        <time>2021-04-30T23:42:30.000Z</time>
      </trkpt>
      <trkpt lat="4.814477507025003" lon="-75.69475195370615">
        <ele>1422.8</ele>
        <time>2021-04-30T23:42:34.000Z</time>
      </trkpt>
      <trkpt lat="4.814477507025003" lon="-75.69475195370615">
        <ele>1422.8</ele>
        <time>2021-04-30T23:42:41.000Z</time>
      </trkpt>
      <trkpt lat="4.814474070444703" lon="-75.69475379772484">
        <ele>1422.8</ele>
        <time>2021-04-30T23:42:47.000Z</time>
      </trkpt>
      <trkpt lat="4.81447096914053" lon="-75.69476176053286">
        <ele>1422.8</ele>
        <time>2021-04-30T23:42:54.000Z</time>
      </trkpt>
      <trkpt lat="4.814463844522834" lon="-75.69476352073252">
        <ele>1422.8</ele>
        <time>2021-04-30T23:43:00.000Z</time>
      </trkpt>
      <trkpt lat="4.814446745440364" lon="-75.69477424956858">
        <ele>1422.8</ele>
        <time>2021-04-30T23:43:07.000Z</time>
      </trkpt>
      <trkpt lat="4.814440039917827" lon="-75.69477458484471">
        <ele>1422.6</ele>
        <time>2021-04-30T23:43:11.000Z</time>
      </trkpt>
      <trkpt lat="4.814412631094456" lon="-75.6947732437402">
        <ele>1422.6</ele>
        <time>2021-04-30T23:43:21.000Z</time>
      </trkpt>
      <trkpt lat="4.8143920954316854" lon="-75.69476653821766">
        <ele>1422.6</ele>
        <time>2021-04-30T23:43:24.000Z</time>
      </trkpt>
      <trkpt lat="4.814383294433355" lon="-75.69475748576224">
        <ele>1422.6</ele>
        <time>2021-04-30T23:43:26.000Z</time>
      </trkpt>
      <trkpt lat="4.814369296655059" lon="-75.69472261704504">
        <ele>1422.6</ele>
        <time>2021-04-30T23:43:29.000Z</time>
      </trkpt>
      <trkpt lat="4.814356891438365" lon="-75.69466712884605">
        <ele>1422.8</ele>
        <time>2021-04-30T23:43:34.000Z</time>
      </trkpt>
      <trkpt lat="4.814352197572589" lon="-75.6946434918791">
        <ele>1423</ele>
        <time>2021-04-30T23:43:53.000Z</time>
      </trkpt>
      <trkpt lat="4.814386144280434" lon="-75.69461398757994">
        <ele>1423.2</ele>
        <time>2021-04-30T23:44:30.000Z</time>
      </trkpt>
      <trkpt lat="4.814358819276094" lon="-75.69454936310649">
        <ele>1423.6</ele>
        <time>2021-04-30T23:44:40.000Z</time>
      </trkpt>
      <trkpt lat="4.814304923638701" lon="-75.69451189599931">
        <ele>1424</ele>
        <time>2021-04-30T23:44:47.000Z</time>
      </trkpt>
      <trkpt lat="4.8142895847558975" lon="-75.69450426846743">
        <ele>1424</ele>
        <time>2021-04-30T23:44:51.000Z</time>
      </trkpt>
      <trkpt lat="4.814283885061741" lon="-75.6945018377155">
        <ele>1424</ele>
        <time>2021-04-30T23:44:54.000Z</time>
      </trkpt>
      <trkpt lat="4.814283885061741" lon="-75.6945018377155">
        <ele>1424</ele>
        <time>2021-04-30T23:45:01.000Z</time>
      </trkpt>
      <trkpt lat="4.814283885061741" lon="-75.6945018377155">
        <ele>1424</ele>
        <time>2021-04-30T23:45:05.000Z</time>
      </trkpt>
      <trkpt lat="4.814268546178937" lon="-75.69449345581234">
        <ele>1424</ele>
        <time>2021-04-30T23:45:10.000Z</time>
      </trkpt>
      <trkpt lat="4.814261421561241" lon="-75.69447845220566">
        <ele>1424.2</ele>
        <time>2021-04-30T23:45:15.000Z</time>
      </trkpt>
      <trkpt lat="4.81425060890615" lon="-75.69447845220566">
        <ele>1424.2</ele>
        <time>2021-04-30T23:45:21.000Z</time>
      </trkpt>
      <trkpt lat="4.814247842878103" lon="-75.69447845220566">
        <ele>1424.2</ele>
        <time>2021-04-30T23:45:24.000Z</time>
      </trkpt>
      <trkpt lat="4.81423988007009" lon="-75.69448985159397">
        <ele>1424.2</ele>
        <time>2021-04-30T23:45:31.000Z</time>
      </trkpt>
      <trkpt lat="4.8142362758517265" lon="-75.69450259208679">
        <ele>1424</ele>
        <time>2021-04-30T23:45:43.000Z</time>
      </trkpt>
      <trkpt lat="4.814227558672428" lon="-75.6945041846484">
        <ele>1424</ele>
        <time>2021-04-30T23:46:00.000Z</time>
      </trkpt>
      <trkpt lat="4.814235772937536" lon="-75.69450820796192">
        <ele>1423.8</ele>
        <time>2021-04-30T23:46:08.000Z</time>
      </trkpt>
      <trkpt lat="4.814243400469422" lon="-75.69450871087611">
        <ele>1423.8</ele>
        <time>2021-04-30T23:46:12.000Z</time>
      </trkpt>
      <trkpt lat="4.814259158447385" lon="-75.69451994262636">
        <ele>1423.8</ele>
        <time>2021-04-30T23:46:18.000Z</time>
      </trkpt>
      <trkpt lat="4.814266283065081" lon="-75.69450619630516">
        <ele>1424</ele>
        <time>2021-04-30T23:46:49.000Z</time>
      </trkpt>
      <trkpt lat="4.814295535907149" lon="-75.69450577721">
        <ele>1424</ele>
        <time>2021-04-30T23:47:06.000Z</time>
      </trkpt>
      <trkpt lat="4.814316490665078" lon="-75.6945123989135">
        <ele>1423.8</ele>
        <time>2021-04-30T23:47:15.000Z</time>
      </trkpt>
      <trkpt lat="4.81432294473052" lon="-75.6945213675499">
        <ele>1423.8</ele>
        <time>2021-04-30T23:47:20.000Z</time>
      </trkpt>
      <trkpt lat="4.814328644424677" lon="-75.69453477859497">
        <ele>1423.8</ele>
        <time>2021-04-30T23:47:29.000Z</time>
      </trkpt>
      <trkpt lat="4.814389580860734" lon="-75.69462723098695">
        <ele>1423</ele>
        <time>2021-04-30T23:47:46.000Z</time>
      </trkpt>
      <trkpt lat="4.814452277496457" lon="-75.69472077302635">
        <ele>1423</ele>
        <time>2021-04-30T23:47:52.000Z</time>
      </trkpt>
      <trkpt lat="4.814476082101464" lon="-75.69474508054554">
        <ele>1423</ele>
        <time>2021-04-30T23:47:55.000Z</time>
      </trkpt>
      <trkpt lat="4.814521512016654" lon="-75.69478271529078">
        <ele>1423</ele>
        <time>2021-04-30T23:48:00.000Z</time>
      </trkpt>
      <trkpt lat="4.814538778737187" lon="-75.69479637779295">
        <ele>1423.4</ele>
        <time>2021-04-30T23:48:02.000Z</time>
      </trkpt>
      <trkpt lat="4.81454917229712" lon="-75.69482336752117">
        <ele>1424.2</ele>
        <time>2021-04-30T23:48:04.000Z</time>
      </trkpt>
      <trkpt lat="4.814605498686433" lon="-75.69485907442868">
        <ele>1425.8</ele>
        <time>2021-04-30T23:48:10.000Z</time>
      </trkpt>
      <trkpt lat="4.814632823690772" lon="-75.69485169835389">
        <ele>1426.2</ele>
        <time>2021-04-30T23:48:12.000Z</time>
      </trkpt>
      <trkpt lat="4.81471580453217" lon="-75.69484474137425">
        <ele>1427.6</ele>
        <time>2021-04-30T23:48:19.000Z</time>
      </trkpt>
      <trkpt lat="4.81479006819427" lon="-75.69488321430981">
        <ele>1428</ele>
        <time>2021-04-30T23:48:27.000Z</time>
      </trkpt>
      <trkpt lat="4.814809514209628" lon="-75.69489075802267">
        <ele>1428</ele>
        <time>2021-04-30T23:48:29.000Z</time>
      </trkpt>
      <trkpt lat="4.814822170883417" lon="-75.69491137750447">
        <ele>1427.8</ele>
        <time>2021-04-30T23:48:31.000Z</time>
      </trkpt>
      <trkpt lat="4.814816974103451" lon="-75.69495094008744">
        <ele>1427.8</ele>
        <time>2021-04-30T23:48:33.000Z</time>
      </trkpt>
      <trkpt lat="4.814805826172233" lon="-75.69507935084403">
        <ele>1428.4</ele>
        <time>2021-04-30T23:48:40.000Z</time>
      </trkpt>
      <trkpt lat="4.8148067481815815" lon="-75.69510013796389">
        <ele>1428.6</ele>
        <time>2021-04-30T23:48:42.000Z</time>
      </trkpt>
      <trkpt lat="4.814812950789928" lon="-75.69511078298092">
        <ele>1428.8</ele>
        <time>2021-04-30T23:48:43.000Z</time>
      </trkpt>
      <trkpt lat="4.814833318814635" lon="-75.69516819901764">
        <ele>1429.4</ele>
        <time>2021-04-30T23:48:47.000Z</time>
      </trkpt>
      <trkpt lat="4.814830804243684" lon="-75.6951826158911">
        <ele>1429.6</ele>
        <time>2021-04-30T23:48:48.000Z</time>
      </trkpt>
      <trkpt lat="4.8148279543966055" lon="-75.69519728422165">
        <ele>1429.8</ele>
        <time>2021-04-30T23:48:49.000Z</time>
      </trkpt>
      <trkpt lat="4.814784787595272" lon="-75.69527355954051">
        <ele>1431</ele>
        <time>2021-04-30T23:48:54.000Z</time>
      </trkpt>
      <trkpt lat="4.814779423177242" lon="-75.6952875573188">
        <ele>1431.2</ele>
        <time>2021-04-30T23:48:55.000Z</time>
      </trkpt>
      <trkpt lat="4.814769197255373" lon="-75.69531773217022">
        <ele>1431.6</ele>
        <time>2021-04-30T23:48:57.000Z</time>
      </trkpt>
      <trkpt lat="4.814714714884758" lon="-75.69536785595119">
        <ele>1431</ele>
        <time>2021-04-30T23:49:00.000Z</time>
      </trkpt>
      <trkpt lat="4.8147104401141405" lon="-75.69538411684334">
        <ele>1430.8</ele>
        <time>2021-04-30T23:49:01.000Z</time>
      </trkpt>
      <trkpt lat="4.814724018797278" lon="-75.69540616124868">
        <ele>1430.6</ele>
        <time>2021-04-30T23:49:03.000Z</time>
      </trkpt>
      <trkpt lat="4.814731143414974" lon="-75.69541948847473">
        <ele>1430.4</ele>
        <time>2021-04-30T23:49:04.000Z</time>
      </trkpt>
      <trkpt lat="4.814752349629998" lon="-75.69543046876788">
        <ele>1430.2</ele>
        <time>2021-04-30T23:49:06.000Z</time>
      </trkpt>
      <trkpt lat="4.8147660959511995" lon="-75.69544270634651">
        <ele>1430</ele>
        <time>2021-04-30T23:49:08.000Z</time>
      </trkpt>
      <trkpt lat="4.814779087901115" lon="-75.69550791755319">
        <ele>1428.8</ele>
        <time>2021-04-30T23:49:14.000Z</time>
      </trkpt>
      <trkpt lat="4.814769281074405" lon="-75.69559869356453">
        <ele>1427.2</ele>
        <time>2021-04-30T23:49:22.000Z</time>
      </trkpt>
      <trkpt lat="4.814776740968227" lon="-75.69569156505167">
        <ele>1426.2</ele>
        <time>2021-04-30T23:49:30.000Z</time>
      </trkpt>
      <trkpt lat="4.814789900556207" lon="-75.69574847817421">
        <ele>1426</ele>
        <time>2021-04-30T23:49:35.000Z</time>
      </trkpt>
      <trkpt lat="4.814806999638677" lon="-75.69576214067638">
        <ele>1425.8</ele>
        <time>2021-04-30T23:49:37.000Z</time>
      </trkpt>
      <trkpt lat="4.814842119812965" lon="-75.69586364552379">
        <ele>1424.8</ele>
        <time>2021-04-30T23:49:47.000Z</time>
      </trkpt>
      <trkpt lat="4.814868355169892" lon="-75.6959524936974">
        <ele>1422.8</ele>
        <time>2021-04-30T23:49:55.000Z</time>
      </trkpt>
      <trkpt lat="4.814869528636336" lon="-75.69598442874849">
        <ele>1422.4</ele>
        <time>2021-04-30T23:49:58.000Z</time>
      </trkpt>
      <trkpt lat="4.81486483477056" lon="-75.69605601020157">
        <ele>1421.8</ele>
        <time>2021-04-30T23:50:05.000Z</time>
      </trkpt>
      <trkpt lat="4.814859973266721" lon="-75.69606648758054">
        <ele>1421.8</ele>
        <time>2021-04-30T23:50:06.000Z</time>
      </trkpt>
      <trkpt lat="4.814862068742514" lon="-75.69608928635716">
        <ele>1421.6</ele>
        <time>2021-04-30T23:50:08.000Z</time>
      </trkpt>
      <trkpt lat="4.814872881397605" lon="-75.69613597355783">
        <ele>1421</ele>
        <time>2021-04-30T23:50:12.000Z</time>
      </trkpt>
      <trkpt lat="4.81488972902298" lon="-75.69620043039322">
        <ele>1420.6</ele>
        <time>2021-04-30T23:50:17.000Z</time>
      </trkpt>
      <trkpt lat="4.814919149503112" lon="-75.69625047035515">
        <ele>1419.8</ele>
        <time>2021-04-30T23:50:22.000Z</time>
      </trkpt>
      <trkpt lat="4.814937757328153" lon="-75.69636161439121">
        <ele>1419</ele>
        <time>2021-04-30T23:50:32.000Z</time>
      </trkpt>
      <trkpt lat="4.814948905259371" lon="-75.69643277674913">
        <ele>1419</ele>
        <time>2021-04-30T23:50:38.000Z</time>
      </trkpt>
      <trkpt lat="4.814939936622977" lon="-75.69647435098886">
        <ele>1419</ele>
        <time>2021-04-30T23:50:41.000Z</time>
      </trkpt>
      <trkpt lat="4.814956532791257" lon="-75.69653050974011">
        <ele>1418.6</ele>
        <time>2021-04-30T23:50:46.000Z</time>
      </trkpt>
      <trkpt lat="4.814965249970555" lon="-75.69665439426899">
        <ele>1418.4</ele>
        <time>2021-04-30T23:50:56.000Z</time>
      </trkpt>
      <trkpt lat="4.814974218606949" lon="-75.69668934680521">
        <ele>1418.4</ele>
        <time>2021-04-30T23:50:59.000Z</time>
      </trkpt>
      <trkpt lat="4.814975140616298" lon="-75.69672295823693">
        <ele>1418.4</ele>
        <time>2021-04-30T23:51:02.000Z</time>
      </trkpt>
      <trkpt lat="4.814981510862708" lon="-75.6967659574002">
        <ele>1418.4</ele>
        <time>2021-04-30T23:51:06.000Z</time>
      </trkpt>
      <trkpt lat="4.814986791461706" lon="-75.69677392020822">
        <ele>1418.4</ele>
        <time>2021-04-30T23:51:07.000Z</time>
      </trkpt>
      <trkpt lat="4.815004812553525" lon="-75.69680627435446">
        <ele>1418.4</ele>
        <time>2021-04-30T23:51:10.000Z</time>
      </trkpt>
      <trkpt lat="4.815011937171221" lon="-75.696842065081">
        <ele>1418.4</ele>
        <time>2021-04-30T23:51:13.000Z</time>
      </trkpt>
      <trkpt lat="4.814994083717465" lon="-75.6969562266022">
        <ele>1418.8</ele>
        <time>2021-04-30T23:51:22.000Z</time>
      </trkpt>
      <trkpt lat="4.815000956878066" lon="-75.69699050858617">
        <ele>1419</ele>
        <time>2021-04-30T23:51:25.000Z</time>
      </trkpt>
      <trkpt lat="4.814994167536497" lon="-75.69703669287264">
        <ele>1419</ele>
        <time>2021-04-30T23:51:28.000Z</time>
      </trkpt>
      <trkpt lat="4.814999531954527" lon="-75.69705504924059">
        <ele>1419</ele>
        <time>2021-04-30T23:51:30.000Z</time>
      </trkpt>
      <trkpt lat="4.81500799767673" lon="-75.69714020937681">
        <ele>1418.8</ele>
        <time>2021-04-30T23:51:38.000Z</time>
      </trkpt>
      <trkpt lat="4.815038340166211" lon="-75.69721028208733">
        <ele>1418.4</ele>
        <time>2021-04-30T23:51:45.000Z</time>
      </trkpt>
      <trkpt lat="4.815040938556194" lon="-75.69722168147564">
        <ele>1418.4</ele>
        <time>2021-04-30T23:51:46.000Z</time>
      </trkpt>
      <trkpt lat="4.815044794231653" lon="-75.69726669229567">
        <ele>1418.2</ele>
        <time>2021-04-30T23:51:50.000Z</time>
      </trkpt>
      <trkpt lat="4.8150373343378305" lon="-75.69727876223624">
        <ele>1418.2</ele>
        <time>2021-04-30T23:51:51.000Z</time>
      </trkpt>
      <trkpt lat="4.81503389775753" lon="-75.69733240641654">
        <ele>1418.2</ele>
        <time>2021-04-30T23:51:55.000Z</time>
      </trkpt>
      <trkpt lat="4.815021241083741" lon="-75.69741765037179">
        <ele>1418.6</ele>
        <time>2021-04-30T23:52:02.000Z</time>
      </trkpt>
      <trkpt lat="4.815028700977564" lon="-75.69744111970067">
        <ele>1418.6</ele>
        <time>2021-04-30T23:52:04.000Z</time>
      </trkpt>
      <trkpt lat="4.815040184184909" lon="-75.69746978580952">
        <ele>1418.6</ele>
        <time>2021-04-30T23:52:07.000Z</time>
      </trkpt>
      <trkpt lat="4.8150441236793995" lon="-75.69749065674841">
        <ele>1418.8</ele>
        <time>2021-04-30T23:52:09.000Z</time>
      </trkpt>
      <trkpt lat="4.815066419541836" lon="-75.6975432112813">
        <ele>1419</ele>
        <time>2021-04-30T23:52:13.000Z</time>
      </trkpt>
      <trkpt lat="4.815087793394923" lon="-75.697600543499">
        <ele>1418.8</ele>
        <time>2021-04-30T23:52:18.000Z</time>
      </trkpt>
      <trkpt lat="4.815072789788246" lon="-75.69764329120517">
        <ele>1418.6</ele>
        <time>2021-04-30T23:52:21.000Z</time>
      </trkpt>
      <trkpt lat="4.815077148377895" lon="-75.69769022986293">
        <ele>1418.6</ele>
        <time>2021-04-30T23:52:25.000Z</time>
      </trkpt>
      <trkpt lat="4.815088463947177" lon="-75.69772375747561">
        <ele>1418.4</ele>
        <time>2021-04-30T23:52:28.000Z</time>
      </trkpt>
      <trkpt lat="4.81509692966938" lon="-75.69774890318513">
        <ele>1418.2</ele>
        <time>2021-04-30T23:52:30.000Z</time>
      </trkpt>
      <trkpt lat="4.8151124361902475" lon="-75.69778150878847">
        <ele>1418</ele>
        <time>2021-04-30T23:52:33.000Z</time>
      </trkpt>
      <trkpt lat="4.815113693475723" lon="-75.69779416546226">
        <ele>1418</ele>
        <time>2021-04-30T23:52:34.000Z</time>
      </trkpt>
      <trkpt lat="4.815109334886074" lon="-75.69781637750566">
        <ele>1418</ele>
        <time>2021-04-30T23:52:36.000Z</time>
      </trkpt>
      <trkpt lat="4.8151095025241375" lon="-75.69783917628229">
        <ele>1417.8</ele>
        <time>2021-04-30T23:52:38.000Z</time>
      </trkpt>
      <trkpt lat="4.815107407048345" lon="-75.69784940220416">
        <ele>1417.8</ele>
        <time>2021-04-30T23:52:39.000Z</time>
      </trkpt>
      <trkpt lat="4.8151003662496805" lon="-75.69789013825357">
        <ele>1417.4</ele>
        <time>2021-04-30T23:52:43.000Z</time>
      </trkpt>
      <trkpt lat="4.815123751759529" lon="-75.69798292592168">
        <ele>1416.2</ele>
        <time>2021-04-30T23:52:51.000Z</time>
      </trkpt>
      <trkpt lat="4.815130205824971" lon="-75.69804352708161">
        <ele>1415.6</ele>
        <time>2021-04-30T23:52:56.000Z</time>
      </trkpt>
      <trkpt lat="4.815133139491081" lon="-75.69808065891266">
        <ele>1415.2</ele>
        <time>2021-04-30T23:52:59.000Z</time>
      </trkpt>
      <trkpt lat="4.815133893862367" lon="-75.6981249153614">
        <ele>1415</ele>
        <time>2021-04-30T23:53:03.000Z</time>
      </trkpt>
      <trkpt lat="4.815131044015288" lon="-75.6981526594609">
        <ele>1414.8</ele>
        <time>2021-04-30T23:53:05.000Z</time>
      </trkpt>
      <trkpt lat="4.815130038186908" lon="-75.69816900417209">
        <ele>1414.8</ele>
        <time>2021-04-30T23:53:06.000Z</time>
      </trkpt>
      <trkpt lat="4.815137330442667" lon="-75.69819406606257">
        <ele>1414.6</ele>
        <time>2021-04-30T23:53:08.000Z</time>
      </trkpt>
      <trkpt lat="4.81515359133482" lon="-75.69823949597776">
        <ele>1414.6</ele>
        <time>2021-04-30T23:53:12.000Z</time>
      </trkpt>
      <trkpt lat="4.815150238573551" lon="-75.69826606661081">
        <ele>1414.4</ele>
        <time>2021-04-30T23:53:14.000Z</time>
      </trkpt>
      <trkpt lat="4.815150992944837" lon="-75.6982974987477">
        <ele>1414.4</ele>
        <time>2021-04-30T23:53:17.000Z</time>
      </trkpt>
      <trkpt lat="4.815175384283066" lon="-75.6984222214669">
        <ele>1413.8</ele>
        <time>2021-04-30T23:53:29.000Z</time>
      </trkpt>
      <trkpt lat="4.815177312120795" lon="-75.69846069440246">
        <ele>1413.4</ele>
        <time>2021-04-30T23:53:33.000Z</time>
      </trkpt>
      <trkpt lat="4.815185694023967" lon="-75.6984840799123">
        <ele>1413.4</ele>
        <time>2021-04-30T23:53:35.000Z</time>
      </trkpt>
      <trkpt lat="4.815186616033316" lon="-75.69849388673902">
        <ele>1413.2</ele>
        <time>2021-04-30T23:53:36.000Z</time>
      </trkpt>
      <trkpt lat="4.81519759632647" lon="-75.69855524227023">
        <ele>1412.8</ele>
        <time>2021-04-30T23:53:42.000Z</time>
      </trkpt>
      <trkpt lat="4.815199440345168" lon="-75.69856974296272">
        <ele>1412.8</ele>
        <time>2021-04-30T23:53:43.000Z</time>
      </trkpt>
      <trkpt lat="4.815200865268707" lon="-75.69863352924585">
        <ele>1412.8</ele>
        <time>2021-04-30T23:53:48.000Z</time>
      </trkpt>
      <trkpt lat="4.815205056220293" lon="-75.69865699857473">
        <ele>1412.8</ele>
        <time>2021-04-30T23:53:50.000Z</time>
      </trkpt>
      <trkpt lat="4.815213438123465" lon="-75.69873260334134">
        <ele>1413.2</ele>
        <time>2021-04-30T23:53:56.000Z</time>
      </trkpt>
      <trkpt lat="4.815209163352847" lon="-75.69876403547823">
        <ele>1413.2</ele>
        <time>2021-04-30T23:53:59.000Z</time>
      </trkpt>
      <trkpt lat="4.8151984345167875" lon="-75.69884140044451">
        <ele>1413.4</ele>
        <time>2021-04-30T23:54:06.000Z</time>
      </trkpt>
      <trkpt lat="4.8152029607445" lon="-75.69885581731796">
        <ele>1413.6</ele>
        <time>2021-04-30T23:54:07.000Z</time>
      </trkpt>
      <trkpt lat="4.8152034636586905" lon="-75.69886998273432">
        <ele>1413.6</ele>
        <time>2021-04-30T23:54:08.000Z</time>
      </trkpt>
      <trkpt lat="4.8152196407318115" lon="-75.6989280693233">
        <ele>1413.8</ele>
        <time>2021-04-30T23:54:13.000Z</time>
      </trkpt>
      <trkpt lat="4.815235314890742" lon="-75.69900794886053">
        <ele>1414.6</ele>
        <time>2021-04-30T23:54:20.000Z</time>
      </trkpt>
      <trkpt lat="4.815229699015617" lon="-75.69905505515635">
        <ele>1414.8</ele>
        <time>2021-04-30T23:54:23.000Z</time>
      </trkpt>
      <trkpt lat="4.815208492800593" lon="-75.69910216145217">
        <ele>1415</ele>
        <time>2021-04-30T23:54:26.000Z</time>
      </trkpt>
      <trkpt lat="4.815187957137823" lon="-75.69915865547955">
        <ele>1415</ele>
        <time>2021-04-30T23:54:30.000Z</time>
      </trkpt>
      <trkpt lat="4.815196758136153" lon="-75.69924012757838">
        <ele>1415</ele>
        <time>2021-04-30T23:54:36.000Z</time>
      </trkpt>
      <trkpt lat="4.815203715115786" lon="-75.69924884475768">
        <ele>1415</ele>
        <time>2021-04-30T23:54:37.000Z</time>
      </trkpt>
      <trkpt lat="4.815225172787905" lon="-75.69931690581143">
        <ele>1414.6</ele>
        <time>2021-04-30T23:54:44.000Z</time>
      </trkpt>
      <trkpt lat="4.815225005149841" lon="-75.69932746700943">
        <ele>1414.6</ele>
        <time>2021-04-30T23:54:45.000Z</time>
      </trkpt>
      <trkpt lat="4.815237997099757" lon="-75.69935177452862">
        <ele>1414.6</ele>
        <time>2021-04-30T23:54:48.000Z</time>
      </trkpt>
      <trkpt lat="4.815238332375884" lon="-75.69936166517437">
        <ele>1414.6</ele>
        <time>2021-04-30T23:54:49.000Z</time>
      </trkpt>
      <trkpt lat="4.815235650166869" lon="-75.69938479922712">
        <ele>1414.6</ele>
        <time>2021-04-30T23:54:51.000Z</time>
      </trkpt>
      <trkpt lat="4.815236907452345" lon="-75.69941380061209">
        <ele>1414.8</ele>
        <time>2021-04-30T23:54:54.000Z</time>
      </trkpt>
      <trkpt lat="4.815235063433647" lon="-75.69942268542945">
        <ele>1414.8</ele>
        <time>2021-04-30T23:54:55.000Z</time>
      </trkpt>
      <trkpt lat="4.815239002928138" lon="-75.69948202930391">
        <ele>1415</ele>
        <time>2021-04-30T23:55:00.000Z</time>
      </trkpt>
      <trkpt lat="4.81525719165802" lon="-75.69951253943145">
        <ele>1415.2</ele>
        <time>2021-04-30T23:55:03.000Z</time>
      </trkpt>
      <trkpt lat="4.815289210528135" lon="-75.6995684467256">
        <ele>1415.2</ele>
        <time>2021-04-30T23:55:08.000Z</time>
      </trkpt>
      <trkpt lat="4.815291557461023" lon="-75.69960038177669">
        <ele>1415</ele>
        <time>2021-04-30T23:55:11.000Z</time>
      </trkpt>
      <trkpt lat="4.815294574946165" lon="-75.6996363401413">
        <ele>1414.8</ele>
        <time>2021-04-30T23:55:14.000Z</time>
      </trkpt>
      <trkpt lat="4.815306980162859" lon="-75.69968093186617">
        <ele>1414.4</ele>
        <time>2021-04-30T23:55:18.000Z</time>
      </trkpt>
      <trkpt lat="4.815321313217282" lon="-75.69977019913495">
        <ele>1413.8</ele>
        <time>2021-04-30T23:55:26.000Z</time>
      </trkpt>
      <trkpt lat="4.815332042053342" lon="-75.6998691894114">
        <ele>1413.4</ele>
        <time>2021-04-30T23:55:35.000Z</time>
      </trkpt>
      <trkpt lat="4.815341345965862" lon="-75.69992300122976">
        <ele>1413</ele>
        <time>2021-04-30T23:55:40.000Z</time>
      </trkpt>
      <trkpt lat="4.815352577716112" lon="-75.6999691016972">
        <ele>1412.6</ele>
        <time>2021-04-30T23:55:44.000Z</time>
      </trkpt>
      <trkpt lat="4.815373113378882" lon="-75.70003825239837">
        <ele>1412.2</ele>
        <time>2021-04-30T23:55:51.000Z</time>
      </trkpt>
      <trkpt lat="4.815375292673707" lon="-75.70004621520638">
        <ele>1412.2</ele>
        <time>2021-04-30T23:55:52.000Z</time>
      </trkpt>
      <trkpt lat="4.815397169440985" lon="-75.70009130984545">
        <ele>1412.2</ele>
        <time>2021-04-30T23:55:57.000Z</time>
      </trkpt>
      <trkpt lat="4.815415861085057" lon="-75.70015610195696">
        <ele>1412.4</ele>
        <time>2021-04-30T23:56:03.000Z</time>
      </trkpt>
      <trkpt lat="4.815414939075708" lon="-75.70016691461205">
        <ele>1412.4</ele>
        <time>2021-04-30T23:56:04.000Z</time>
      </trkpt>
      <trkpt lat="4.815410161390901" lon="-75.7002650666982">
        <ele>1412.8</ele>
        <time>2021-04-30T23:56:11.000Z</time>
      </trkpt>
      <trkpt lat="4.8154048807919025" lon="-75.70037679746747">
        <ele>1412.8</ele>
        <time>2021-04-30T23:56:20.000Z</time>
      </trkpt>
      <trkpt lat="4.815411251038313" lon="-75.70041158236563">
        <ele>1412.8</ele>
        <time>2021-04-30T23:56:23.000Z</time>
      </trkpt>
      <trkpt lat="4.815412675961852" lon="-75.70045625790954">
        <ele>1412.6</ele>
        <time>2021-04-30T23:56:27.000Z</time>
      </trkpt>
      <trkpt lat="4.815412927418947" lon="-75.70046707056463">
        <ele>1412.6</ele>
        <time>2021-04-30T23:56:28.000Z</time>
      </trkpt>
      <trkpt lat="4.815402617678046" lon="-75.70052389986813">
        <ele>1412.4</ele>
        <time>2021-04-30T23:56:33.000Z</time>
      </trkpt>
      <trkpt lat="4.815406808629632" lon="-75.70057025179267">
        <ele>1412.2</ele>
        <time>2021-04-30T23:56:36.000Z</time>
      </trkpt>
      <trkpt lat="4.815414184704423" lon="-75.70060621015728">
        <ele>1412.2</ele>
        <time>2021-04-30T23:56:39.000Z</time>
      </trkpt>
      <trkpt lat="4.815419716760516" lon="-75.70066639222205">
        <ele>1412</ele>
        <time>2021-04-30T23:56:44.000Z</time>
      </trkpt>
      <trkpt lat="4.815417705103755" lon="-75.70068248547614">
        <ele>1412</ele>
        <time>2021-04-30T23:56:45.000Z</time>
      </trkpt>
      <trkpt lat="4.815428014844656" lon="-75.70069153793156">
        <ele>1412</ele>
        <time>2021-04-30T23:56:46.000Z</time>
      </trkpt>
      <trkpt lat="4.815442515537143" lon="-75.7007447630167">
        <ele>1411.8</ele>
        <time>2021-04-30T23:56:50.000Z</time>
      </trkpt>
      <trkpt lat="4.815444108098745" lon="-75.70075901225209">
        <ele>1411.8</ele>
        <time>2021-04-30T23:56:51.000Z</time>
      </trkpt>
      <trkpt lat="4.8154576029628515" lon="-75.70083210244775">
        <ele>1411.6</ele>
        <time>2021-04-30T23:56:58.000Z</time>
      </trkpt>
      <trkpt lat="4.815459614619613" lon="-75.70084299892187">
        <ele>1411.6</ele>
        <time>2021-04-30T23:56:59.000Z</time>
      </trkpt>
      <trkpt lat="4.815478138625622" lon="-75.70087619125843">
        <ele>1411.8</ele>
        <time>2021-04-30T23:57:03.000Z</time>
      </trkpt>
      <trkpt lat="4.815490543842316" lon="-75.700877700001">
        <ele>1412</ele>
        <time>2021-04-30T23:57:04.000Z</time>
      </trkpt>
      <trkpt lat="4.815523317083716" lon="-75.70088566280901">
        <ele>1412.2</ele>
        <time>2021-04-30T23:57:06.000Z</time>
      </trkpt>
      <trkpt lat="4.815576374530792" lon="-75.70089136250317">
        <ele>1412.6</ele>
        <time>2021-04-30T23:57:09.000Z</time>
      </trkpt>
      <trkpt lat="4.8155895341187716" lon="-75.70090158842504">
        <ele>1412.6</ele>
        <time>2021-04-30T23:57:10.000Z</time>
      </trkpt>
      <trkpt lat="4.815599005669355" lon="-75.700906785205">
        <ele>1412.6</ele>
        <time>2021-04-30T23:57:11.000Z</time>
      </trkpt>
      <trkpt lat="4.815642759203911" lon="-75.70089261978865">
        <ele>1413</ele>
        <time>2021-04-30T23:57:14.000Z</time>
      </trkpt>
      <trkpt lat="4.815734541043639" lon="-75.70086454041302">
        <ele>1413</ele>
        <time>2021-04-30T23:57:20.000Z</time>
      </trkpt>
      <trkpt lat="4.815744431689382" lon="-75.70086504332721">
        <ele>1413</ele>
        <time>2021-04-30T23:57:21.000Z</time>
      </trkpt>
      <trkpt lat="4.81577075086534" lon="-75.70086965337396">
        <ele>1413</ele>
        <time>2021-04-30T23:57:23.000Z</time>
      </trkpt>
      <trkpt lat="4.815811989828944" lon="-75.70088951848447">
        <ele>1413</ele>
        <time>2021-04-30T23:57:27.000Z</time>
      </trkpt>
      <trkpt lat="4.815857587382197" lon="-75.7008985709399">
        <ele>1412.8</ele>
        <time>2021-04-30T23:57:32.000Z</time>
      </trkpt>
      <trkpt lat="4.815871082246304" lon="-75.7008999120444">
        <ele>1412.8</ele>
        <time>2021-04-30T23:57:34.000Z</time>
      </trkpt>
      <trkpt lat="4.81597744859755" lon="-75.70087602362037">
        <ele>1413</ele>
        <time>2021-04-30T23:57:43.000Z</time>
      </trkpt>
      <trkpt lat="4.816002007573843" lon="-75.70087803527713">
        <ele>1413</ele>
        <time>2021-04-30T23:57:45.000Z</time>
      </trkpt>
      <trkpt lat="4.8160354513674974" lon="-75.70088650099933">
        <ele>1413</ele>
        <time>2021-04-30T23:57:48.000Z</time>
      </trkpt>
      <trkpt lat="4.81608004309237" lon="-75.7008845731616">
        <ele>1413</ele>
        <time>2021-04-30T23:57:51.000Z</time>
      </trkpt>
      <trkpt lat="4.816092951223254" lon="-75.7008808851242">
        <ele>1413</ele>
        <time>2021-04-30T23:57:52.000Z</time>
      </trkpt>
      <trkpt lat="4.816147014498711" lon="-75.70086034946144">
        <ele>1413</ele>
        <time>2021-04-30T23:57:55.000Z</time>
      </trkpt>
      <trkpt lat="4.816209962591529" lon="-75.70084802806377">
        <ele>1413</ele>
        <time>2021-04-30T23:58:00.000Z</time>
      </trkpt>
      <trkpt lat="4.816317083314061" lon="-75.70084073580801">
        <ele>1412.8</ele>
        <time>2021-04-30T23:58:08.000Z</time>
      </trkpt>
      <trkpt lat="4.816401405259967" lon="-75.70080100558698">
        <ele>1412.6</ele>
        <time>2021-04-30T23:58:16.000Z</time>
      </trkpt>
      <trkpt lat="4.816440884023905" lon="-75.70080452598631">
        <ele>1412.4</ele>
        <time>2021-04-30T23:58:20.000Z</time>
      </trkpt>
      <trkpt lat="4.816458402201533" lon="-75.7008066214621">
        <ele>1412.4</ele>
        <time>2021-04-30T23:58:22.000Z</time>
      </trkpt>
      <trkpt lat="4.816467873752117" lon="-75.7008050289005">
        <ele>1412.4</ele>
        <time>2021-04-30T23:58:23.000Z</time>
      </trkpt>
      <trkpt lat="4.8164972104132175" lon="-75.70079371333122">
        <ele>1412.2</ele>
        <time>2021-04-30T23:58:26.000Z</time>
      </trkpt>
      <trkpt lat="4.8165331687778234" lon="-75.70079362951219">
        <ele>1411.8</ele>
        <time>2021-04-30T23:58:29.000Z</time>
      </trkpt>
      <trkpt lat="4.816596703603864" lon="-75.70078013464808">
        <ele>1411.2</ele>
        <time>2021-04-30T23:58:35.000Z</time>
      </trkpt>
      <trkpt lat="4.816612545400858" lon="-75.70077669806778">
        <ele>1411</ele>
        <time>2021-04-30T23:58:36.000Z</time>
      </trkpt>
      <trkpt lat="4.8166886530816555" lon="-75.70076345466077">
        <ele>1410.4</ele>
        <time>2021-04-30T23:58:43.000Z</time>
      </trkpt>
      <trkpt lat="4.816775154322386" lon="-75.70073478855193">
        <ele>1409.6</ele>
        <time>2021-04-30T23:58:50.000Z</time>
      </trkpt>
      <trkpt lat="4.816785715520382" lon="-75.70073688402772">
        <ele>1409.4</ele>
        <time>2021-04-30T23:58:51.000Z</time>
      </trkpt>
      <trkpt lat="4.816850423812866" lon="-75.70073830895126">
        <ele>1408.2</ele>
        <time>2021-04-30T23:58:57.000Z</time>
      </trkpt>
      <trkpt lat="4.8168824426829815" lon="-75.70073344744742">
        <ele>1407.6</ele>
        <time>2021-04-30T23:59:00.000Z</time>
      </trkpt>
      <trkpt lat="4.816975984722376" lon="-75.70073705166578">
        <ele>1406.2</ele>
        <time>2021-04-30T23:59:07.000Z</time>
      </trkpt>
      <trkpt lat="4.816988809034228" lon="-75.70073495618999">
        <ele>1406</ele>
        <time>2021-04-30T23:59:08.000Z</time>
      </trkpt>
      <trkpt lat="4.8170441295951605" lon="-75.700719114393">
        <ele>1405.2</ele>
        <time>2021-04-30T23:59:12.000Z</time>
      </trkpt>
      <trkpt lat="4.817070700228214" lon="-75.70071710273623">
        <ele>1404.6</ele>
        <time>2021-04-30T23:59:14.000Z</time>
      </trkpt>
      <trkpt lat="4.8170847818255424" lon="-75.70071819238365">
        <ele>1404.4</ele>
        <time>2021-04-30T23:59:15.000Z</time>
      </trkpt>
      <trkpt lat="4.817139934748411" lon="-75.70071492344141">
        <ele>1403.4</ele>
        <time>2021-04-30T23:59:19.000Z</time>
      </trkpt>
      <trkpt lat="4.81716038659215" lon="-75.70070520043373">
        <ele>1403</ele>
        <time>2021-04-30T23:59:22.000Z</time>
      </trkpt>
      <trkpt lat="4.817169271409512" lon="-75.70070000365376">
        <ele>1402.8</ele>
        <time>2021-04-30T23:59:23.000Z</time>
      </trkpt>
      <trkpt lat="4.817230878397822" lon="-75.70069237612188">
        <ele>1401.8</ele>
        <time>2021-04-30T23:59:29.000Z</time>
      </trkpt>
      <trkpt lat="4.817239763215184" lon="-75.70068667642772">
        <ele>1401.6</ele>
        <time>2021-04-30T23:59:30.000Z</time>
      </trkpt>
      <trkpt lat="4.817249737679958" lon="-75.70068349130452">
        <ele>1401.4</ele>
        <time>2021-04-30T23:59:31.000Z</time>
      </trkpt>
      <trkpt lat="4.817366749048233" lon="-75.700663626194">
        <ele>1399.2</ele>
        <time>2021-04-30T23:59:41.000Z</time>
      </trkpt>
      <trkpt lat="4.817519299685955" lon="-75.70066278800368">
        <ele>1396.4</ele>
        <time>2021-04-30T23:59:53.000Z</time>
      </trkpt>
      <trkpt lat="4.81759674847126" lon="-75.70066597312689">
        <ele>1395.2</ele>
        <time>2021-04-30T23:59:59.000Z</time>
      </trkpt>
      <trkpt lat="4.817615356296301" lon="-75.70066463202238">
        <ele>1395</ele>
        <time>2021-05-01T00:00:01.000Z</time>
      </trkpt>
      <trkpt lat="4.817625414580107" lon="-75.70066471584141">
        <ele>1395</ele>
        <time>2021-05-01T00:00:02.000Z</time>
      </trkpt>
      <trkpt lat="4.817720968276262" lon="-75.70064786821604">
        <ele>1394.2</ele>
        <time>2021-05-01T00:00:10.000Z</time>
      </trkpt>
      <trkpt lat="4.817810235545039" lon="-75.70063806138933">
        <ele>1393.4</ele>
        <time>2021-05-01T00:00:18.000Z</time>
      </trkpt>
      <trkpt lat="4.817882990464568" lon="-75.70063470862806">
        <ele>1393.2</ele>
        <time>2021-05-01T00:00:25.000Z</time>
      </trkpt>
      <trkpt lat="4.817941412329674" lon="-75.70066513493657">
        <ele>1393.4</ele>
        <time>2021-05-01T00:00:31.000Z</time>
      </trkpt>
      <trkpt lat="4.817946860566735" lon="-75.70069178938866">
        <ele>1393.6</ele>
        <time>2021-05-01T00:00:33.000Z</time>
      </trkpt>
      <trkpt lat="4.817964294925332" lon="-75.700822211802">
        <ele>1394.4</ele>
        <time>2021-05-01T00:00:42.000Z</time>
      </trkpt>
      <trkpt lat="4.8179638758301735" lon="-75.70083495229483">
        <ele>1394.4</ele>
        <time>2021-05-01T00:00:43.000Z</time>
      </trkpt>
      <trkpt lat="4.817965216934681" lon="-75.70084827952087">
        <ele>1394.4</ele>
        <time>2021-05-01T00:00:44.000Z</time>
      </trkpt>
      <trkpt lat="4.817979549989104" lon="-75.70089421235025">
        <ele>1394.6</ele>
        <time>2021-05-01T00:00:48.000Z</time>
      </trkpt>
      <trkpt lat="4.817977286875248" lon="-75.70091843605042">
        <ele>1395</ele>
        <time>2021-05-01T00:00:51.000Z</time>
      </trkpt>
      <trkpt lat="4.817989943549037" lon="-75.70093955844641">
        <ele>1395</ele>
        <time>2021-05-01T00:00:53.000Z</time>
      </trkpt>
      <trkpt lat="4.818008216097951" lon="-75.7010294124484">
        <ele>1396</ele>
        <time>2021-05-01T00:01:00.000Z</time>
      </trkpt>
      <trkpt lat="4.818011149764061" lon="-75.70105162449181">
        <ele>1396</ele>
        <time>2021-05-01T00:01:02.000Z</time>
      </trkpt>
      <trkpt lat="4.818014418706298" lon="-75.70109437219799">
        <ele>1396.2</ele>
        <time>2021-05-01T00:01:06.000Z</time>
      </trkpt>
      <trkpt lat="4.818013161420822" lon="-75.70110375992954">
        <ele>1396.2</ele>
        <time>2021-05-01T00:01:07.000Z</time>
      </trkpt>
      <trkpt lat="4.81802137568593" lon="-75.70115824230015">
        <ele>1396.2</ele>
        <time>2021-05-01T00:01:13.000Z</time>
      </trkpt>
      <trkpt lat="4.818038810044527" lon="-75.70117324590683">
        <ele>1396.2</ele>
        <time>2021-05-01T00:01:15.000Z</time>
      </trkpt>
      <trkpt lat="4.81806630268693" lon="-75.7011988107115">
        <ele>1396</ele>
        <time>2021-05-01T00:01:18.000Z</time>
      </trkpt>
      <trkpt lat="4.81807267293334" lon="-75.70122353732586">
        <ele>1396</ele>
        <time>2021-05-01T00:01:20.000Z</time>
      </trkpt>
      <trkpt lat="4.818079294636846" lon="-75.70125253871083">
        <ele>1396</ele>
        <time>2021-05-01T00:01:23.000Z</time>
      </trkpt>
      <trkpt lat="4.818080551922321" lon="-75.70129168219864">
        <ele>1396.4</ele>
        <time>2021-05-01T00:01:26.000Z</time>
      </trkpt>
      <trkpt lat="4.818075690418482" lon="-75.70130283012986">
        <ele>1396.4</ele>
        <time>2021-05-01T00:01:27.000Z</time>
      </trkpt>
      <trkpt lat="4.818072505295277" lon="-75.70135689340532">
        <ele>1396.8</ele>
        <time>2021-05-01T00:01:32.000Z</time>
      </trkpt>
      <trkpt lat="4.81809320859611" lon="-75.70139871910214">
        <ele>1397</ele>
        <time>2021-05-01T00:01:35.000Z</time>
      </trkpt>
      <trkpt lat="4.818141236901283" lon="-75.70141137577593">
        <ele>1396.8</ele>
        <time>2021-05-01T00:01:38.000Z</time>
      </trkpt>
      <trkpt lat="4.818162778392434" lon="-75.70140710100532">
        <ele>1396.4</ele>
        <time>2021-05-01T00:01:40.000Z</time>
      </trkpt>
      <trkpt lat="4.818184236064553" lon="-75.70142487064004">
        <ele>1396.2</ele>
        <time>2021-05-01T00:01:43.000Z</time>
      </trkpt>
      <trkpt lat="4.818239808082581" lon="-75.70143015123904">
        <ele>1395.4</ele>
        <time>2021-05-01T00:01:50.000Z</time>
      </trkpt>
      <trkpt lat="4.818283477798104" lon="-75.70142302662134">
        <ele>1394.8</ele>
        <time>2021-05-01T00:01:54.000Z</time>
      </trkpt>
      <trkpt lat="4.818322202190757" lon="-75.70142168551683">
        <ele>1394.2</ele>
        <time>2021-05-01T00:01:57.000Z</time>
      </trkpt>
      <trkpt lat="4.818335697054863" lon="-75.70142646320164">
        <ele>1394</ele>
        <time>2021-05-01T00:01:58.000Z</time>
      </trkpt>
      <trkpt lat="4.818435693159699" lon="-75.70142646320164">
        <ele>1392.6</ele>
        <time>2021-05-01T00:02:07.000Z</time>
      </trkpt>
      <trkpt lat="4.818508783355355" lon="-75.70143777877092">
        <ele>1391.6</ele>
        <time>2021-05-01T00:02:14.000Z</time>
      </trkpt>
      <trkpt lat="4.81851926073432" lon="-75.70143911987543">
        <ele>1391.6</ele>
        <time>2021-05-01T00:02:15.000Z</time>
      </trkpt>
      <trkpt lat="4.818574916571379" lon="-75.70143283344805">
        <ele>1390.6</ele>
        <time>2021-05-01T00:02:21.000Z</time>
      </trkpt>
      <trkpt lat="4.818589668720961" lon="-75.70140735246241">
        <ele>1390</ele>
        <time>2021-05-01T00:02:23.000Z</time>
      </trkpt>
      <trkpt lat="4.818622441962361" lon="-75.70138924755156">
        <ele>1389.4</ele>
        <time>2021-05-01T00:02:26.000Z</time>
      </trkpt>
      <trkpt lat="4.818651275709271" lon="-75.70137977600098">
        <ele>1388.8</ele>
        <time>2021-05-01T00:02:28.000Z</time>
      </trkpt>
      <trkpt lat="4.818669045343995" lon="-75.70137550123036">
        <ele>1388.4</ele>
        <time>2021-05-01T00:02:30.000Z</time>
      </trkpt>
      <trkpt lat="4.818691089749336" lon="-75.70136066526175">
        <ele>1388</ele>
        <time>2021-05-01T00:02:32.000Z</time>
      </trkpt>
      <trkpt lat="4.818714391440153" lon="-75.70134272798896">
        <ele>1387.4</ele>
        <time>2021-05-01T00:02:34.000Z</time>
      </trkpt>
      <trkpt lat="4.818748757243156" lon="-75.70133124478161">
        <ele>1387.2</ele>
        <time>2021-05-01T00:02:36.000Z</time>
      </trkpt>
      <trkpt lat="4.818780524656177" lon="-75.70132336579263">
        <ele>1387</ele>
        <time>2021-05-01T00:02:38.000Z</time>
      </trkpt>
      <trkpt lat="4.818812627345324" lon="-75.70133065804839">
        <ele>1387</ele>
        <time>2021-05-01T00:02:41.000Z</time>
      </trkpt>
      <trkpt lat="4.818835845217109" lon="-75.70132889784873">
        <ele>1386.8</ele>
        <time>2021-05-01T00:02:43.000Z</time>
      </trkpt>
      <trkpt lat="4.818847496062517" lon="-75.70132747292519">
        <ele>1386.8</ele>
        <time>2021-05-01T00:02:44.000Z</time>
      </trkpt>
      <trkpt lat="4.818856464698911" lon="-75.70133493281901">
        <ele>1386.8</ele>
        <time>2021-05-01T00:02:45.000Z</time>
      </trkpt>
      <trkpt lat="4.818873731419444" lon="-75.70136301219463">
        <ele>1387.2</ele>
        <time>2021-05-01T00:02:48.000Z</time>
      </trkpt>
      <trkpt lat="4.818876413628459" lon="-75.7013750821352">
        <ele>1387.4</ele>
        <time>2021-05-01T00:02:49.000Z</time>
      </trkpt>
      <trkpt lat="4.81890625320375" lon="-75.7014977093786">
        <ele>1388.8</ele>
        <time>2021-05-01T00:02:56.000Z</time>
      </trkpt>
      <trkpt lat="4.818912539631128" lon="-75.701525202021">
        <ele>1389.2</ele>
        <time>2021-05-01T00:03:01.000Z</time>
      </trkpt>
      <trkpt lat="4.818941876292229" lon="-75.70157440379262">
        <ele>1389.6</ele>
        <time>2021-05-01T00:03:08.000Z</time>
      </trkpt>
      <trkpt lat="4.818939194083214" lon="-75.70159133523703">
        <ele>1389.8</ele>
        <time>2021-05-01T00:03:09.000Z</time>
      </trkpt>
      <trkpt lat="4.8189307283610106" lon="-75.70165880955756">
        <ele>1390.4</ele>
        <time>2021-05-01T00:03:15.000Z</time>
      </trkpt>
      <trkpt lat="4.818932069465518" lon="-75.7016737293452">
        <ele>1390.6</ele>
        <time>2021-05-01T00:03:17.000Z</time>
      </trkpt>
      <trkpt lat="4.818907929584384" lon="-75.701704910025">
        <ele>1391</ele>
        <time>2021-05-01T00:03:23.000Z</time>
      </trkpt>
      <trkpt lat="4.818905750289559" lon="-75.70176986977458">
        <ele>1391</ele>
        <time>2021-05-01T00:03:30.000Z</time>
      </trkpt>
      <trkpt lat="4.81890725903213" lon="-75.7017812691629">
        <ele>1390.8</ele>
        <time>2021-05-01T00:03:31.000Z</time>
      </trkpt>
      <trkpt lat="4.818926369771361" lon="-75.7018669322133">
        <ele>1389.4</ele>
        <time>2021-05-01T00:03:38.000Z</time>
      </trkpt>
      <trkpt lat="4.818922597914934" lon="-75.70188897661865">
        <ele>1389.2</ele>
        <time>2021-05-01T00:03:40.000Z</time>
      </trkpt>
      <trkpt lat="4.818921005353332" lon="-75.701918983832">
        <ele>1388.8</ele>
        <time>2021-05-01T00:03:43.000Z</time>
      </trkpt>
      <trkpt lat="4.818921508267522" lon="-75.70195594802499">
        <ele>1388.2</ele>
        <time>2021-05-01T00:03:46.000Z</time>
      </trkpt>
      <trkpt lat="4.818922933191061" lon="-75.70196634158492">
        <ele>1388</ele>
        <time>2021-05-01T00:03:47.000Z</time>
      </trkpt>
      <trkpt lat="4.818932907655835" lon="-75.70199836045504">
        <ele>1387.6</ele>
        <time>2021-05-01T00:03:50.000Z</time>
      </trkpt>
      <trkpt lat="4.8189209215343" lon="-75.70201613008976">
        <ele>1387.4</ele>
        <time>2021-05-01T00:03:53.000Z</time>
      </trkpt>
      <trkpt lat="4.818916646763682" lon="-75.70206281729043">
        <ele>1387</ele>
        <time>2021-05-01T00:03:58.000Z</time>
      </trkpt>
      <trkpt lat="4.818919496610761" lon="-75.7021161261946">
        <ele>1386.6</ele>
        <time>2021-05-01T00:04:03.000Z</time>
      </trkpt>
      <trkpt lat="4.818934919312596" lon="-75.70218401961029">
        <ele>1386</ele>
        <time>2021-05-01T00:04:09.000Z</time>
      </trkpt>
      <trkpt lat="4.818937266245484" lon="-75.70221553556621">
        <ele>1385.8</ele>
        <time>2021-05-01T00:04:11.000Z</time>
      </trkpt>
      <trkpt lat="4.818945229053497" lon="-75.70224294438958">
        <ele>1385.4</ele>
        <time>2021-05-01T00:04:14.000Z</time>
      </trkpt>
      <trkpt lat="4.818951096385717" lon="-75.70224420167506">
        <ele>1385.4</ele>
        <time>2021-05-01T00:04:15.000Z</time>
      </trkpt>
      <trkpt lat="4.818970374763012" lon="-75.70227831602097">
        <ele>1385</ele>
        <time>2021-05-01T00:04:23.000Z</time>
      </trkpt>
      <trkpt lat="4.8189660999923944" lon="-75.70234428159893">
        <ele>1385.4</ele>
        <time>2021-05-01T00:04:30.000Z</time>
      </trkpt>
      <trkpt lat="4.818968614563346" lon="-75.70241460576653">
        <ele>1385.6</ele>
        <time>2021-05-01T00:04:35.000Z</time>
      </trkpt>
      <trkpt lat="4.81898739002645" lon="-75.70249825716019">
        <ele>1385.6</ele>
        <time>2021-05-01T00:04:41.000Z</time>
      </trkpt>
      <trkpt lat="4.819005411118269" lon="-75.70255600847304">
        <ele>1385.6</ele>
        <time>2021-05-01T00:04:44.000Z</time>
      </trkpt>
      <trkpt lat="4.8190149664878845" lon="-75.70258794352412">
        <ele>1385.2</ele>
        <time>2021-05-01T00:04:46.000Z</time>
      </trkpt>
      <trkpt lat="4.81903332285583" lon="-75.7026290986687">
        <ele>1384.4</ele>
        <time>2021-05-01T00:04:50.000Z</time>
      </trkpt>
      <trkpt lat="4.8190635815262794" lon="-75.70269062183797">
        <ele>1383.4</ele>
        <time>2021-05-01T00:04:55.000Z</time>
      </trkpt>
      <trkpt lat="4.819066682830453" lon="-75.70270378142595">
        <ele>1383.2</ele>
        <time>2021-05-01T00:04:56.000Z</time>
      </trkpt>
      <trkpt lat="4.819063078612089" lon="-75.70272616110742">
        <ele>1383</ele>
        <time>2021-05-01T00:04:58.000Z</time>
      </trkpt>
      <trkpt lat="4.819062324240804" lon="-75.70274326018989">
        <ele>1382.8</ele>
        <time>2021-05-01T00:05:00.000Z</time>
      </trkpt>
      <trkpt lat="4.819073304533958" lon="-75.70282381027937">
        <ele>1381.8</ele>
        <time>2021-05-01T00:05:07.000Z</time>
      </trkpt>
      <trkpt lat="4.819085290655494" lon="-75.7028410769999">
        <ele>1381.2</ele>
        <time>2021-05-01T00:05:08.000Z</time>
      </trkpt>
      <trkpt lat="4.819090319797397" lon="-75.7028685696423">
        <ele>1380.4</ele>
        <time>2021-05-01T00:05:10.000Z</time>
      </trkpt>
      <trkpt lat="4.819091912358999" lon="-75.70289723575115">
        <ele>1379.6</ele>
        <time>2021-05-01T00:05:13.000Z</time>
      </trkpt>
      <trkpt lat="4.81908755376935" lon="-75.70290645584464">
        <ele>1379.4</ele>
        <time>2021-05-01T00:05:14.000Z</time>
      </trkpt>
      <trkpt lat="4.819087218493223" lon="-75.70297300815582">
        <ele>1377.4</ele>
        <time>2021-05-01T00:05:19.000Z</time>
      </trkpt>
      <trkpt lat="4.819089733064175" lon="-75.70303151383996">
        <ele>1376</ele>
        <time>2021-05-01T00:05:23.000Z</time>
      </trkpt>
      <trkpt lat="4.819087805226445" lon="-75.70306445471942">
        <ele>1375.4</ele>
        <time>2021-05-01T00:05:27.000Z</time>
      </trkpt>
      <trkpt lat="4.819085709750652" lon="-75.70309027098119">
        <ele>1375</ele>
        <time>2021-05-01T00:05:30.000Z</time>
      </trkpt>
      <trkpt lat="4.819078082218766" lon="-75.7031206972897">
        <ele>1374.6</ele>
        <time>2021-05-01T00:05:33.000Z</time>
      </trkpt>
      <trkpt lat="4.819077327847481" lon="-75.70314073003829">
        <ele>1374.6</ele>
        <time>2021-05-01T00:05:35.000Z</time>
      </trkpt>
      <trkpt lat="4.819093672558665" lon="-75.70321541279554">
        <ele>1374.2</ele>
        <time>2021-05-01T00:05:42.000Z</time>
      </trkpt>
      <trkpt lat="4.819102976471186" lon="-75.70324768312275">
        <ele>1374</ele>
        <time>2021-05-01T00:05:45.000Z</time>
      </trkpt>
      <trkpt lat="4.81910758651793" lon="-75.70328020490706">
        <ele>1374</ele>
        <time>2021-05-01T00:05:48.000Z</time>
      </trkpt>
      <trkpt lat="4.81910808943212" lon="-75.70329135283828">
        <ele>1374.2</ele>
        <time>2021-05-01T00:05:49.000Z</time>
      </trkpt>
      <trkpt lat="4.8191003780812025" lon="-75.70334868505597">
        <ele>1374.2</ele>
        <time>2021-05-01T00:05:56.000Z</time>
      </trkpt>
      <trkpt lat="4.819093337282538" lon="-75.70335337892175">
        <ele>1374.2</ele>
        <time>2021-05-01T00:05:57.000Z</time>
      </trkpt>
      <trkpt lat="4.819093756377697" lon="-75.70337450131774">
        <ele>1374.4</ele>
        <time>2021-05-01T00:05:59.000Z</time>
      </trkpt>
      <trkpt lat="4.819103563204408" lon="-75.70340685546398">
        <ele>1374.4</ele>
        <time>2021-05-01T00:06:01.000Z</time>
      </trkpt>
      <trkpt lat="4.819124015048146" lon="-75.70347147993743">
        <ele>1374.6</ele>
        <time>2021-05-01T00:06:07.000Z</time>
      </trkpt>
      <trkpt lat="4.819137929007411" lon="-75.70349536836147">
        <ele>1374.6</ele>
        <time>2021-05-01T00:06:10.000Z</time>
      </trkpt>
      <trkpt lat="4.819149579852819" lon="-75.70353769697249">
        <ele>1374.6</ele>
        <time>2021-05-01T00:06:16.000Z</time>
      </trkpt>
      <trkpt lat="4.819155028089881" lon="-75.70362118072808">
        <ele>1374.6</ele>
        <time>2021-05-01T00:06:23.000Z</time>
      </trkpt>
      <trkpt lat="4.819170283153653" lon="-75.70366594009101">
        <ele>1374.6</ele>
        <time>2021-05-01T00:06:28.000Z</time>
      </trkpt>
      <trkpt lat="4.819171205163002" lon="-75.70367968641222">
        <ele>1374.6</ele>
        <time>2021-05-01T00:06:29.000Z</time>
      </trkpt>
      <trkpt lat="4.819173635914922" lon="-75.70372737944126">
        <ele>1374.2</ele>
        <time>2021-05-01T00:06:32.000Z</time>
      </trkpt>
      <trkpt lat="4.819173216819763" lon="-75.70375017821789">
        <ele>1374.2</ele>
        <time>2021-05-01T00:06:34.000Z</time>
      </trkpt>
      <trkpt lat="4.819184197112918" lon="-75.70377540774643">
        <ele>1373.6</ele>
        <time>2021-05-01T00:06:39.000Z</time>
      </trkpt>
      <trkpt lat="4.8191875498741865" lon="-75.70376886986196">
        <ele>1373.6</ele>
        <time>2021-05-01T00:06:45.000Z</time>
      </trkpt>
      <trkpt lat="4.819203643128276" lon="-75.70377674885094">
        <ele>1373.4</ele>
        <time>2021-05-01T00:06:50.000Z</time>
      </trkpt>
      <trkpt lat="4.819207163527608" lon="-75.70378856733441">
        <ele>1373.2</ele>
        <time>2021-05-01T00:06:53.000Z</time>
      </trkpt>
      <trkpt lat="4.8191893100738525" lon="-75.70378144271672">
        <ele>1373.4</ele>
        <time>2021-05-01T00:06:57.000Z</time>
      </trkpt>
      <trkpt lat="4.819188639521599" lon="-75.70377808995545">
        <ele>1373.4</ele>
        <time>2021-05-01T00:06:58.000Z</time>
      </trkpt>
      <trkpt lat="4.819192076101899" lon="-75.70377808995545">
        <ele>1373.4</ele>
        <time>2021-05-01T00:07:03.000Z</time>
      </trkpt>
      <trkpt lat="4.819196937605739" lon="-75.70378462783992">
        <ele>1373.4</ele>
        <time>2021-05-01T00:07:18.000Z</time>
      </trkpt>
      <trkpt lat="4.819220574572682" lon="-75.70380901917815">
        <ele>1372.8</ele>
        <time>2021-05-01T00:07:31.000Z</time>
      </trkpt>
      <trkpt lat="4.819212444126606" lon="-75.70384036749601">
        <ele>1372.2</ele>
        <time>2021-05-01T00:07:34.000Z</time>
      </trkpt>
      <trkpt lat="4.819215210154653" lon="-75.70386660285294">
        <ele>1371.8</ele>
        <time>2021-05-01T00:07:36.000Z</time>
      </trkpt>
      <trkpt lat="4.819230046123266" lon="-75.70391949266195">
        <ele>1370.6</ele>
        <time>2021-05-01T00:07:40.000Z</time>
      </trkpt>
      <trkpt lat="4.819226861000061" lon="-75.70392670109868">
        <ele>1370.6</ele>
        <time>2021-05-01T00:07:41.000Z</time>
      </trkpt>
      <trkpt lat="4.819228453561664" lon="-75.70400322787464">
        <ele>1369.4</ele>
        <time>2021-05-01T00:07:48.000Z</time>
      </trkpt>
      <trkpt lat="4.819236835464835" lon="-75.70401043631136">
        <ele>1369.2</ele>
        <time>2021-05-01T00:07:49.000Z</time>
      </trkpt>
      <trkpt lat="4.819244462996721" lon="-75.70402644574642">
        <ele>1368.8</ele>
        <time>2021-05-01T00:07:51.000Z</time>
      </trkpt>
      <trkpt lat="4.81926005333662" lon="-75.70408143103123">
        <ele>1367.4</ele>
        <time>2021-05-01T00:07:56.000Z</time>
      </trkpt>
      <trkpt lat="4.8192717880010605" lon="-75.70417497307062">
        <ele>1365.6</ele>
        <time>2021-05-01T00:08:04.000Z</time>
      </trkpt>
      <trkpt lat="4.819297604262829" lon="-75.70424973964691">
        <ele>1364.8</ele>
        <time>2021-05-01T00:08:13.000Z</time>
      </trkpt>
      <trkpt lat="4.819328533485532" lon="-75.70425661280751">
        <ele>1364.4</ele>
        <time>2021-05-01T00:08:16.000Z</time>
      </trkpt>
      <trkpt lat="4.8193825129419565" lon="-75.70424948818982">
        <ele>1363.8</ele>
        <time>2021-05-01T00:08:20.000Z</time>
      </trkpt>
      <trkpt lat="4.8194157890975475" lon="-75.70424227975309">
        <ele>1363.4</ele>
        <time>2021-05-01T00:08:23.000Z</time>
      </trkpt>
      <trkpt lat="4.81937438249588" lon="-75.70418268442154">
        <ele>1370.4</ele>
        <time>2021-04-30T21:35:46.000Z</time>
      </trkpt>
      <trkpt lat="4.819400366395712" lon="-75.70417924784124">
        <ele>1370</ele>
        <time>2021-04-30T21:35:47.000Z</time>
      </trkpt>
      <trkpt lat="4.81939391233027" lon="-75.70418938994408">
        <ele>1370</ele>
        <time>2021-04-30T21:35:52.000Z</time>
      </trkpt>
      <trkpt lat="4.819395253434777" lon="-75.70419291034341">
        <ele>1370</ele>
        <time>2021-04-30T21:35:53.000Z</time>
      </trkpt>
      <trkpt lat="4.81941444799304" lon="-75.70417103357613">
        <ele>1369.6</ele>
        <time>2021-04-30T21:35:59.000Z</time>
      </trkpt>
      <trkpt lat="4.819441689178348" lon="-75.70416348986328">
        <ele>1369.2</ele>
        <time>2021-04-30T21:36:06.000Z</time>
      </trkpt>
      <trkpt lat="4.819450573995709" lon="-75.70416642352939">
        <ele>1369</ele>
        <time>2021-04-30T21:36:11.000Z</time>
      </trkpt>
      <trkpt lat="4.819458117708564" lon="-75.70417011156678">
        <ele>1368.8</ele>
        <time>2021-04-30T21:36:13.000Z</time>
      </trkpt>
      <trkpt lat="4.819488292559981" lon="-75.70413205772638">
        <ele>1368.2</ele>
        <time>2021-04-30T21:36:21.000Z</time>
      </trkpt>
      <trkpt lat="4.81949214823544" lon="-75.70418142713606">
        <ele>1368.2</ele>
        <time>2021-04-30T21:36:27.000Z</time>
      </trkpt>
      <trkpt lat="4.819498350843787" lon="-75.70418000221252">
        <ele>1368</ele>
        <time>2021-04-30T21:36:30.000Z</time>
      </trkpt>
      <trkpt lat="4.819498602300882" lon="-75.70419827476144">
        <ele>1368</ele>
        <time>2021-04-30T21:36:35.000Z</time>
      </trkpt>
      <trkpt lat="4.819507654756308" lon="-75.7042190618813">
        <ele>1367.8</ele>
        <time>2021-04-30T21:36:40.000Z</time>
      </trkpt>
      <trkpt lat="4.819502709433436" lon="-75.70421193726361">
        <ele>1368</ele>
        <time>2021-04-30T21:36:41.000Z</time>
      </trkpt>
      <trkpt lat="4.81949700973928" lon="-75.70419006049633">
        <ele>1368</ele>
        <time>2021-04-30T21:36:44.000Z</time>
      </trkpt>
      <trkpt lat="4.819495668634772" lon="-75.70415318012238">
        <ele>1368.2</ele>
        <time>2021-04-30T21:36:46.000Z</time>
      </trkpt>
      <trkpt lat="4.819491896778345" lon="-75.7041397690773">
        <ele>1368.2</ele>
        <time>2021-04-30T21:36:48.000Z</time>
      </trkpt>
      <trkpt lat="4.819487035274506" lon="-75.70414488203824">
        <ele>1368.2</ele>
        <time>2021-04-30T21:36:49.000Z</time>
      </trkpt>
      <trkpt lat="4.8194794077426195" lon="-75.70415443740785">
        <ele>1368.4</ele>
        <time>2021-04-30T21:36:51.000Z</time>
      </trkpt>
      <trkpt lat="4.819467756897211" lon="-75.70414354093373">
        <ele>1368.6</ele>
        <time>2021-04-30T21:36:55.000Z</time>
      </trkpt>
      <trkpt lat="4.819469265639782" lon="-75.70413826033473">
        <ele>1368.6</ele>
        <time>2021-04-30T21:37:01.000Z</time>
      </trkpt>
      <trkpt lat="4.819461805745959" lon="-75.70413348264992">
        <ele>1368.8</ele>
        <time>2021-04-30T21:37:10.000Z</time>
      </trkpt>
      <trkpt lat="4.819458117708564" lon="-75.70413876324892">
        <ele>1368.8</ele>
        <time>2021-04-30T21:37:12.000Z</time>
      </trkpt>
      <trkpt lat="4.81947211548686" lon="-75.70414488203824">
        <ele>1368.6</ele>
        <time>2021-04-30T21:37:17.000Z</time>
      </trkpt>
      <trkpt lat="4.819467840716243" lon="-75.70413934998214">
        <ele>1368.6</ele>
        <time>2021-04-30T21:37:18.000Z</time>
      </trkpt>
      <trkpt lat="4.819462057203054" lon="-75.70413624867797">
        <ele>1368.8</ele>
        <time>2021-04-30T21:37:20.000Z</time>
      </trkpt>
      <trkpt lat="4.819457195699215" lon="-75.70417338050902">
        <ele>1368.8</ele>
        <time>2021-04-30T21:37:25.000Z</time>
      </trkpt>
      <trkpt lat="4.819460799917579" lon="-75.70418251678348">
        <ele>1368.8</ele>
        <time>2021-04-30T21:37:32.000Z</time>
      </trkpt>
      <trkpt lat="4.819464068859816" lon="-75.70416323840618">
        <ele>1368.8</ele>
        <time>2021-04-30T21:37:42.000Z</time>
      </trkpt>
      <trkpt lat="4.819467253983021" lon="-75.70416399277747">
        <ele>1368.6</ele>
        <time>2021-04-30T21:37:47.000Z</time>
      </trkpt>
      <trkpt lat="4.819467170163989" lon="-75.70414915680885">
        <ele>1368.6</ele>
        <time>2021-04-30T21:37:49.000Z</time>
      </trkpt>
      <trkpt lat="4.819464655593038" lon="-75.7041347399354">
        <ele>1368.6</ele>
        <time>2021-04-30T21:37:51.000Z</time>
      </trkpt>
      <trkpt lat="4.819468427449465" lon="-75.70413599722087">
        <ele>1368.6</ele>
        <time>2021-04-30T21:37:54.000Z</time>
      </trkpt>
      <trkpt lat="4.819471193477511" lon="-75.70413532666862">
        <ele>1368.6</ele>
        <time>2021-04-30T21:37:58.000Z</time>
      </trkpt>
      <trkpt lat="4.819471025839448" lon="-75.7041326444596">
        <ele>1368.6</ele>
        <time>2021-04-30T21:38:00.000Z</time>
      </trkpt>
      <trkpt lat="4.819464739412069" lon="-75.7041326444596">
        <ele>1368.6</ele>
        <time>2021-04-30T21:38:04.000Z</time>
      </trkpt>
      <trkpt lat="4.8194661643356085" lon="-75.70414077490568">
        <ele>1368.6</ele>
        <time>2021-04-30T21:38:06.000Z</time>
      </trkpt>
      <trkpt lat="4.819469014182687" lon="-75.70414429530501">
        <ele>1368.6</ele>
        <time>2021-04-30T21:38:07.000Z</time>
      </trkpt>
      <trkpt lat="4.819441521540284" lon="-75.70415401831269">
        <ele>1369.2</ele>
        <time>2021-04-30T21:38:14.000Z</time>
      </trkpt>
      <trkpt lat="4.81943741440773" lon="-75.70415611378849">
        <ele>1369.2</ele>
        <time>2021-04-30T21:38:16.000Z</time>
      </trkpt>
      <trkpt lat="4.819446047767997" lon="-75.70416457951069">
        <ele>1369</ele>
        <time>2021-04-30T21:38:18.000Z</time>
      </trkpt>
      <trkpt lat="4.819451412186027" lon="-75.70416516624391">
        <ele>1369</ele>
        <time>2021-04-30T21:38:20.000Z</time>
      </trkpt>
      <trkpt lat="4.819451998919249" lon="-75.70416457951069">
        <ele>1369</ele>
        <time>2021-04-30T21:38:22.000Z</time>
      </trkpt>
      <trkpt lat="4.819447724148631" lon="-75.70416684262455">
        <ele>1369</ele>
        <time>2021-04-30T21:38:23.000Z</time>
      </trkpt>
      <trkpt lat="4.8194673378020525" lon="-75.70416608825326">
        <ele>1368.6</ele>
        <time>2021-04-30T21:38:32.000Z</time>
      </trkpt>
      <trkpt lat="4.8194673378020525" lon="-75.70416608825326">
        <ele>1368.6</ele>
        <time>2021-04-30T21:38:37.000Z</time>
      </trkpt>
      <trkpt lat="4.819461805745959" lon="-75.70416608825326">
        <ele>1368.8</ele>
        <time>2021-04-30T21:38:46.000Z</time>
      </trkpt>
      <trkpt lat="4.819457195699215" lon="-75.70416768081486">
        <ele>1368.8</ele>
        <time>2021-04-30T21:38:54.000Z</time>
      </trkpt>
      <trkpt lat="4.819453842937946" lon="-75.70417690090835">
        <ele>1369</ele>
        <time>2021-04-30T21:39:01.000Z</time>
      </trkpt>
      <trkpt lat="4.819448729977012" lon="-75.70417187176645">
        <ele>1369</ele>
        <time>2021-04-30T21:39:41.000Z</time>
      </trkpt>
      <trkpt lat="4.819428948685527" lon="-75.70417203940451">
        <ele>1369.4</ele>
        <time>2021-04-30T21:39:57.000Z</time>
      </trkpt>
      <trkpt lat="4.819430960342288" lon="-75.7041659206152">
        <ele>1369.4</ele>
        <time>2021-04-30T21:40:01.000Z</time>
      </trkpt>
      <trkpt lat="4.819422410801053" lon="-75.70416072383523">
        <ele>1369.6</ele>
        <time>2021-04-30T21:40:02.000Z</time>
      </trkpt>
      <trkpt lat="4.819414196535945" lon="-75.70414815098047">
        <ele>1369.6</ele>
        <time>2021-04-30T21:40:05.000Z</time>
      </trkpt>
      <trkpt lat="4.819450825452805" lon="-75.70414035581052">
        <ele>1369</ele>
        <time>2021-04-30T21:40:08.000Z</time>
      </trkpt>
      <trkpt lat="4.819459291175008" lon="-75.70414513349533">
        <ele>1368.8</ele>
        <time>2021-04-30T21:40:11.000Z</time>
      </trkpt>
      <trkpt lat="4.81944914907217" lon="-75.70415619760752">
        <ele>1369</ele>
        <time>2021-04-30T21:40:15.000Z</time>
      </trkpt>
      <trkpt lat="4.819453088566661" lon="-75.70415393449366">
        <ele>1369</ele>
        <time>2021-04-30T21:40:17.000Z</time>
      </trkpt>
      <trkpt lat="4.819468930363655" lon="-75.70416550152004">
        <ele>1368.6</ele>
        <time>2021-04-30T21:40:24.000Z</time>
      </trkpt>
      <trkpt lat="4.819464907050133" lon="-75.70417086593807">
        <ele>1368.6</ele>
        <time>2021-04-30T21:40:35.000Z</time>
      </trkpt>
      <trkpt lat="4.819430541247129" lon="-75.7041672617197">
        <ele>1369.4</ele>
        <time>2021-04-30T21:41:14.000Z</time>
      </trkpt>
      <trkpt lat="4.819430541247129" lon="-75.7041672617197">
        <ele>1369.4</ele>
        <time>2021-04-30T21:41:16.000Z</time>
      </trkpt>
      <trkpt lat="4.819431211799383" lon="-75.70416994392872">
        <ele>1369.4</ele>
        <time>2021-04-30T21:41:19.000Z</time>
      </trkpt>
      <trkpt lat="4.819437749683857" lon="-75.70417975075543">
        <ele>1369.2</ele>
        <time>2021-04-30T21:41:24.000Z</time>
      </trkpt>
      <trkpt lat="4.81944914907217" lon="-75.70416390895844">
        <ele>1369</ele>
        <time>2021-04-30T21:41:54.000Z</time>
      </trkpt>
      <trkpt lat="4.819450741633773" lon="-75.70415787398815">
        <ele>1369</ele>
        <time>2021-04-30T21:42:13.000Z</time>
      </trkpt>
      <trkpt lat="4.81945744715631" lon="-75.70414471440017">
        <ele>1368.8</ele>
        <time>2021-04-30T21:43:04.000Z</time>
      </trkpt>
      <trkpt lat="4.819464571774006" lon="-75.70413591340184">
        <ele>1368.8</ele>
        <time>2021-04-30T21:43:28.000Z</time>
      </trkpt>
      <trkpt lat="4.819467170163989" lon="-75.70413331501186">
        <ele>1368.6</ele>
        <time>2021-04-30T21:43:34.000Z</time>
      </trkpt>
      <trkpt lat="4.8194702714681625" lon="-75.704131051898">
        <ele>1368.6</ele>
        <time>2021-04-30T21:44:20.000Z</time>
      </trkpt>
      <trkpt lat="4.819466415792704" lon="-75.7041294593364">
        <ele>1368.6</ele>
        <time>2021-04-30T21:45:52.000Z</time>
      </trkpt>
      <trkpt lat="4.819466331973672" lon="-75.70412937551737">
        <ele>1368.6</ele>
        <time>2021-04-30T21:45:55.000Z</time>
      </trkpt>
      <trkpt lat="4.81946624815464" lon="-75.70412937551737">
        <ele>1368.6</ele>
        <time>2021-04-30T21:45:58.000Z</time>
      </trkpt>
      <trkpt lat="4.81945501640439" lon="-75.70413683541119">
        <ele>1368.8</ele>
        <time>2021-04-30T21:46:01.000Z</time>
      </trkpt>
      <trkpt lat="4.819439593702555" lon="-75.70413742214441">
        <ele>1369.2</ele>
        <time>2021-04-30T21:46:03.000Z</time>
      </trkpt>
      <trkpt lat="4.819425344467163" lon="-75.70414111018181">
        <ele>1369.4</ele>
        <time>2021-04-30T21:46:06.000Z</time>
      </trkpt>
      <trkpt lat="4.8194249253720045" lon="-75.70413851179183">
        <ele>1369.4</ele>
        <time>2021-04-30T21:46:09.000Z</time>
      </trkpt>
      <trkpt lat="4.819426015019417" lon="-75.70412543602288">
        <ele>1369.4</ele>
        <time>2021-04-30T21:46:12.000Z</time>
      </trkpt>
      <trkpt lat="4.81942618265748" lon="-75.70412334054708">
        <ele>1369.4</ele>
        <time>2021-04-30T21:46:13.000Z</time>
      </trkpt>
      <trkpt lat="4.819436492398381" lon="-75.70410758256912">
        <ele>1369.2</ele>
        <time>2021-04-30T21:46:17.000Z</time>
      </trkpt>
      <trkpt lat="4.8194340616464615" lon="-75.70414144545794">
        <ele>1369.2</ele>
        <time>2021-04-30T21:46:21.000Z</time>
      </trkpt>
      <trkpt lat="4.819402042776346" lon="-75.70414857007563">
        <ele>1370</ele>
        <time>2021-04-30T21:46:26.000Z</time>
      </trkpt>
      <trkpt lat="4.819401623681188" lon="-75.70415041409433">
        <ele>1370</ele>
        <time>2021-04-30T21:46:30.000Z</time>
      </trkpt>
      <trkpt lat="4.8193957563489676" lon="-75.70416457951069">
        <ele>1370</ele>
        <time>2021-04-30T21:46:37.000Z</time>
      </trkpt>
      <trkpt lat="4.819423500448465" lon="-75.70419073104858">
        <ele>1369.4</ele>
        <time>2021-04-30T21:46:41.000Z</time>
      </trkpt>
      <trkpt lat="4.819405982270837" lon="-75.70423448458314">
        <ele>1369.8</ele>
        <time>2021-04-30T21:46:47.000Z</time>
      </trkpt>
      <trkpt lat="4.819382932037115" lon="-75.7042259350419">
        <ele>1370.2</ele>
        <time>2021-04-30T21:46:56.000Z</time>
      </trkpt>
      <trkpt lat="4.819363905116916" lon="-75.70423104800284">
        <ele>1370.6</ele>
        <time>2021-04-30T21:47:02.000Z</time>
      </trkpt>
      <trkpt lat="4.819324258714914" lon="-75.70423104800284">
        <ele>1371.4</ele>
        <time>2021-04-30T21:47:11.000Z</time>
      </trkpt>
      <trkpt lat="4.819283690303564" lon="-75.70420674048364">
        <ele>1372.2</ele>
        <time>2021-04-30T21:47:19.000Z</time>
      </trkpt>
      <trkpt lat="4.819276900961995" lon="-75.70421864278615">
        <ele>1372.4</ele>
        <time>2021-04-30T21:47:26.000Z</time>
      </trkpt>
      <trkpt lat="4.819271033629775" lon="-75.70422702468932">
        <ele>1372.4</ele>
        <time>2021-04-30T21:47:29.000Z</time>
      </trkpt>
      <trkpt lat="4.819272458553314" lon="-75.70423373021185">
        <ele>1372.4</ele>
        <time>2021-04-30T21:47:34.000Z</time>
      </trkpt>
      <trkpt lat="4.819271117448807" lon="-75.70423272438347">
        <ele>1372.4</ele>
        <time>2021-04-30T21:47:39.000Z</time>
      </trkpt>
      <trkpt lat="4.819264160469174" lon="-75.70418436080217">
        <ele>1372.6</ele>
        <time>2021-04-30T21:47:46.000Z</time>
      </trkpt>
      <trkpt lat="4.819234907627106" lon="-75.70401035249233">
        <ele>1372.8</ele>
        <time>2021-04-30T21:47:53.000Z</time>
      </trkpt>
      <trkpt lat="4.819210767745972" lon="-75.7038184069097">
        <ele>1373.6</ele>
        <time>2021-04-30T21:47:58.000Z</time>
      </trkpt>
      <trkpt lat="4.819195764139295" lon="-75.70362914353609">
        <ele>1375.4</ele>
        <time>2021-04-30T21:48:01.000Z</time>
      </trkpt>
      <trkpt lat="4.819178748875856" lon="-75.70347147993743">
        <ele>1377</ele>
        <time>2021-04-30T21:48:03.000Z</time>
      </trkpt>
      <trkpt lat="4.819139940664172" lon="-75.70321390405297">
        <ele>1378.2</ele>
        <time>2021-04-30T21:48:06.000Z</time>
      </trkpt>
      <trkpt lat="4.819117980077863" lon="-75.70312312804163">
        <ele>1378.6</ele>
        <time>2021-04-30T21:48:07.000Z</time>
      </trkpt>
      <trkpt lat="4.8190924152731895" lon="-75.7029430847615">
        <ele>1379.6</ele>
        <time>2021-04-30T21:48:09.000Z</time>
      </trkpt>
      <trkpt lat="4.819074645638466" lon="-75.7027562521398">
        <ele>1381.2</ele>
        <time>2021-04-30T21:48:11.000Z</time>
      </trkpt>
      <trkpt lat="4.819048745557666" lon="-75.70255391299725">
        <ele>1383</ele>
        <time>2021-04-30T21:48:13.000Z</time>
      </trkpt>
      <trkpt lat="4.819022174924612" lon="-75.7023666612804">
        <ele>1385</ele>
        <time>2021-04-30T21:48:15.000Z</time>
      </trkpt>
      <trkpt lat="4.818997196853161" lon="-75.70219030603766">
        <ele>1386.8</ele>
        <time>2021-04-30T21:48:17.000Z</time>
      </trkpt>
      <trkpt lat="4.818971883505583" lon="-75.70193440653384">
        <ele>1388.6</ele>
        <time>2021-04-30T21:48:20.000Z</time>
      </trkpt>
      <trkpt lat="4.8189460672438145" lon="-75.70167381316423">
        <ele>1389.8</ele>
        <time>2021-04-30T21:48:23.000Z</time>
      </trkpt>
      <trkpt lat="4.81893508695066" lon="-75.70158555172384">
        <ele>1390.2</ele>
        <time>2021-04-30T21:48:24.000Z</time>
      </trkpt>
      <trkpt lat="4.818911366164684" lon="-75.7013288140297">
        <ele>1391</ele>
        <time>2021-04-30T21:48:27.000Z</time>
      </trkpt>
      <trkpt lat="4.8188824485987425" lon="-75.70107450708747">
        <ele>1390.2</ele>
        <time>2021-04-30T21:48:30.000Z</time>
      </trkpt>
      <trkpt lat="4.818861745297909" lon="-75.70086378604174">
        <ele>1389.6</ele>
        <time>2021-04-30T21:48:32.000Z</time>
      </trkpt>
      <trkpt lat="4.818843137472868" lon="-75.70066848769784">
        <ele>1389.2</ele>
        <time>2021-04-30T21:48:34.000Z</time>
      </trkpt>
      <trkpt lat="4.818828385323286" lon="-75.70048433728516">
        <ele>1388.8</ele>
        <time>2021-04-30T21:48:36.000Z</time>
      </trkpt>
      <trkpt lat="4.8188205901533365" lon="-75.70040311664343">
        <ele>1389.2</ele>
        <time>2021-04-30T21:48:37.000Z</time>
      </trkpt>
      <trkpt lat="4.818803071975708" lon="-75.7002008613199">
        <ele>1389.8</ele>
        <time>2021-04-30T21:48:40.000Z</time>
      </trkpt>
      <trkpt lat="4.818795779719949" lon="-75.70012534037232">
        <ele>1390</ele>
        <time>2021-04-30T21:48:41.000Z</time>
      </trkpt>
      <trkpt lat="4.8187684547156096" lon="-75.69993574172258">
        <ele>1390.8</ele>
        <time>2021-04-30T21:48:44.000Z</time>
      </trkpt>
      <trkpt lat="4.8187608271837234" lon="-75.69989358074963">
        <ele>1391</ele>
        <time>2021-04-30T21:48:45.000Z</time>
      </trkpt>
      <trkpt lat="4.818758731707931" lon="-75.69986474700272">
        <ele>1391.2</ele>
        <time>2021-04-30T21:48:46.000Z</time>
      </trkpt>
      <trkpt lat="4.818754540756345" lon="-75.69982401095331">
        <ele>1391.2</ele>
        <time>2021-04-30T21:48:48.000Z</time>
      </trkpt>
      <trkpt lat="4.818698717281222" lon="-75.69962125271559">
        <ele>1392.4</ele>
        <time>2021-04-30T21:48:54.000Z</time>
      </trkpt>
      <trkpt lat="4.8186915926635265" lon="-75.69953382946551">
        <ele>1392.6</ele>
        <time>2021-04-30T21:48:56.000Z</time>
      </trkpt>
      <trkpt lat="4.818683378398418" lon="-75.69948261603713">
        <ele>1392.8</ele>
        <time>2021-04-30T21:48:58.000Z</time>
      </trkpt>
      <trkpt lat="4.818673655390739" lon="-75.6994130462408">
        <ele>1393</ele>
        <time>2021-04-30T21:49:01.000Z</time>
      </trkpt>
      <trkpt lat="4.818661920726299" lon="-75.69938664324582">
        <ele>1393.2</ele>
        <time>2021-04-30T21:49:03.000Z</time>
      </trkpt>
      <trkpt lat="4.818643229082227" lon="-75.69938815198839">
        <ele>1393.2</ele>
        <time>2021-04-30T21:49:07.000Z</time>
      </trkpt>
      <trkpt lat="4.818625878542662" lon="-75.69926946423948">
        <ele>1393.8</ele>
        <time>2021-04-30T21:49:11.000Z</time>
      </trkpt>
      <trkpt lat="4.818609701469541" lon="-75.69905664771795">
        <ele>1394.4</ele>
        <time>2021-04-30T21:49:15.000Z</time>
      </trkpt>
      <trkpt lat="4.818604672327638" lon="-75.69898783229291">
        <ele>1394.6</ele>
        <time>2021-04-30T21:49:16.000Z</time>
      </trkpt>
      <trkpt lat="4.818591345101595" lon="-75.69873528555036">
        <ele>1394.6</ele>
        <time>2021-04-30T21:49:19.000Z</time>
      </trkpt>
      <trkpt lat="4.818584723398089" lon="-75.6986310146749">
        <ele>1394.2</ele>
        <time>2021-04-30T21:49:20.000Z</time>
      </trkpt>
      <trkpt lat="4.8185929376631975" lon="-75.69852816872299">
        <ele>1393.8</ele>
        <time>2021-04-30T21:49:21.000Z</time>
      </trkpt>
      <trkpt lat="4.818575084209442" lon="-75.69839984178543">
        <ele>1393.6</ele>
        <time>2021-04-30T21:49:23.000Z</time>
      </trkpt>
      <trkpt lat="4.818558320403099" lon="-75.69825408048928">
        <ele>1393.2</ele>
        <time>2021-04-30T21:49:25.000Z</time>
      </trkpt>
      <trkpt lat="4.818536192178726" lon="-75.69809809327126">
        <ele>1392.8</ele>
        <time>2021-04-30T21:49:27.000Z</time>
      </trkpt>
      <trkpt lat="4.818520937114954" lon="-75.69788125343621">
        <ele>1392.4</ele>
        <time>2021-04-30T21:49:30.000Z</time>
      </trkpt>
      <trkpt lat="4.8184983897954226" lon="-75.69767975248396">
        <ele>1392.4</ele>
        <time>2021-04-30T21:49:33.000Z</time>
      </trkpt>
      <trkpt lat="4.818483637645841" lon="-75.69749174639583">
        <ele>1392.4</ele>
        <time>2021-04-30T21:49:36.000Z</time>
      </trkpt>
      <trkpt lat="4.81846016831696" lon="-75.69731891155243">
        <ele>1392.4</ele>
        <time>2021-04-30T21:49:38.000Z</time>
      </trkpt>
      <trkpt lat="4.818445751443505" lon="-75.69722285494208">
        <ele>1392.4</ele>
        <time>2021-04-30T21:49:39.000Z</time>
      </trkpt>
      <trkpt lat="4.8184144869446754" lon="-75.69694675505161">
        <ele>1392.8</ele>
        <time>2021-04-30T21:49:42.000Z</time>
      </trkpt>
      <trkpt lat="4.818390095606446" lon="-75.69675045087934">
        <ele>1393.4</ele>
        <time>2021-04-30T21:49:44.000Z</time>
      </trkpt>
      <trkpt lat="4.818375175818801" lon="-75.69665690883994">
        <ele>1393.4</ele>
        <time>2021-04-30T21:49:45.000Z</time>
      </trkpt>
      <trkpt lat="4.818347431719303" lon="-75.696469405666">
        <ele>1393.6</ele>
        <time>2021-04-30T21:49:47.000Z</time>
      </trkpt>
      <trkpt lat="4.818328153342009" lon="-75.69627846591175">
        <ele>1394.2</ele>
        <time>2021-04-30T21:49:49.000Z</time>
      </trkpt>
      <trkpt lat="4.818326560780406" lon="-75.69616933353245">
        <ele>1394.8</ele>
        <time>2021-04-30T21:49:50.000Z</time>
      </trkpt>
      <trkpt lat="4.818324213847518" lon="-75.69605584256351">
        <ele>1395.4</ele>
        <time>2021-04-30T21:49:51.000Z</time>
      </trkpt>
      <trkpt lat="4.81831356883049" lon="-75.69595509208739">
        <ele>1395.8</ele>
        <time>2021-04-30T21:49:52.000Z</time>
      </trkpt>
      <trkpt lat="4.818288339301944" lon="-75.69576993584633">
        <ele>1396.8</ele>
        <time>2021-04-30T21:49:54.000Z</time>
      </trkpt>
      <trkpt lat="4.8182598408311605" lon="-75.69560497999191">
        <ele>1397.4</ele>
        <time>2021-04-30T21:49:56.000Z</time>
      </trkpt>
      <trkpt lat="4.81821340508759" lon="-75.69535125978291">
        <ele>1398.4</ele>
        <time>2021-04-30T21:49:59.000Z</time>
      </trkpt>
      <trkpt lat="4.818173507228494" lon="-75.69509452208877">
        <ele>1399.4</ele>
        <time>2021-04-30T21:50:02.000Z</time>
      </trkpt>
      <trkpt lat="4.818154145032167" lon="-75.69493727758527">
        <ele>1399.8</ele>
        <time>2021-04-30T21:50:04.000Z</time>
      </trkpt>
      <trkpt lat="4.818129502236843" lon="-75.69472563453019">
        <ele>1400.4</ele>
        <time>2021-04-30T21:50:08.000Z</time>
      </trkpt>
      <trkpt lat="4.818122964352369" lon="-75.6947045121342">
        <ele>1400.6</ele>
        <time>2021-04-30T21:50:09.000Z</time>
      </trkpt>
      <trkpt lat="4.818099411204457" lon="-75.69467081688344">
        <ele>1400.6</ele>
        <time>2021-04-30T21:50:11.000Z</time>
      </trkpt>
      <trkpt lat="4.818042414262891" lon="-75.69466914050281">
        <ele>1400.8</ele>
        <time>2021-04-30T21:50:13.000Z</time>
      </trkpt>
      <trkpt lat="4.817996816709638" lon="-75.69468213245273">
        <ele>1401.2</ele>
        <time>2021-04-30T21:50:14.000Z</time>
      </trkpt>
      <trkpt lat="4.8178416676819324" lon="-75.69473611190915">
        <ele>1402.2</ele>
        <time>2021-04-30T21:50:17.000Z</time>
      </trkpt>
      <trkpt lat="4.817808726802468" lon="-75.69474524818361">
        <ele>1402.4</ele>
        <time>2021-04-30T21:50:18.000Z</time>
      </trkpt>
      <trkpt lat="4.817713592201471" lon="-75.69475564174354">
        <ele>1402.8</ele>
        <time>2021-04-30T21:50:20.000Z</time>
      </trkpt>
      <trkpt lat="4.817603789269924" lon="-75.6947423145175">
        <ele>1403.6</ele>
        <time>2021-04-30T21:50:22.000Z</time>
      </trkpt>
      <trkpt lat="4.817519215866923" lon="-75.69472873583436">
        <ele>1404.2</ele>
        <time>2021-04-30T21:50:24.000Z</time>
      </trkpt>
      <trkpt lat="4.817482419312" lon="-75.69473812356591">
        <ele>1404.4</ele>
        <time>2021-04-30T21:50:25.000Z</time>
      </trkpt>
      <trkpt lat="4.817444700747728" lon="-75.69475019350648">
        <ele>1404.6</ele>
        <time>2021-04-30T21:50:26.000Z</time>
      </trkpt>
      <trkpt lat="4.8174128495156765" lon="-75.69476058706641">
        <ele>1404.6</ele>
        <time>2021-04-30T21:50:28.000Z</time>
      </trkpt>
      <trkpt lat="4.817402958869934" lon="-75.6947613414377">
        <ele>1404.8</ele>
        <time>2021-04-30T21:50:34.000Z</time>
      </trkpt>
      <trkpt lat="4.817397175356746" lon="-75.69476519711316">
        <ele>1404.8</ele>
        <time>2021-04-30T21:50:41.000Z</time>
      </trkpt>
      <trkpt lat="4.817269016057253" lon="-75.69477475248277">
        <ele>1405.6</ele>
        <time>2021-04-30T21:50:45.000Z</time>
      </trkpt>
      <trkpt lat="4.817057624459267" lon="-75.69479000754654">
        <ele>1406.8</ele>
        <time>2021-04-30T21:50:49.000Z</time>
      </trkpt>
      <trkpt lat="4.816993251442909" lon="-75.69480023346841">
        <ele>1407.2</ele>
        <time>2021-04-30T21:50:50.000Z</time>
      </trkpt>
      <trkpt lat="4.816803568974137" lon="-75.69481012411416">
        <ele>1409</ele>
        <time>2021-04-30T21:50:53.000Z</time>
      </trkpt>
      <trkpt lat="4.816750260069966" lon="-75.69477307610214">
        <ele>1409.8</ele>
        <time>2021-04-30T21:50:54.000Z</time>
      </trkpt>
      <trkpt lat="4.8166795168071985" lon="-75.69476678967476">
        <ele>1410.6</ele>
        <time>2021-04-30T21:50:55.000Z</time>
      </trkpt>
      <trkpt lat="4.8166189994663" lon="-75.69477450102568">
        <ele>1411.2</ele>
        <time>2021-04-30T21:50:56.000Z</time>
      </trkpt>
      <trkpt lat="4.816389502957463" lon="-75.69481230340898">
        <ele>1413.4</ele>
        <time>2021-04-30T21:51:00.000Z</time>
      </trkpt>
      <trkpt lat="4.816243406385183" lon="-75.69480987265706">
        <ele>1415</ele>
        <time>2021-04-30T21:51:03.000Z</time>
      </trkpt>
      <trkpt lat="4.81614014133811" lon="-75.69476025179029">
        <ele>1416.4</ele>
        <time>2021-04-30T21:51:05.000Z</time>
      </trkpt>
      <trkpt lat="4.816045090556145" lon="-75.69476343691349">
        <ele>1417.4</ele>
        <time>2021-04-30T21:51:07.000Z</time>
      </trkpt>
      <trkpt lat="4.815934197977185" lon="-75.69486686959863">
        <ele>1418</ele>
        <time>2021-04-30T21:51:10.000Z</time>
      </trkpt>
      <trkpt lat="4.815901173278689" lon="-75.69485982879996">
        <ele>1418.4</ele>
        <time>2021-04-30T21:51:11.000Z</time>
      </trkpt>
      <trkpt lat="4.815866304561496" lon="-75.69487885572016">
        <ele>1418.8</ele>
        <time>2021-04-30T21:51:13.000Z</time>
      </trkpt>
      <trkpt lat="4.8158560786396265" lon="-75.69486368447542">
        <ele>1419</ele>
        <time>2021-04-30T21:51:14.000Z</time>
      </trkpt>
      <trkpt lat="4.815834118053317" lon="-75.69482420571148">
        <ele>1419.4</ele>
        <time>2021-04-30T21:51:16.000Z</time>
      </trkpt>
      <trkpt lat="4.815785754472017" lon="-75.69480316713452">
        <ele>1420</ele>
        <time>2021-04-30T21:51:18.000Z</time>
      </trkpt>
      <trkpt lat="4.8157447669655085" lon="-75.69480274803936">
        <ele>1420.6</ele>
        <time>2021-04-30T21:51:19.000Z</time>
      </trkpt>
      <trkpt lat="4.815716352313757" lon="-75.69481372833252">
        <ele>1420.8</ele>
        <time>2021-04-30T21:51:20.000Z</time>
      </trkpt>
      <trkpt lat="4.815645022317767" lon="-75.6948408856988">
        <ele>1421.4</ele>
        <time>2021-04-30T21:51:22.000Z</time>
      </trkpt>
      <trkpt lat="4.815549720078707" lon="-75.69485605694354">
        <ele>1422.2</ele>
        <time>2021-04-30T21:51:24.000Z</time>
      </trkpt>
      <trkpt lat="4.815513426437974" lon="-75.69485329091549">
        <ele>1422.6</ele>
        <time>2021-04-30T21:51:25.000Z</time>
      </trkpt>
      <trkpt lat="4.81535249389708" lon="-75.69485748186707">
        <ele>1424.2</ele>
        <time>2021-04-30T21:51:30.000Z</time>
      </trkpt>
      <trkpt lat="4.815342184156179" lon="-75.69486552849412">
        <ele>1424.2</ele>
        <time>2021-04-30T21:51:31.000Z</time>
      </trkpt>
      <trkpt lat="4.81533489190042" lon="-75.69487432949245">
        <ele>1424.2</ele>
        <time>2021-04-30T21:51:32.000Z</time>
      </trkpt>
      <trkpt lat="4.815251072868705" lon="-75.69494456984103">
        <ele>1424</ele>
        <time>2021-04-30T21:51:38.000Z</time>
      </trkpt>
      <trkpt lat="4.814633745700121" lon="-75.69500994868577">
        <ele>1423.8</ele>
        <time>2021-04-30T21:51:50.000Z</time>
      </trkpt>
      <trkpt lat="4.814344150945544" lon="-75.69489100947976">
        <ele>1421.6</ele>
        <time>2021-04-30T21:51:56.000Z</time>
      </trkpt>
      <trkpt lat="4.814198138192296" lon="-75.69482915103436">
        <ele>1420.8</ele>
        <time>2021-04-30T21:51:59.000Z</time>
      </trkpt>
      <trkpt lat="4.814124209806323" lon="-75.69489327259362">
        <ele>1420</ele>
        <time>2021-04-30T21:52:01.000Z</time>
      </trkpt>
      <trkpt lat="4.814081881195307" lon="-75.69492914713919">
        <ele>1419.6</ele>
        <time>2021-04-30T21:52:03.000Z</time>
      </trkpt>
      <trkpt lat="4.814069392159581" lon="-75.69492604583502">
        <ele>1419.4</ele>
        <time>2021-04-30T21:52:04.000Z</time>
      </trkpt>
      <trkpt lat="4.814054807648063" lon="-75.69493040442467">
        <ele>1419.4</ele>
        <time>2021-04-30T21:52:07.000Z</time>
      </trkpt>
      <trkpt lat="4.813967132940888" lon="-75.69496225565672">
        <ele>1418.6</ele>
        <time>2021-04-30T21:52:12.000Z</time>
      </trkpt>
      <trkpt lat="4.813880883157253" lon="-75.69495605304837">
        <ele>1418</ele>
        <time>2021-04-30T21:52:14.000Z</time>
      </trkpt>
      <trkpt lat="4.813837883993983" lon="-75.69495588541031">
        <ele>1417.6</ele>
        <time>2021-04-30T21:52:15.000Z</time>
      </trkpt>
      <trkpt lat="4.813748952001333" lon="-75.6949542928487">
        <ele>1417</ele>
        <time>2021-04-30T21:52:17.000Z</time>
      </trkpt>
      <trkpt lat="4.813468744978309" lon="-75.69489645771682">
        <ele>1415.6</ele>
        <time>2021-04-30T21:52:22.000Z</time>
      </trkpt>
      <trkpt lat="4.813249725848436" lon="-75.69501958787441">
        <ele>1414</ele>
        <time>2021-04-30T21:52:26.000Z</time>
      </trkpt>
      <trkpt lat="4.813214605674148" lon="-75.69504138082266">
        <ele>1413.8</ele>
        <time>2021-04-30T21:52:27.000Z</time>
      </trkpt>
      <trkpt lat="4.813168589025736" lon="-75.69504775106907">
        <ele>1413.6</ele>
        <time>2021-04-30T21:52:29.000Z</time>
      </trkpt>
      <trkpt lat="4.8131495621055365" lon="-75.69505319930613">
        <ele>1413.4</ele>
        <time>2021-04-30T21:52:30.000Z</time>
      </trkpt>
      <trkpt lat="4.813127517700195" lon="-75.69506300613284">
        <ele>1413.2</ele>
        <time>2021-04-30T21:52:31.000Z</time>
      </trkpt>
      <trkpt lat="4.813100444152951" lon="-75.69507499225438">
        <ele>1413</ele>
        <time>2021-04-30T21:52:32.000Z</time>
      </trkpt>
      <trkpt lat="4.812934650108218" lon="-75.69509946741164">
        <ele>1412.2</ele>
        <time>2021-04-30T21:52:36.000Z</time>
      </trkpt>
      <trkpt lat="4.812801713123918" lon="-75.69511195644736">
        <ele>1411.6</ele>
        <time>2021-04-30T21:52:38.000Z</time>
      </trkpt>
      <trkpt lat="4.812728203833103" lon="-75.69512218236923">
        <ele>1411</ele>
        <time>2021-04-30T21:52:39.000Z</time>
      </trkpt>
      <trkpt lat="4.812659891322255" lon="-75.69514003582299">
        <ele>1410.4</ele>
        <time>2021-04-30T21:52:40.000Z</time>
      </trkpt>
      <trkpt lat="4.81252821162343" lon="-75.69514833390713">
        <ele>1409.6</ele>
        <time>2021-04-30T21:52:42.000Z</time>
      </trkpt>
      <trkpt lat="4.812416061758995" lon="-75.69520868360996">
        <ele>1408.6</ele>
        <time>2021-04-30T21:52:44.000Z</time>
      </trkpt>
      <trkpt lat="4.812376834452152" lon="-75.69521362893283">
        <ele>1408.2</ele>
        <time>2021-04-30T21:52:45.000Z</time>
      </trkpt>
      <trkpt lat="4.812349174171686" lon="-75.69521899335086">
        <ele>1408</ele>
        <time>2021-04-30T21:52:46.000Z</time>
      </trkpt>
      <trkpt lat="4.812326794490218" lon="-75.69522863253951">
        <ele>1407.6</ele>
        <time>2021-04-30T21:52:48.000Z</time>
      </trkpt>
      <trkpt lat="4.812327045947313" lon="-75.6952135451138">
        <ele>1407.6</ele>
        <time>2021-04-30T21:52:50.000Z</time>
      </trkpt>
      <trkpt lat="4.812330063432455" lon="-75.69520105607808">
        <ele>1407.6</ele>
        <time>2021-04-30T21:52:53.000Z</time>
      </trkpt>
      <trkpt lat="4.812303660437465" lon="-75.69519694894552">
        <ele>1407.4</ele>
        <time>2021-04-30T21:52:58.000Z</time>
      </trkpt>
      <trkpt lat="4.812191762030125" lon="-75.6952254474163">
        <ele>1405.8</ele>
        <time>2021-04-30T21:53:01.000Z</time>
      </trkpt>
      <trkpt lat="4.811976179480553" lon="-75.69524053484201">
        <ele>1403.4</ele>
        <time>2021-04-30T21:53:04.000Z</time>
      </trkpt>
      <trkpt lat="4.811796471476555" lon="-75.69525914266706">
        <ele>1402.2</ele>
        <time>2021-04-30T21:53:06.000Z</time>
      </trkpt>
      <trkpt lat="4.8117058631032705" lon="-75.69527003914118">
        <ele>1401.6</ele>
        <time>2021-04-30T21:53:07.000Z</time>
      </trkpt>
      <trkpt lat="4.811621876433492" lon="-75.69528202526271">
        <ele>1401</ele>
        <time>2021-04-30T21:53:08.000Z</time>
      </trkpt>
      <trkpt lat="4.811456585302949" lon="-75.69530876353383">
        <ele>1399.8</ele>
        <time>2021-04-30T21:53:10.000Z</time>
      </trkpt>
      <trkpt lat="4.811214096844196" lon="-75.69537481293082">
        <ele>1398.6</ele>
        <time>2021-04-30T21:53:13.000Z</time>
      </trkpt>
      <trkpt lat="4.811132708564401" lon="-75.6953930016607">
        <ele>1399</ele>
        <time>2021-04-30T21:53:14.000Z</time>
      </trkpt>
      <trkpt lat="4.811048805713654" lon="-75.6954056583345">
        <ele>1399.2</ele>
        <time>2021-04-30T21:53:15.000Z</time>
      </trkpt>
      <trkpt lat="4.810844035819173" lon="-75.69543348625302">
        <ele>1400.2</ele>
        <time>2021-04-30T21:53:18.000Z</time>
      </trkpt>
      <trkpt lat="4.81065577827394" lon="-75.695457207039">
        <ele>1401</ele>
        <time>2021-04-30T21:53:23.000Z</time>
      </trkpt>
      <trkpt lat="4.810629291459918" lon="-75.69545100443065">
        <ele>1401.2</ele>
        <time>2021-04-30T21:53:24.000Z</time>
      </trkpt>
      <trkpt lat="4.810591489076614" lon="-75.69545729085803">
        <ele>1401.2</ele>
        <time>2021-04-30T21:53:27.000Z</time>
      </trkpt>
      <trkpt lat="4.810523930937052" lon="-75.69547899998724">
        <ele>1401.6</ele>
        <time>2021-04-30T21:53:30.000Z</time>
      </trkpt>
      <trkpt lat="4.810442877933383" lon="-75.69548352621496">
        <ele>1401.8</ele>
        <time>2021-04-30T21:53:32.000Z</time>
      </trkpt>
      <trkpt lat="4.810314131900668" lon="-75.69549425505102">
        <ele>1402.2</ele>
        <time>2021-04-30T21:53:34.000Z</time>
      </trkpt>
      <trkpt lat="4.810190415009856" lon="-75.6955037266016">
        <ele>1402.4</ele>
        <time>2021-04-30T21:53:36.000Z</time>
      </trkpt>
      <trkpt lat="4.810000481083989" lon="-75.69552870467305">
        <ele>1402.4</ele>
        <time>2021-04-30T21:53:39.000Z</time>
      </trkpt>
      <trkpt lat="4.809841392561793" lon="-75.6955396849662">
        <ele>1402.6</ele>
        <time>2021-04-30T21:53:42.000Z</time>
      </trkpt>
      <trkpt lat="4.8097641952335835" lon="-75.69554974325001">
        <ele>1402.6</ele>
        <time>2021-04-30T21:53:44.000Z</time>
      </trkpt>
      <trkpt lat="4.809712478891015" lon="-75.69556022062898">
        <ele>1402.6</ele>
        <time>2021-04-30T21:53:46.000Z</time>
      </trkpt>
      <trkpt lat="4.8096823040395975" lon="-75.69559500552714">
        <ele>1402.4</ele>
        <time>2021-04-30T21:53:50.000Z</time>
      </trkpt>
      <trkpt lat="4.8096673004329205" lon="-75.69561109878123">
        <ele>1402.4</ele>
        <time>2021-04-30T21:53:52.000Z</time>
      </trkpt>
      <trkpt lat="4.8096575774252415" lon="-75.6956126075238">
        <ele>1402.4</ele>
        <time>2021-04-30T21:53:55.000Z</time>
      </trkpt>
      <trkpt lat="4.809676939621568" lon="-75.69562442600727">
        <ele>1402.2</ele>
        <time>2021-04-30T21:54:04.000Z</time>
      </trkpt>
      <trkpt lat="4.809665204957128" lon="-75.69559450261295">
        <ele>1402.4</ele>
        <time>2021-04-30T21:54:09.000Z</time>
      </trkpt>
      <trkpt lat="4.8096340242773294" lon="-75.69555745460093">
        <ele>1402.8</ele>
        <time>2021-04-30T21:54:14.000Z</time>
      </trkpt>
      <trkpt lat="4.809631006792188" lon="-75.6955103483051">
        <ele>1403</ele>
        <time>2021-04-30T21:54:17.000Z</time>
      </trkpt>
      <trkpt lat="4.80962622910738" lon="-75.6954606436193">
        <ele>1403</ele>
        <time>2021-04-30T21:54:22.000Z</time>
      </trkpt>
      <trkpt lat="4.809630503877997" lon="-75.6954434607178">
        <ele>1403</ele>
        <time>2021-04-30T21:54:24.000Z</time>
      </trkpt>
      <trkpt lat="4.809636203572154" lon="-75.69541093893349">
        <ele>1403.2</ele>
        <time>2021-04-30T21:54:27.000Z</time>
      </trkpt>
      <trkpt lat="4.809644166380167" lon="-75.69537187926471">
        <ele>1403.2</ele>
        <time>2021-04-30T21:54:31.000Z</time>
      </trkpt>
      <trkpt lat="4.809647016227245" lon="-75.6953258626163">
        <ele>1403.2</ele>
        <time>2021-04-30T21:54:36.000Z</time>
      </trkpt>
      <trkpt lat="4.809630420058966" lon="-75.69526392035186">
        <ele>1403</ele>
        <time>2021-04-30T21:54:45.000Z</time>
      </trkpt>
      <trkpt lat="4.809611057862639" lon="-75.69523693062365">
        <ele>1403</ele>
        <time>2021-04-30T21:54:51.000Z</time>
      </trkpt>
      <trkpt lat="4.809610638767481" lon="-75.69515973329544">
        <ele>1403</ele>
        <time>2021-04-30T21:54:57.000Z</time>
      </trkpt>
      <trkpt lat="4.809617092832923" lon="-75.69514246657491">
        <ele>1403</ele>
        <time>2021-04-30T21:54:58.000Z</time>
      </trkpt>
      <trkpt lat="4.809639723971486" lon="-75.69509536027908">
        <ele>1403.2</ele>
        <time>2021-04-30T21:55:03.000Z</time>
      </trkpt>
      <trkpt lat="4.809643998742104" lon="-75.69504817016423">
        <ele>1403.2</ele>
        <time>2021-04-30T21:55:07.000Z</time>
      </trkpt>
      <trkpt lat="4.809613740071654" lon="-75.69491020403802">
        <ele>1403</ele>
        <time>2021-04-30T21:55:18.000Z</time>
      </trkpt>
      <trkpt lat="4.809610471129417" lon="-75.6948734074831">
        <ele>1403</ele>
        <time>2021-04-30T21:55:21.000Z</time>
      </trkpt>
      <trkpt lat="4.809590522199869" lon="-75.69475664757192">
        <ele>1403</ele>
        <time>2021-04-30T21:55:31.000Z</time>
      </trkpt>
      <trkpt lat="4.809572249650955" lon="-75.69467475637794">
        <ele>1403</ele>
        <time>2021-04-30T21:55:39.000Z</time>
      </trkpt>
      <trkpt lat="4.809525981545448" lon="-75.69458808749914">
        <ele>1403</ele>
        <time>2021-04-30T21:55:47.000Z</time>
      </trkpt>
      <trkpt lat="4.80951483361423" lon="-75.6945607624948">
        <ele>1403</ele>
        <time>2021-04-30T21:55:50.000Z</time>
      </trkpt>
      <trkpt lat="4.809512319043279" lon="-75.6945232115686">
        <ele>1403</ele>
        <time>2021-04-30T21:55:52.000Z</time>
      </trkpt>
      <trkpt lat="4.809515168890357" lon="-75.69449999369681">
        <ele>1403</ele>
        <time>2021-04-30T21:55:54.000Z</time>
      </trkpt>
      <trkpt lat="4.809514498338103" lon="-75.69446001201868">
        <ele>1403.2</ele>
        <time>2021-04-30T21:55:58.000Z</time>
      </trkpt>
      <trkpt lat="4.809516258537769" lon="-75.69442916661501">
        <ele>1403.2</ele>
        <time>2021-04-30T21:56:01.000Z</time>
      </trkpt>
      <trkpt lat="4.809518437832594" lon="-75.69431156851351">
        <ele>1403.4</ele>
        <time>2021-04-30T21:56:12.000Z</time>
      </trkpt>
      <trkpt lat="4.809493878856301" lon="-75.69427812471986">
        <ele>1403.2</ele>
        <time>2021-04-30T21:56:17.000Z</time>
      </trkpt>
      <trkpt lat="4.809492034837604" lon="-75.69425574503839">
        <ele>1403.2</ele>
        <time>2021-04-30T21:56:19.000Z</time>
      </trkpt>
      <trkpt lat="4.80947476811707" lon="-75.69419824518263">
        <ele>1403.2</ele>
        <time>2021-04-30T21:56:23.000Z</time>
      </trkpt>
      <trkpt lat="4.809468816965818" lon="-75.6941704172641">
        <ele>1403.2</ele>
        <time>2021-04-30T21:56:25.000Z</time>
      </trkpt>
      <trkpt lat="4.809448448941112" lon="-75.69410663098097">
        <ele>1403.2</ele>
        <time>2021-04-30T21:56:29.000Z</time>
      </trkpt>
      <trkpt lat="4.809464626014233" lon="-75.69398970343173">
        <ele>1403.4</ele>
        <time>2021-04-30T21:56:35.000Z</time>
      </trkpt>
      <trkpt lat="4.809472002089024" lon="-75.69389590993524">
        <ele>1403.6</ele>
        <time>2021-04-30T21:56:42.000Z</time>
      </trkpt>
      <trkpt lat="4.809467559680343" lon="-75.69380396045744">
        <ele>1403.4</ele>
        <time>2021-04-30T21:56:50.000Z</time>
      </trkpt>
      <trkpt lat="4.80944300070405" lon="-75.69371435791254">
        <ele>1403</ele>
        <time>2021-04-30T21:56:56.000Z</time>
      </trkpt>
      <trkpt lat="4.809440905228257" lon="-75.6936804112047">
        <ele>1402.8</ele>
        <time>2021-04-30T21:56:59.000Z</time>
      </trkpt>
      <trkpt lat="4.809443252161145" lon="-75.69367471151054">
        <ele>1402.8</ele>
        <time>2021-04-30T21:57:00.000Z</time>
      </trkpt>
      <trkpt lat="4.8094425816088915" lon="-75.69361662492156">
        <ele>1402.6</ele>
        <time>2021-04-30T21:57:05.000Z</time>
      </trkpt>
      <trkpt lat="4.809452723711729" lon="-75.69350145757198">
        <ele>1402.2</ele>
        <time>2021-04-30T21:57:13.000Z</time>
      </trkpt>
      <trkpt lat="4.809458423405886" lon="-75.69342534989119">
        <ele>1402</ele>
        <time>2021-04-30T21:57:18.000Z</time>
      </trkpt>
      <trkpt lat="4.8094534780830145" lon="-75.69339098408818">
        <ele>1401.8</ele>
        <time>2021-04-30T21:57:21.000Z</time>
      </trkpt>
      <trkpt lat="4.809449622407556" lon="-75.69337824359536">
        <ele>1401.8</ele>
        <time>2021-04-30T21:57:22.000Z</time>
      </trkpt>
      <trkpt lat="4.809431936591864" lon="-75.69328227080405">
        <ele>1401.4</ele>
        <time>2021-04-30T21:57:29.000Z</time>
      </trkpt>
      <trkpt lat="4.809412909671664" lon="-75.69317925721407">
        <ele>1400.8</ele>
        <time>2021-04-30T21:57:37.000Z</time>
      </trkpt>
      <trkpt lat="4.80941173620522" lon="-75.69315746426582">
        <ele>1400.8</ele>
        <time>2021-04-30T21:57:39.000Z</time>
      </trkpt>
      <trkpt lat="4.809409808367491" lon="-75.69313500076532">
        <ele>1400.8</ele>
        <time>2021-04-30T21:57:41.000Z</time>
      </trkpt>
      <trkpt lat="4.809409389272332" lon="-75.69311924278736">
        <ele>1400.8</ele>
        <time>2021-04-30T21:57:42.000Z</time>
      </trkpt>
      <trkpt lat="4.809406623244286" lon="-75.69308563135564">
        <ele>1400.8</ele>
        <time>2021-04-30T21:57:44.000Z</time>
      </trkpt>
      <trkpt lat="4.8094013426452875" lon="-75.69303165189922">
        <ele>1400.6</ele>
        <time>2021-04-30T21:57:48.000Z</time>
      </trkpt>
      <trkpt lat="4.8094019293785095" lon="-75.69297138601542">
        <ele>1401</ele>
        <time>2021-04-30T21:57:54.000Z</time>
      </trkpt>
      <trkpt lat="4.8094036895781755" lon="-75.69288295693696">
        <ele>1401.4</ele>
        <time>2021-04-30T21:58:04.000Z</time>
      </trkpt>
      <trkpt lat="4.809425231069326" lon="-75.69285328499973">
        <ele>1401.6</ele>
        <time>2021-04-30T21:58:10.000Z</time>
      </trkpt>
      <trkpt lat="4.809436546638608" lon="-75.69284456782043">
        <ele>1401.6</ele>
        <time>2021-04-30T21:58:11.000Z</time>
      </trkpt>
      <trkpt lat="4.809533022344112" lon="-75.69277315400541">
        <ele>1402.2</ele>
        <time>2021-04-30T21:58:20.000Z</time>
      </trkpt>
      <trkpt lat="4.8096286598593" lon="-75.69271003827453">
        <ele>1402.4</ele>
        <time>2021-04-30T21:58:28.000Z</time>
      </trkpt>
      <trkpt lat="4.809638969600201" lon="-75.69269302301109">
        <ele>1402.4</ele>
        <time>2021-04-30T21:58:30.000Z</time>
      </trkpt>
      <trkpt lat="4.809633353725076" lon="-75.69268128834665">
        <ele>1402.4</ele>
        <time>2021-04-30T21:58:31.000Z</time>
      </trkpt>
      <trkpt lat="4.809606783092022" lon="-75.69266511127353">
        <ele>1402.6</ele>
        <time>2021-04-30T21:58:33.000Z</time>
      </trkpt>
      <trkpt lat="4.809544840827584" lon="-75.69265807047486">
        <ele>1402.8</ele>
        <time>2021-04-30T21:58:37.000Z</time>
      </trkpt>
      <trkpt lat="4.809459345415235" lon="-75.69265899248421">
        <ele>1402.6</ele>
        <time>2021-04-30T21:58:44.000Z</time>
      </trkpt>
      <trkpt lat="4.80943763628602" lon="-75.69266234524548">
        <ele>1402.6</ele>
        <time>2021-04-30T21:58:46.000Z</time>
      </trkpt>
      <trkpt lat="4.809388183057308" lon="-75.69266167469323">
        <ele>1402.4</ele>
        <time>2021-04-30T21:58:50.000Z</time>
      </trkpt>
      <trkpt lat="4.8093807231634855" lon="-75.69265647791326">
        <ele>1402.4</ele>
        <time>2021-04-30T21:58:52.000Z</time>
      </trkpt>
      <trkpt lat="4.809358762577176" lon="-75.69263032637537">
        <ele>1402.4</ele>
        <time>2021-04-30T21:58:56.000Z</time>
      </trkpt>
      <trkpt lat="4.8093451000750065" lon="-75.69261691533029">
        <ele>1402.4</ele>
        <time>2021-04-30T21:58:58.000Z</time>
      </trkpt>
      <trkpt lat="4.809291288256645" lon="-75.69258942268789">
        <ele>1402.4</ele>
        <time>2021-04-30T21:59:01.000Z</time>
      </trkpt>
      <trkpt lat="4.809286845847964" lon="-75.69257626309991">
        <ele>1402.6</ele>
        <time>2021-04-30T21:59:02.000Z</time>
      </trkpt>
      <trkpt lat="4.809284834191203" lon="-75.69256042130291">
        <ele>1402.6</ele>
        <time>2021-04-30T21:59:03.000Z</time>
      </trkpt>
      <trkpt lat="4.809279218316078" lon="-75.69237845018506">
        <ele>1403.8</ele>
        <time>2021-04-30T21:59:15.000Z</time>
      </trkpt>
      <trkpt lat="4.8092797212302685" lon="-75.69230670109391">
        <ele>1404.2</ele>
        <time>2021-04-30T21:59:20.000Z</time>
      </trkpt>
      <trkpt lat="4.809278715401888" lon="-75.6922852434218">
        <ele>1404.4</ele>
        <time>2021-04-30T21:59:22.000Z</time>
      </trkpt>
      <trkpt lat="4.809280056506395" lon="-75.69227862171829">
        <ele>1404.4</ele>
        <time>2021-04-30T21:59:23.000Z</time>
      </trkpt>
      <trkpt lat="4.80927879922092" lon="-75.69227325730026">
        <ele>1404.4</ele>
        <time>2021-04-30T21:59:24.000Z</time>
      </trkpt>
      <trkpt lat="4.809277458116412" lon="-75.6922506261617">
        <ele>1404.6</ele>
        <time>2021-04-30T21:59:28.000Z</time>
      </trkpt>
      <trkpt lat="4.809277458116412" lon="-75.69222799502313">
        <ele>1404.8</ele>
        <time>2021-04-30T21:59:31.000Z</time>
      </trkpt>
      <trkpt lat="4.809261281043291" lon="-75.69218734279275">
        <ele>1405</ele>
        <time>2021-04-30T21:59:36.000Z</time>
      </trkpt>
      <trkpt lat="4.809214007109404" lon="-75.69212925620377">
        <ele>1405.6</ele>
        <time>2021-04-30T21:59:43.000Z</time>
      </trkpt>
      <trkpt lat="4.809189280495048" lon="-75.69206161424518">
        <ele>1406.2</ele>
        <time>2021-04-30T21:59:48.000Z</time>
      </trkpt>
      <trkpt lat="4.809185592457652" lon="-75.69201459176838">
        <ele>1406.6</ele>
        <time>2021-04-30T21:59:51.000Z</time>
      </trkpt>
      <trkpt lat="4.809177964925766" lon="-75.6919340416789">
        <ele>1407.2</ele>
        <time>2021-04-30T21:59:57.000Z</time>
      </trkpt>
      <trkpt lat="4.8091489635407925" lon="-75.69182155653834">
        <ele>1408.2</ele>
        <time>2021-04-30T22:00:04.000Z</time>
      </trkpt>
      <trkpt lat="4.809160949662328" lon="-75.69176900200546">
        <ele>1408.6</ele>
        <time>2021-04-30T22:00:10.000Z</time>
      </trkpt>
      <trkpt lat="4.809151981025934" lon="-75.69172231480479">
        <ele>1409</ele>
        <time>2021-04-30T22:00:14.000Z</time>
      </trkpt>
      <trkpt lat="4.809130523353815" lon="-75.69166699424386">
        <ele>1409.6</ele>
        <time>2021-04-30T22:00:19.000Z</time>
      </trkpt>
      <trkpt lat="4.80911853723228" lon="-75.69161385297775">
        <ele>1410.2</ele>
        <time>2021-04-30T22:00:23.000Z</time>
      </trkpt>
      <trkpt lat="4.8090985883027315" lon="-75.69151863455772">
        <ele>1411</ele>
        <time>2021-04-30T22:00:29.000Z</time>
      </trkpt>
      <trkpt lat="4.809091128408909" lon="-75.69144898094237">
        <ele>1411.8</ele>
        <time>2021-04-30T22:00:36.000Z</time>
      </trkpt>
      <trkpt lat="4.809068748727441" lon="-75.6914112623781">
        <ele>1412.2</ele>
        <time>2021-04-30T22:00:39.000Z</time>
      </trkpt>
      <trkpt lat="4.80904184281826" lon="-75.69132761098444">
        <ele>1412.6</ele>
        <time>2021-04-30T22:00:48.000Z</time>
      </trkpt>
      <trkpt lat="4.809058019891381" lon="-75.69131160154939">
        <ele>1412.6</ele>
        <time>2021-04-30T22:00:55.000Z</time>
      </trkpt>
      <trkpt lat="4.809051984921098" lon="-75.6913042254746">
        <ele>1412.6</ele>
        <time>2021-04-30T22:00:57.000Z</time>
      </trkpt>
      <trkpt lat="4.809029018506408" lon="-75.6912746373564">
        <ele>1412.6</ele>
        <time>2021-04-30T22:01:05.000Z</time>
      </trkpt>
      <trkpt lat="4.809003788977861" lon="-75.69124630652368">
        <ele>1412.6</ele>
        <time>2021-04-30T22:01:11.000Z</time>
      </trkpt>
      <trkpt lat="4.80899540707469" lon="-75.69122803397477">
        <ele>1412.6</ele>
        <time>2021-04-30T22:01:14.000Z</time>
      </trkpt>
      <trkpt lat="4.808990964666009" lon="-75.691212778911">
        <ele>1412.6</ele>
        <time>2021-04-30T22:01:16.000Z</time>
      </trkpt>
      <trkpt lat="4.808984007686377" lon="-75.69118461571634">
        <ele>1412.6</ele>
        <time>2021-04-30T22:01:19.000Z</time>
      </trkpt>
      <trkpt lat="4.808961125090718" lon="-75.69112753495574">
        <ele>1412.8</ele>
        <time>2021-04-30T22:01:25.000Z</time>
      </trkpt>
      <trkpt lat="4.8089551739394665" lon="-75.69110632874072">
        <ele>1412.8</ele>
        <time>2021-04-30T22:01:27.000Z</time>
      </trkpt>
      <trkpt lat="4.808942936360836" lon="-75.69107917137444">
        <ele>1413</ele>
        <time>2021-04-30T22:01:31.000Z</time>
      </trkpt>
      <trkpt lat="4.8089392483234406" lon="-75.69104614667594">
        <ele>1413</ele>
        <time>2021-04-30T22:01:34.000Z</time>
      </trkpt>
      <trkpt lat="4.808925921097398" lon="-75.69097003899515">
        <ele>1413.4</ele>
        <time>2021-04-30T22:01:42.000Z</time>
      </trkpt>
      <trkpt lat="4.808889292180538" lon="-75.6908634211868">
        <ele>1414</ele>
        <time>2021-04-30T22:01:54.000Z</time>
      </trkpt>
      <trkpt lat="4.8088635597378016" lon="-75.69077205844223">
        <ele>1414.4</ele>
        <time>2021-04-30T22:02:03.000Z</time>
      </trkpt>
      <trkpt lat="4.8088559322059155" lon="-75.69075420498848">
        <ele>1414.6</ele>
        <time>2021-04-30T22:02:05.000Z</time>
      </trkpt>
      <trkpt lat="4.808823158964515" lon="-75.69070475175977">
        <ele>1414.8</ele>
        <time>2021-04-30T22:02:13.000Z</time>
      </trkpt>
      <trkpt lat="4.808800863102078" lon="-75.69060576148331">
        <ele>1415.4</ele>
        <time>2021-04-30T22:02:24.000Z</time>
      </trkpt>
      <trkpt lat="4.808778818696737" lon="-75.69050467573106">
        <ele>1415.8</ele>
        <time>2021-04-30T22:02:35.000Z</time>
      </trkpt>
      <trkpt lat="4.808756103739142" lon="-75.69047232158482">
        <ele>1415.8</ele>
        <time>2021-04-30T22:02:39.000Z</time>
      </trkpt>
      <trkpt lat="4.808757277205586" lon="-75.69044801406562">
        <ele>1416</ele>
        <time>2021-04-30T22:02:42.000Z</time>
      </trkpt>
      <trkpt lat="4.80875551700592" lon="-75.69042278453708">
        <ele>1416</ele>
        <time>2021-04-30T22:02:44.000Z</time>
      </trkpt>
      <trkpt lat="4.808768928050995" lon="-75.69034877233207">
        <ele>1416</ele>
        <time>2021-04-30T22:02:49.000Z</time>
      </trkpt>
      <trkpt lat="4.8087551817297935" lon="-75.69026092998683">
        <ele>1416.2</ele>
        <time>2021-04-30T22:02:57.000Z</time>
      </trkpt>
      <trkpt lat="4.808705309405923" lon="-75.69021717645228">
        <ele>1416.2</ele>
        <time>2021-04-30T22:03:02.000Z</time>
      </trkpt>
      <trkpt lat="4.808697095140815" lon="-75.6901833973825">
        <ele>1416.2</ele>
        <time>2021-04-30T22:03:05.000Z</time>
      </trkpt>
      <trkpt lat="4.808684019371867" lon="-75.69010636769235">
        <ele>1416.2</ele>
        <time>2021-04-30T22:03:12.000Z</time>
      </trkpt>
      <trkpt lat="4.808681253343821" lon="-75.69009664468467">
        <ele>1416.2</ele>
        <time>2021-04-30T22:03:13.000Z</time>
      </trkpt>
      <trkpt lat="4.808677397668362" lon="-75.69002212956548">
        <ele>1416.4</ele>
        <time>2021-04-30T22:03:20.000Z</time>
      </trkpt>
      <trkpt lat="4.808667758479714" lon="-75.68999103270471">
        <ele>1416.2</ele>
        <time>2021-04-30T22:03:23.000Z</time>
      </trkpt>
      <trkpt lat="4.808656107634306" lon="-75.6899516377598">
        <ele>1416.2</ele>
        <time>2021-04-30T22:03:26.000Z</time>
      </trkpt>
      <trkpt lat="4.808647138997912" lon="-75.68994560278952">
        <ele>1416.2</ele>
        <time>2021-04-30T22:03:27.000Z</time>
      </trkpt>
      <trkpt lat="4.808639260008931" lon="-75.68992632441223">
        <ele>1416.2</ele>
        <time>2021-04-30T22:03:29.000Z</time>
      </trkpt>
      <trkpt lat="4.808634482324123" lon="-75.68990897387266">
        <ele>1416.2</ele>
        <time>2021-04-30T22:03:31.000Z</time>
      </trkpt>
      <trkpt lat="4.808619981631637" lon="-75.6898794695735">
        <ele>1416</ele>
        <time>2021-04-30T22:03:34.000Z</time>
      </trkpt>
      <trkpt lat="4.808612857013941" lon="-75.68986857309937">
        <ele>1416</ele>
        <time>2021-04-30T22:03:35.000Z</time>
      </trkpt>
      <trkpt lat="4.8085699416697025" lon="-75.68978902883828">
        <ele>1416</ele>
        <time>2021-04-30T22:03:44.000Z</time>
      </trkpt>
      <trkpt lat="4.808527110144496" lon="-75.68975483067334">
        <ele>1416</ele>
        <time>2021-04-30T22:03:51.000Z</time>
      </trkpt>
      <trkpt lat="4.8084877990186214" lon="-75.68969305604696">
        <ele>1416.2</ele>
        <time>2021-04-30T22:04:00.000Z</time>
      </trkpt>
      <trkpt lat="4.808454103767872" lon="-75.68963128142059">
        <ele>1416.8</ele>
        <time>2021-04-30T22:04:08.000Z</time>
      </trkpt>
      <trkpt lat="4.808446392416954" lon="-75.68956741131842">
        <ele>1417.4</ele>
        <time>2021-04-30T22:04:16.000Z</time>
      </trkpt>
      <trkpt lat="4.808418061584234" lon="-75.68951301276684">
        <ele>1418</ele>
        <time>2021-04-30T22:04:22.000Z</time>
      </trkpt>
      <trkpt lat="4.80838755145669" lon="-75.68941452540457">
        <ele>1418.8</ele>
        <time>2021-04-30T22:04:32.000Z</time>
      </trkpt>
      <trkpt lat="4.808386126533151" lon="-75.68940463475883">
        <ele>1419</ele>
        <time>2021-04-30T22:04:33.000Z</time>
      </trkpt>
      <trkpt lat="4.808375397697091" lon="-75.68936959840357">
        <ele>1419.4</ele>
        <time>2021-04-30T22:04:37.000Z</time>
      </trkpt>
      <trkpt lat="4.808380845934153" lon="-75.68933707661927">
        <ele>1419.6</ele>
        <time>2021-04-30T22:04:41.000Z</time>
      </trkpt>
      <trkpt lat="4.808364165946841" lon="-75.68927278742194">
        <ele>1420.4</ele>
        <time>2021-04-30T22:04:51.000Z</time>
      </trkpt>
      <trkpt lat="4.808374056592584" lon="-75.68925728090107">
        <ele>1420.6</ele>
        <time>2021-04-30T22:04:58.000Z</time>
      </trkpt>
      <trkpt lat="4.808370200917125" lon="-75.6891796644777">
        <ele>1421.2</ele>
        <time>2021-04-30T22:05:05.000Z</time>
      </trkpt>
      <trkpt lat="4.808374810963869" lon="-75.6890919059515">
        <ele>1421.8</ele>
        <time>2021-04-30T22:05:12.000Z</time>
      </trkpt>
      <trkpt lat="4.808365758508444" lon="-75.68894078023732">
        <ele>1422.6</ele>
        <time>2021-04-30T22:05:22.000Z</time>
      </trkpt>
      <trkpt lat="4.808365171775222" lon="-75.68889090791345">
        <ele>1422.8</ele>
        <time>2021-04-30T22:05:28.000Z</time>
      </trkpt>
      <trkpt lat="4.808363579213619" lon="-75.68888177163899">
        <ele>1423</ele>
        <time>2021-04-30T22:05:29.000Z</time>
      </trkpt>
      <trkpt lat="4.808363830670714" lon="-75.68886031396687">
        <ele>1423</ele>
        <time>2021-04-30T22:05:31.000Z</time>
      </trkpt>
      <trkpt lat="4.808359472081065" lon="-75.68883332423866">
        <ele>1423</ele>
        <time>2021-04-30T22:05:34.000Z</time>
      </trkpt>
      <trkpt lat="4.808357292786241" lon="-75.68882083520293">
        <ele>1422.8</ele>
        <time>2021-04-30T22:05:36.000Z</time>
      </trkpt>
      <trkpt lat="4.808359807357192" lon="-75.68880574777722">
        <ele>1422.8</ele>
        <time>2021-04-30T22:05:38.000Z</time>
      </trkpt>
      <trkpt lat="4.8083599749952555" lon="-75.6887345854193">
        <ele>1422.6</ele>
        <time>2021-04-30T22:05:47.000Z</time>
      </trkpt>
      <trkpt lat="4.808350084349513" lon="-75.6886706314981">
        <ele>1422.4</ele>
        <time>2021-04-30T22:05:55.000Z</time>
      </trkpt>
      <trkpt lat="4.808348994702101" lon="-75.68866359069943">
        <ele>1422.4</ele>
        <time>2021-04-30T22:05:56.000Z</time>
      </trkpt>
      <trkpt lat="4.808343714103103" lon="-75.6886222679168">
        <ele>1422.2</ele>
        <time>2021-04-30T22:06:00.000Z</time>
      </trkpt>
      <trkpt lat="4.80834748595953" lon="-75.68859159015119">
        <ele>1422.2</ele>
        <time>2021-04-30T22:06:03.000Z</time>
      </trkpt>
      <trkpt lat="4.808346731588244" lon="-75.6885720603168">
        <ele>1422.2</ele>
        <time>2021-04-30T22:06:05.000Z</time>
      </trkpt>
      <trkpt lat="4.808346563950181" lon="-75.68849762901664">
        <ele>1422</ele>
        <time>2021-04-30T22:06:15.000Z</time>
      </trkpt>
      <trkpt lat="4.808333572000265" lon="-75.68841909058392">
        <ele>1421.8</ele>
        <time>2021-04-30T22:06:24.000Z</time>
      </trkpt>
      <trkpt lat="4.808361064642668" lon="-75.6883804500103">
        <ele>1421.8</ele>
        <time>2021-04-30T22:06:30.000Z</time>
      </trkpt>
      <trkpt lat="4.808349581435323" lon="-75.68833175115287">
        <ele>1421.8</ele>
        <time>2021-04-30T22:06:38.000Z</time>
      </trkpt>
      <trkpt lat="4.808337930589914" lon="-75.68830744363368">
        <ele>1421.8</ele>
        <time>2021-04-30T22:06:42.000Z</time>
      </trkpt>
      <trkpt lat="4.808338517323136" lon="-75.68828472867608">
        <ele>1421.8</ele>
        <time>2021-04-30T22:06:47.000Z</time>
      </trkpt>
      <trkpt lat="4.808342456817627" lon="-75.68827752023935">
        <ele>1422</ele>
        <time>2021-04-30T22:06:48.000Z</time>
      </trkpt>
      <trkpt lat="4.808353101834655" lon="-75.6882321741432">
        <ele>1422</ele>
        <time>2021-04-30T22:06:53.000Z</time>
      </trkpt>
      <trkpt lat="4.808350000530481" lon="-75.68821029737592">
        <ele>1422</ele>
        <time>2021-04-30T22:06:57.000Z</time>
      </trkpt>
      <trkpt lat="4.808345139026642" lon="-75.68815908394754">
        <ele>1422</ele>
        <time>2021-04-30T22:07:04.000Z</time>
      </trkpt>
      <trkpt lat="4.808340109884739" lon="-75.68808482028544">
        <ele>1422.2</ele>
        <time>2021-04-30T22:07:13.000Z</time>
      </trkpt>
      <trkpt lat="4.808339104056358" lon="-75.68805707618594">
        <ele>1422.2</ele>
        <time>2021-04-30T22:07:16.000Z</time>
      </trkpt>
      <trkpt lat="4.8083393555134535" lon="-75.68804064765573">
        <ele>1422.2</ele>
        <time>2021-04-30T22:07:18.000Z</time>
      </trkpt>
      <trkpt lat="4.808342372998595" lon="-75.68801114335656">
        <ele>1422.4</ele>
        <time>2021-04-30T22:07:22.000Z</time>
      </trkpt>
      <trkpt lat="4.8083428759127855" lon="-75.6879953853786">
        <ele>1422.4</ele>
        <time>2021-04-30T22:07:25.000Z</time>
      </trkpt>
      <trkpt lat="4.808338517323136" lon="-75.68797250278294">
        <ele>1422.6</ele>
        <time>2021-04-30T22:07:28.000Z</time>
      </trkpt>
      <trkpt lat="4.808337176218629" lon="-75.68793788552284">
        <ele>1422.8</ele>
        <time>2021-04-30T22:07:32.000Z</time>
      </trkpt>
      <trkpt lat="4.808336170390248" lon="-75.68792003206909">
        <ele>1422.8</ele>
        <time>2021-04-30T22:07:34.000Z</time>
      </trkpt>
      <trkpt lat="4.808328207582235" lon="-75.68784300237894">
        <ele>1423.2</ele>
        <time>2021-04-30T22:07:44.000Z</time>
      </trkpt>
      <trkpt lat="4.8083266988396645" lon="-75.68777502514422">
        <ele>1423.6</ele>
        <time>2021-04-30T22:07:53.000Z</time>
      </trkpt>
      <trkpt lat="4.8083113599568605" lon="-75.68772867321968">
        <ele>1423.8</ele>
        <time>2021-04-30T22:08:01.000Z</time>
      </trkpt>
      <trkpt lat="4.8083072528243065" lon="-75.68769908510149">
        <ele>1424</ele>
        <time>2021-04-30T22:08:06.000Z</time>
      </trkpt>
      <trkpt lat="4.808326363563538" lon="-75.68764636293054">
        <ele>1424.4</ele>
        <time>2021-04-30T22:08:12.000Z</time>
      </trkpt>
      <trkpt lat="4.808324771001935" lon="-75.68757813423872">
        <ele>1425</ele>
        <time>2021-04-30T22:08:22.000Z</time>
      </trkpt>
      <trkpt lat="4.808330051600933" lon="-75.6875442713499">
        <ele>1425.4</ele>
        <time>2021-04-30T22:08:28.000Z</time>
      </trkpt>
      <trkpt lat="4.808303480967879" lon="-75.6874258350581">
        <ele>1426.8</ele>
        <time>2021-04-30T22:08:39.000Z</time>
      </trkpt>
      <trkpt lat="4.808294679969549" lon="-75.68737713620067">
        <ele>1427.4</ele>
        <time>2021-04-30T22:08:45.000Z</time>
      </trkpt>
      <trkpt lat="4.808312114328146" lon="-75.68737152032554">
        <ele>1427.4</ele>
        <time>2021-04-30T22:08:51.000Z</time>
      </trkpt>
      <trkpt lat="4.808312868699431" lon="-75.68734184838831">
        <ele>1427.8</ele>
        <time>2021-04-30T22:08:57.000Z</time>
      </trkpt>
      <trkpt lat="4.808308929204941" lon="-75.68731561303139">
        <ele>1428</ele>
        <time>2021-04-30T22:09:01.000Z</time>
      </trkpt>
      <trkpt lat="4.808307001367211" lon="-75.68728627637029">
        <ele>1428.4</ele>
        <time>2021-04-30T22:09:07.000Z</time>
      </trkpt>
      <trkpt lat="4.8083066660910845" lon="-75.68727211095393">
        <ele>1428.6</ele>
        <time>2021-04-30T22:09:10.000Z</time>
      </trkpt>
      <trkpt lat="4.80830398388207" lon="-75.68726054392755">
        <ele>1428.8</ele>
        <time>2021-04-30T22:09:12.000Z</time>
      </trkpt>
      <trkpt lat="4.80829618871212" lon="-75.68723548203707">
        <ele>1429</ele>
        <time>2021-04-30T22:09:17.000Z</time>
      </trkpt>
      <trkpt lat="4.80829618871212" lon="-75.68722450174391">
        <ele>1429.2</ele>
        <time>2021-04-30T22:09:19.000Z</time>
      </trkpt>
      <trkpt lat="4.808280598372221" lon="-75.68717597052455">
        <ele>1429.6</ele>
        <time>2021-04-30T22:09:29.000Z</time>
      </trkpt>
      <trkpt lat="4.808268696069717" lon="-75.68714445456862">
        <ele>1429.6</ele>
        <time>2021-04-30T22:09:36.000Z</time>
      </trkpt>
      <trkpt lat="4.808257212862372" lon="-75.68710589781404">
        <ele>1429.8</ele>
        <time>2021-04-30T22:09:44.000Z</time>
      </trkpt>
      <trkpt lat="4.808253441005945" lon="-75.68710162304342">
        <ele>1429.8</ele>
        <time>2021-04-30T22:09:45.000Z</time>
      </trkpt>
      <trkpt lat="4.808234246447682" lon="-75.68706038407981">
        <ele>1430</ele>
        <time>2021-04-30T22:09:52.000Z</time>
      </trkpt>
      <trkpt lat="4.80820189230144" lon="-75.68699047900736">
        <ele>1430.2</ele>
        <time>2021-04-30T22:10:06.000Z</time>
      </trkpt>
      <trkpt lat="4.808161072432995" lon="-75.68691353313625">
        <ele>1430.4</ele>
        <time>2021-04-30T22:10:19.000Z</time>
      </trkpt>
      <trkpt lat="4.808125868439674" lon="-75.6868761498481">
        <ele>1431.2</ele>
        <time>2021-04-30T22:10:29.000Z</time>
      </trkpt>
      <trkpt lat="4.808120168745518" lon="-75.68687053397298">
        <ele>1431.4</ele>
        <time>2021-04-30T22:10:38.000Z</time>
      </trkpt>
      <trkpt lat="4.8080946039408445" lon="-75.68682837300003">
        <ele>1432.2</ele>
        <time>2021-04-30T22:10:46.000Z</time>
      </trkpt>
      <trkpt lat="4.808072727173567" lon="-75.68681295029819">
        <ele>1432.6</ele>
        <time>2021-04-30T22:10:55.000Z</time>
      </trkpt>
      <trkpt lat="4.8080801870673895" lon="-75.68681051954627">
        <ele>1432.6</ele>
        <time>2021-04-30T22:11:01.000Z</time>
      </trkpt>
      <trkpt lat="4.808080270886421" lon="-75.68681110627949">
        <ele>1432.6</ele>
        <time>2021-04-30T22:11:08.000Z</time>
      </trkpt>
      <trkpt lat="4.808080270886421" lon="-75.68681110627949">
        <ele>1432.6</ele>
        <time>2021-04-30T22:11:10.000Z</time>
      </trkpt>
      <trkpt lat="4.808080103248358" lon="-75.68681135773659">
        <ele>1432.6</ele>
        <time>2021-04-30T22:11:19.000Z</time>
      </trkpt>
      <trkpt lat="4.808080103248358" lon="-75.68681286647916">
        <ele>1432.6</ele>
        <time>2021-04-30T22:11:30.000Z</time>
      </trkpt>
      <trkpt lat="4.8080831207334995" lon="-75.68681454285979">
        <ele>1432.4</ele>
        <time>2021-04-30T22:11:41.000Z</time>
      </trkpt>
      <trkpt lat="4.808084210380912" lon="-75.68681512959301">
        <ele>1432.4</ele>
        <time>2021-04-30T22:11:44.000Z</time>
      </trkpt>
      <trkpt lat="4.808086389675736" lon="-75.68682041019201">
        <ele>1432.4</ele>
        <time>2021-04-30T22:11:51.000Z</time>
      </trkpt>
      <trkpt lat="4.80808756314218" lon="-75.68682217039168">
        <ele>1432.4</ele>
        <time>2021-04-30T22:11:52.000Z</time>
      </trkpt>
      <trkpt lat="4.808090329170227" lon="-75.68682820536196">
        <ele>1432.2</ele>
        <time>2021-04-30T22:11:56.000Z</time>
      </trkpt>
      <trkpt lat="4.808086138218641" lon="-75.68683130666614">
        <ele>1432.2</ele>
        <time>2021-04-30T22:12:04.000Z</time>
      </trkpt>
      <trkpt lat="4.808085132390261" lon="-75.68683239631355">
        <ele>1432.2</ele>
        <time>2021-04-30T22:12:10.000Z</time>
      </trkpt>
      <trkpt lat="4.808067949488759" lon="-75.6868349108845">
        <ele>1432.4</ele>
        <time>2021-04-30T22:12:26.000Z</time>
      </trkpt>
      <trkpt lat="4.808067614212632" lon="-75.6868346594274">
        <ele>1432.4</ele>
        <time>2021-04-30T22:12:31.000Z</time>
      </trkpt>
      <trkpt lat="4.808067614212632" lon="-75.6868346594274">
        <ele>1432.4</ele>
        <time>2021-04-30T22:12:32.000Z</time>
      </trkpt>
      <trkpt lat="4.808067195117474" lon="-75.68683407269418">
        <ele>1432.4</ele>
        <time>2021-04-30T22:12:37.000Z</time>
      </trkpt>
      <trkpt lat="4.80806702747941" lon="-75.6868328154087">
        <ele>1432.4</ele>
        <time>2021-04-30T22:12:41.000Z</time>
      </trkpt>
      <trkpt lat="4.808069542050362" lon="-75.68682895973325">
        <ele>1432.4</ele>
        <time>2021-04-30T22:13:01.000Z</time>
      </trkpt>
      <trkpt lat="4.808070631697774" lon="-75.68682728335261">
        <ele>1432.4</ele>
        <time>2021-04-30T22:13:16.000Z</time>
      </trkpt>
      <trkpt lat="4.808074738830328" lon="-75.68681915290654">
        <ele>1432.4</ele>
        <time>2021-04-30T22:13:29.000Z</time>
      </trkpt>
      <trkpt lat="4.808074906468391" lon="-75.68681881763041">
        <ele>1432.4</ele>
        <time>2021-04-30T22:13:31.000Z</time>
      </trkpt>
      <trkpt lat="4.808074990287423" lon="-75.68681856617332">
        <ele>1432.4</ele>
        <time>2021-04-30T22:13:38.000Z</time>
      </trkpt>
      <trkpt lat="4.808073313906789" lon="-75.68681915290654">
        <ele>1432.6</ele>
        <time>2021-04-30T22:13:41.000Z</time>
      </trkpt>
      <trkpt lat="4.808070715516806" lon="-75.68682057783008">
        <ele>1432.6</ele>
        <time>2021-04-30T22:13:45.000Z</time>
      </trkpt>
      <trkpt lat="4.8080636747181416" lon="-75.68682426586747">
        <ele>1432.6</ele>
        <time>2021-04-30T22:14:01.000Z</time>
      </trkpt>
      <trkpt lat="4.8080630879849195" lon="-75.68682535551488">
        <ele>1432.6</ele>
        <time>2021-04-30T22:14:05.000Z</time>
      </trkpt>
      <trkpt lat="4.808064009994268" lon="-75.6868259422481">
        <ele>1432.6</ele>
        <time>2021-04-30T22:14:36.000Z</time>
      </trkpt>
      <trkpt lat="4.808064177632332" lon="-75.6868259422481">
        <ele>1432.6</ele>
        <time>2021-04-30T22:14:43.000Z</time>
      </trkpt>
      <trkpt lat="4.808064177632332" lon="-75.6868259422481">
        <ele>1432.6</ele>
        <time>2021-04-30T22:14:45.000Z</time>
      </trkpt>
      <trkpt lat="4.808064429089427" lon="-75.6868259422481">
        <ele>1432.6</ele>
        <time>2021-04-30T22:14:55.000Z</time>
      </trkpt>
      <trkpt lat="4.808065015822649" lon="-75.68682585842907">
        <ele>1432.6</ele>
        <time>2021-04-30T22:15:18.000Z</time>
      </trkpt>
      <trkpt lat="4.808065602555871" lon="-75.68682535551488">
        <ele>1432.6</ele>
        <time>2021-04-30T22:15:37.000Z</time>
      </trkpt>
      <trkpt lat="4.808065937831998" lon="-75.68682468496263">
        <ele>1432.6</ele>
        <time>2021-04-30T22:15:55.000Z</time>
      </trkpt>
      <trkpt lat="4.808066440746188" lon="-75.68682367913425">
        <ele>1432.6</ele>
        <time>2021-04-30T22:16:23.000Z</time>
      </trkpt>
      <trkpt lat="4.808066692203283" lon="-75.68682359531522">
        <ele>1432.6</ele>
        <time>2021-04-30T22:16:46.000Z</time>
      </trkpt>
      <trkpt lat="4.808066692203283" lon="-75.68682359531522">
        <ele>1432.6</ele>
        <time>2021-04-30T22:16:48.000Z</time>
      </trkpt>
      <trkpt lat="4.808062836527824" lon="-75.68681596778333">
        <ele>1432.6</ele>
        <time>2021-04-30T22:16:50.000Z</time>
      </trkpt>
      <trkpt lat="4.808036182075739" lon="-75.6867572106421">
        <ele>1433.6</ele>
        <time>2021-04-30T22:16:54.000Z</time>
      </trkpt>
      <trkpt lat="4.8080286383628845" lon="-75.68674379959702">
        <ele>1433.8</ele>
        <time>2021-04-30T22:16:55.000Z</time>
      </trkpt>
      <trkpt lat="4.807993182912469" lon="-75.68669929169118">
        <ele>1434.8</ele>
        <time>2021-04-30T22:16:59.000Z</time>
      </trkpt>
      <trkpt lat="4.807986142113805" lon="-75.68669493310153">
        <ele>1435</ele>
        <time>2021-04-30T22:17:00.000Z</time>
      </trkpt>
      <trkpt lat="4.8079718090593815" lon="-75.68667934276164">
        <ele>1435.2</ele>
        <time>2021-04-30T22:17:03.000Z</time>
      </trkpt>
      <trkpt lat="4.807955883443356" lon="-75.68666014820337">
        <ele>1435.6</ele>
        <time>2021-04-30T22:17:07.000Z</time>
      </trkpt>
      <trkpt lat="4.807932749390602" lon="-75.68663097918034">
        <ele>1436.2</ele>
        <time>2021-04-30T22:17:13.000Z</time>
      </trkpt>
      <trkpt lat="4.807919254526496" lon="-75.68661128170788">
        <ele>1436.6</ele>
        <time>2021-04-30T22:17:16.000Z</time>
      </trkpt>
      <trkpt lat="4.807902155444026" lon="-75.68659300915897">
        <ele>1437</ele>
        <time>2021-04-30T22:17:19.000Z</time>
      </trkpt>
      <trkpt lat="4.807834597304463" lon="-75.68654229864478">
        <ele>1438.2</ele>
        <time>2021-04-30T22:17:30.000Z</time>
      </trkpt>
      <trkpt lat="4.807808864861727" lon="-75.68649678491056">
        <ele>1438.8</ele>
        <time>2021-04-30T22:17:37.000Z</time>
      </trkpt>
      <trkpt lat="4.807803835719824" lon="-75.68648932501674">
        <ele>1438.8</ele>
        <time>2021-04-30T22:17:38.000Z</time>
      </trkpt>
      <trkpt lat="4.8077591601759195" lon="-75.68643786013126">
        <ele>1439.6</ele>
        <time>2021-04-30T22:17:47.000Z</time>
      </trkpt>
      <trkpt lat="4.807727560400963" lon="-75.68640131503344">
        <ele>1440</ele>
        <time>2021-04-30T22:17:55.000Z</time>
      </trkpt>
      <trkpt lat="4.807668970897794" lon="-75.68639737553895">
        <ele>1440.2</ele>
        <time>2021-04-30T22:18:04.000Z</time>
      </trkpt>
      <trkpt lat="4.807650614529848" lon="-75.68639167584479">
        <ele>1440.2</ele>
        <time>2021-04-30T22:18:07.000Z</time>
      </trkpt>
      <trkpt lat="4.8076278157532215" lon="-75.68635395728052">
        <ele>1440.6</ele>
        <time>2021-04-30T22:18:14.000Z</time>
      </trkpt>
      <trkpt lat="4.807600490748882" lon="-75.68631288595498">
        <ele>1440.8</ele>
        <time>2021-04-30T22:18:21.000Z</time>
      </trkpt>
      <trkpt lat="4.807596802711487" lon="-75.68630224093795">
        <ele>1440.8</ele>
        <time>2021-04-30T22:18:27.000Z</time>
      </trkpt>
      <trkpt lat="4.807594204321504" lon="-75.68630383349955">
        <ele>1440.8</ele>
        <time>2021-04-30T22:18:34.000Z</time>
      </trkpt>
      <trkpt lat="4.807564113289118" lon="-75.68628287874162">
        <ele>1441</ele>
        <time>2021-04-30T22:18:40.000Z</time>
      </trkpt>
      <trkpt lat="4.8075527139008045" lon="-75.68625781685114">
        <ele>1441</ele>
        <time>2021-04-30T22:18:44.000Z</time>
      </trkpt>
      <trkpt lat="4.80752413161099" lon="-75.6862545479089">
        <ele>1441.2</ele>
        <time>2021-04-30T22:18:49.000Z</time>
      </trkpt>
      <trkpt lat="4.807519186288118" lon="-75.6862476747483">
        <ele>1441.2</ele>
        <time>2021-04-30T22:18:51.000Z</time>
      </trkpt>
    </trkseg>
  </trk>
</gpx>
